New Companies Registered Maharashtra | Jul 21

DHRUVGA INDIA PRIVATE LIMITEDU74999MH2021PTC363122Maharashtra01-07-2021
BNPS SALES INDIA PRIVATE LIMITEDU74999MH2021PTC363129Maharashtra01-07-2021
JANSEVAMULTISTATE NIDHI LIMITEDU65990MH2021PLN363073Maharashtra01-07-2021
DRUSHTI DIAGNOSTICS PRIVATE LIMITEDU85195PN2021PTC202275Maharashtra01-07-2021
SALASAR SOLAR GREEN ENERGY PRIVATE LIMITEDU40106MH2021PTC363104Maharashtra01-07-2021
GREENVEST ENERGY PRIVATE LIMITEDU74999MH2021PTC363131Maharashtra01-07-2021
YEOLA AGRO INDUSTRIES PRIVATE LIMITEDU01110MH2021PTC363072Maharashtra01-07-2021
SABTAK INDIA PRIVATE LIMITEDU74999MH2021PTC363108Maharashtra01-07-2021
PAWCARE ANIMAL WELFARE FOUNDATIONU85200MH2021NPL363128Maharashtra01-07-2021
PP7 ORGANICS INDIA PRIVATE LIMITEDU01110PN2021PTC202269Maharashtra01-07-2021
AQUADELIGHT FISHERIES PRIVATE LIMITEDU05000PN2021PTC202256Maharashtra01-07-2021
GRACE WEALTH PRIVATE LIMITEDU65990MH2021PTC363132Maharashtra01-07-2021
RESERVEGRAMIN URBAN NIDHI LIMITEDU65990MH2021PLN363097Maharashtra01-07-2021
FLOURISH CLINIC PRIVATE LIMITEDU93000PN2021PTC202252Maharashtra01-07-2021
FLASHSHIP TECHNOLOGY PRIVATE LIMITEDU15400MH2021PTC363126Maharashtra01-07-2021
NUTRIEARTH PRIVATE LIMITEDU01409MH2021PTC363105Maharashtra01-07-2021
CREAMIAFOODS (OPC) PRIVATE LIMITEDU15200MH2021OPC363085Maharashtra01-07-2021
GREENAPPLE MEDIA HOUSE PRIVATE LIMITEDU92490MH2021PTC363103Maharashtra01-07-2021
SHIVTIRTHA AGRO FEEDS PRIVATE LIMITEDU15400MH2021PTC363095Maharashtra01-07-2021
PSRJ OIL INDUSTRIES PRIVATE LIMITEDU11200MH2021PTC363084Maharashtra01-07-2021
MARATHA ESPORTS ASSOCIATIONU92490PN2021NPL202233Maharashtra01-07-2021
SIMPLE AGRICULTURAL INNOVATIONS PRIVATE LIMITEDU01400PN2021PTC202249Maharashtra01-07-2021
WORLD BROADCASTING NEWS NETWORK (OPC) PRIVATE LIMITEDU74999PN2021OPC202250Maharashtra01-07-2021
MEDACTIVE BIOTECH PRIVATE LIMITEDU24299PN2021PTC202243Maharashtra01-07-2021
QASWA INFRATECH PRIVATE LIMITEDU45201MH2021PTC363080Maharashtra01-07-2021
DEEPSATVA PRODUCTS PRIVATE LIMITEDU15490MH2021PTC363051Maharashtra01-07-2021
GLADISOUL HEALTHCARE PRIVATE LIMITEDU24299PN2021PTC202270Maharashtra01-07-2021
MADHESWARI URBAN MULTIPURPOSE NIDHI LIMITEDU65991PN2021PLN202245Maharashtra01-07-2021
DRESDEN FARMER PRODUCER COMPANY LIMITEDU01100MH2021PTC363079Maharashtra01-07-2021
CHISHTI EXPORT IMPORT PRIVATE LIMITEDU51909MH2021PTC363083Maharashtra01-07-2021
REVISTA COSMETICS PRIVATE LIMITEDU24301MH2021PTC363061Maharashtra01-07-2021
YASHODAI DAIRY FARM PRIVATE LIMITEDU15490PN2021PTC202263Maharashtra01-07-2021
SHENDURJANA KHURD AGRO FARMERS PRODUCER COMPANY LIMITEDU01100MH2021PTC363075Maharashtra01-07-2021
CHISHTI FASHION PRIVATE LIMITEDU51909MH2021PTC363077Maharashtra01-07-2021
ALANKAR EQUIPMENTS PRIVATE LIMITEDU51909MH2021PTC363098Maharashtra01-07-2021
SINTERTECH INDIA PRIVATE LIMITEDU28100PN2021PTC202237Maharashtra01-07-2021
GNP TECHPRO PRIVATE LIMITEDU51909PN2021PTC202257Maharashtra01-07-2021
SHREE SHUBHANAN CHAIN (OPC) PRIVATE LIMITEDU28900MH2021OPC363119Maharashtra01-07-2021
ISHU PHARMACEUTICALS PRIVATE LIMITEDU51909MH2021PTC363111Maharashtra01-07-2021
JFINSERV CONSULTANT INDIA PRIVATE LIMITEDU67100PN2021PTC202273Maharashtra01-07-2021
G.G.U.S. FOUNDATIONU85300MH2021NPL363054Maharashtra01-07-2021
LOW CARBON CONSTRUCT FORUMU85300MH2021NPL363059Maharashtra01-07-2021
MAFFS PUMPS PRIVATE LIMITEDU29100MH2021PTC363130Maharashtra01-07-2021
SHREEPUSHP AGRO PROCESSORS PRIVATE LIMITEDU01100MH2021PTC363136Maharashtra01-07-2021
RESOLVE ASSET RECONSTRUCTION INDIA LIMITEDU67100MH2021PLC363107Maharashtra01-07-2021
FLUID KINETICS PRIVATE LIMITEDU29100MH2021PTC363117Maharashtra01-07-2021
SYNECTICS TOOLING PRIVATE LIMITEDU29190PN2021PTC202240Maharashtra01-07-2021
HEMA MALINI FOUNDATIONU85300MH2021NPL363082Maharashtra01-07-2021
ADASI KISAN PRODUCER COMPANY LIMITEDU01100MH2021PTC363109Maharashtra01-07-2021
PRAVIN KANJIBHAI FOUNDATIONU85300MH2021NPL363099Maharashtra01-07-2021
SHIVKAMAL TEXTILES PRIVATE LIMITEDU17299PN2021PTC202254Maharashtra01-07-2021
GOLDSTALLION MARKETING PRIVATE LIMITEDU52100PN2021PTC202267Maharashtra01-07-2021
IQRA COMMODITIES PRIVATE LIMITEDU51909MH2021PTC363125Maharashtra01-07-2021
ELINO FS (OPC) PRIVATE LIMITEDU74910PN2021OPC202274Maharashtra01-07-2021
GIVING BACK TO COMMUNITY FOUNDATIONU85300MH2021NPL363074Maharashtra01-07-2021
MATRU SHIVANI CHARITABLE FOUNDATIONU85300MH2021NPL363087Maharashtra01-07-2021
HEALTH CIBO PRIVATE LIMITEDU85300MH2021PTC363092Maharashtra01-07-2021
COWRIE COLLECTIVE (OPC) PRIVATE LIMITEDU18100MH2021OPC363055Maharashtra01-07-2021
NU PAYMENT TECHNOLOGIES PRIVATE LIMITEDU72900MH2021PTC363053Maharashtra01-07-2021
WEALTHANGLE FINANCIAL SERVICES PRIVATE LIMITEDU67190MH2021PTC363100Maharashtra01-07-2021
V LAXMI ESTATE DEVELOPERS PRIVATE LIMITEDU45309MH2021PTC363112Maharashtra01-07-2021
SMARTCON LABS PRIVATE LIMITEDU72900MH2021PTC363101Maharashtra01-07-2021
PERAL GARMENTS AND EXPORT PRIVATE LIMITEDU18109PN2021PTC202239Maharashtra01-07-2021
KAPSTONE DIGITAL MANAGEMENT SERVICES PRIVATE LIMITEDU72900MH2021PTC363062Maharashtra01-07-2021
FIVE FISHERS TECHNOLOGIES PRIVATE LIMITEDU72900MH2021PTC363064Maharashtra01-07-2021
ACTION EARTH FOUNDATIONU85300PN2021NPL202259Maharashtra01-07-2021
DARNA PAPER MILL (OPC) PRIVATE LIMITEDU21093MH2021OPC363127Maharashtra01-07-2021
SMB INFRAWORKS PRIVATE LIMITEDU45309MH2021PTC363114Maharashtra01-07-2021
HIRA WAVHAL FOUNDATIONU85300PN2021NPL202271Maharashtra01-07-2021
MALGOONDKAR ELECTRICALS (OPC) PRIVATE LIMITEDU29309MH2021OPC363121Maharashtra01-07-2021
RADHESHYAM TODI FOUNDATIONU80902MH2021NPL363068Maharashtra01-07-2021
HEXAVIEW SYSTEMS PRIVATE LIMITEDU72900PN2021FTC202258Maharashtra01-07-2021
THREE OCTOPUS FOOD TECHNOLOGIES PRIVATE LIMITEDU72900MH2021PTC363069Maharashtra01-07-2021
DEMEANOR EQUIPMENT’S PRIVATE LIMITEDU29305PN2021PTC202255Maharashtra01-07-2021
IBITMAX TRADING SYSTEM PRIVATE LIMITEDU72900MH2021PTC363123Maharashtra01-07-2021
PRATITI WELFARE FOUNDATIONU85300PN2021NPL202241Maharashtra01-07-2021
GLOB FILMS PRODUCTION PRIVATE LIMITEDU22300MH2021PTC363118Maharashtra01-07-2021
AMACHA MARATHWADA INDIA (OPC) PRIVATE LIMITEDU22300MH2021OPC363102Maharashtra01-07-2021
ANEK FOUNDATIONU85300PN2021NPL202262Maharashtra01-07-2021
AGRI SHASTRA PRIVATE LIMITEDU24100MH2021PTC363057Maharashtra01-07-2021
BABYTEDDY PRIVATE LIMITEDU29309PN2021PTC202272Maharashtra01-07-2021
LORDS SOFTWARE TECHNOLOGIES PRIVATE LIMITEDU72900PN2021PTC202238Maharashtra01-07-2021
NRB INFRASTRUCTURE PRIVATE LIMITEDU70109MH2021PTC363071Maharashtra01-07-2021
SHREE RADHE GOVIND REALTY PRIVATE LIMITEDU45309MH2021PTC363133Maharashtra01-07-2021
CBG AGREE PRIVATE LIMITEDU01100PN2021PTC202242Maharashtra01-07-2021
AYU360 PRIVATE LIMITEDU85300PN2021PTC202251Maharashtra01-07-2021
CLOVERCARTE PRIVATE LIMITEDU31900MH2021PTC363093Maharashtra01-07-2021
KAKDESHIVAR FARMERS PRODUCER COMPANY LIMITEDU01100PN2021PTC202246Maharashtra01-07-2021
CORPVISION TECHNOLOGIES PRIVATE LIMITEDU72900PN2021PTC202260Maharashtra01-07-2021
BHAVYAA R-SQUARED PRIVATE LIMITEDU72900PN2021PTC202261Maharashtra01-07-2021
STARFIELD ENGINEERING PRIVATE LIMITEDU45309MH2021PTC363135Maharashtra01-07-2021
NEXUS INDIA RETAIL MANAGEMENT SERVICES PRIVATE LIMITEDU70109MH2021PTC363065Maharashtra01-07-2021
SENDNSPEND PAYTECH PRIVATE LIMITEDU72900PN2021PTC202268Maharashtra01-07-2021
REDINFRA SYSTEMS PRIVATE LIMITEDU31909MH2021PTC363106Maharashtra01-07-2021
TUVIS BIOSCIENCES PRIVATE LIMITEDU24110PN2021PTC202247Maharashtra01-07-2021
FERRUM REALTORS PRIVATE LIMITEDU70109MH2021PTC363067Maharashtra01-07-2021
SHANISHWAR CONTRACTORS AND SERVICES PRIVATE LIMITEDU45309PN2021PTC202253Maharashtra01-07-2021
ADHWISE TECHNOLOGY SOLUTIONS PRIVATE LIMITEDU72900PN2021PTC202276Maharashtra01-07-2021
INVICTUS LOGIPARTNERS PRIVATE LIMITEDU70109MH2021PTC363070Maharashtra01-07-2021
SIK HOTELS PRIVATE LIMITEDU55101PN2021PTC202235Maharashtra01-07-2021
MILAHEALTH PHARMACEUTICALS (OPC) PRIVATELIMITEDU24230MH2021OPC363089Maharashtra01-07-2021
IMS PHARMA PRIVATE LIMITEDU24239PN2021PTC202234Maharashtra01-07-2021
SEHATPRO TECHNOLOGIES PRIVATE LIMITEDU33110PN2021PTC202248Maharashtra01-07-2021
GLAZEBIO (OPC) PRIVATE LIMITEDU24231MH2021OPC363088Maharashtra01-07-2021
CURAMEND HEALTHCARE PRIVATE LIMITEDU24239MH2021PTC363058Maharashtra01-07-2021
VRV CHEMICAL INDUSTRIES PRIVATE LIMITEDU24290MH2021PTC363115Maharashtra01-07-2021
BLUESKY RESORTS & RECREATIONS PRIVATE LIMITEDU55209MH2021PTC363116Maharashtra01-07-2021
SUPRATI EDUTECH SOLUTIONS PRIVATE LIMITEDU80903PN2021PTC202244Maharashtra01-07-2021
SOUL SELECT INTERNATIONAL PRIVATE LIMITEDU36100MH2021PTC363060Maharashtra01-07-2021
GLOBAL PLUS AGENCIES (OPC) PRIVATE LIMITEDU74999MH2021OPC363124Maharashtra01-07-2021
ROHIT PAWAR FOUNDATIONU80904MH2021NPL363063Maharashtra01-07-2021
JOGESHWARI AGRI BIOTECH (OPC) PRIVATE LIMITEDU24290PN2021OPC202265Maharashtra01-07-2021
AKAYA INDIA CARE LIMITEDU74999MH2021PLC363120Maharashtra01-07-2021
S TECH INFRA PRIVATE LIMITEDU45400PN2021PTC202266Maharashtra01-07-2021
SKYBARD DELIVERY PRIVATE LIMITEDU63030PN2021PTC202264Maharashtra01-07-2021
QODEXL PRIVATE LIMITEDU74999MH2021PTC363076Maharashtra01-07-2021
BOOTSTRAP NOMADS PRIVATE LIMITEDU74999MH2021PTC363056Maharashtra01-07-2021
NNTV PRIVATE LIMITEDU92419MH2021PTC363090Maharashtra01-07-2021
YUG INTERNET AND CABLE PRIVATE LIMITEDU64120MH2021PTC363110Maharashtra01-07-2021
FONAS SOLUTIONS PRIVATE LIMITEDU74999MH2021PTC363078Maharashtra01-07-2021
EXPRESSWAY CRANES & EQUIPMENTS PRIVATE LIMITEDU63040MH2021PTC363113Maharashtra01-07-2021
BHARATMETRO DIGITAL SERVICES PRIVATE LIMITEDU74999MH2021PTC363081Maharashtra01-07-2021
ZUPISURE FORMULATIONS PRIVATE LIMITEDU24299MH2021PTC363066Maharashtra01-07-2021
KUSHAGRA AUTOMOTIVE PRIVATE LIMITEDU50300MH2021PTC363052Maharashtra01-07-2021
SARVA JANAROGYA FOUNDATIONU85100PN2021NPL202236Maharashtra01-07-2021
CHISHTI ENTERTAINMENT PRIVATE LIMITEDU74999MH2021PTC363086Maharashtra01-07-2021
R A H INFRAPROJECTS & CONSULTANTS (INDIA) PRIVATE LIMITEDU45500MH2021PTC363134Maharashtra01-07-2021
MAVENSWORTH GLOBAL TECHNOLOGIES PRIVATE LIMITEDU74999MH2021PTC363096Maharashtra01-07-2021
SHREE SHESHARAO FUEL PRIVATE LIMITEDU50100MH2021PTC363094Maharashtra01-07-2021
NEWNANO TECHNOLOGIES PRIVATE LIMITEDU24299MH2021PTC363091Maharashtra01-07-2021
DOCHIO TECHNOLOGIES PRIVATE LIMITEDU72900MH2021PTC363230Maharashtra02-07-2021
ISUN TECHNOVA INDIA PRIVATE LIMITEDU72900MH2021PTC363231Maharashtra02-07-2021
ABHYUDAYA BIOTECH (I) PRIVATE LIMITEDU24110PN2021PTC202285Maharashtra02-07-2021
TOUCHGUI PRIVATE LIMITEDU33309MH2021FTC363217Maharashtra02-07-2021
OXYLIFE SYSTEMS PRIVATE LIMITEDU33110MH2021PTC363197Maharashtra02-07-2021
MUKHTAR SOLUTIONS PRIVATE LIMITEDU72900MH2021PTC363209Maharashtra02-07-2021
SHRI SAI SWARAJ PRIVATE LIMITEDU50400MH2021PTC363219Maharashtra02-07-2021
VASUNDHARA BREATHERS PRIVATE LIMITEDU33203MH2021PTC363186Maharashtra02-07-2021
MAULI NAVNIRMAN SAKKARDARA NIDHI LIMITEDU65999MH2021PLN363215Maharashtra02-07-2021
SUGATRA (OPC) PRIVATE LIMITEDU52520PN2021OPC202292Maharashtra02-07-2021
KAISU PRODUCTS PRIVATE LIMITEDU34300MH2021PTC363206Maharashtra02-07-2021
BCI DESIGN SERVICES INDIA PRIVATE LIMITEDU72900PN2021FTC202298Maharashtra02-07-2021
V2S SEATINGS PRIVATE LIMITEDU35990PN2021PTC202289Maharashtra02-07-2021
DISPLAY SWEET INDIA PRIVATE LIMITEDU72900PN2021FTC202312Maharashtra02-07-2021
MARKIT B2B PROCUREMENT INDIA PRIVATE LIMITEDU52590MH2021PTC363179Maharashtra02-07-2021
ZAPER AUTO PRIVATE LIMITEDU34300PN2021PTC202319Maharashtra02-07-2021
MUMBAI FOREX PRIVATE LIMITEDU67190MH2021PTC363187Maharashtra02-07-2021
BHARADWAJ RELEGITECH PRIVATE LIMITEDU72900PN2021PTC202309Maharashtra02-07-2021
OYEBAZZAR SUPERMARTS (OPC) PRIVATE LIMITEDU52609MH2021OPC363225Maharashtra02-07-2021
SIGNIFICANT ENTERTAINMENT PRIVATE LIMITEDU92190MH2021PTC363153Maharashtra02-07-2021
SUPER MILES AUTOPARTS PRIVATE LIMITEDU35990PN2021PTC202317Maharashtra02-07-2021
UPCLICK LABS (OPC) PRIVATE LIMITEDU72900PN2021OPC202287Maharashtra02-07-2021
FINSIP INVESTMENTS INDIA PRIVATE LIMITEDU67110MH2021PTC363205Maharashtra02-07-2021
IMPERIO SYSTEM PRIVATE LIMITEDU72900PN2021PTC202286Maharashtra02-07-2021
DANNYYY’S RIVERSIDE COTTAGE (OPC) PRIVATE LIMITEDU55101PN2021OPC202305Maharashtra02-07-2021
ALCHEMOS PRIVATE LIMITEDU24290PN2021PTC202306Maharashtra02-07-2021
PRECINE REALTORS PRIVATE LIMITEDU70109MH2021PTC363165Maharashtra02-07-2021
LIFE ENERGY INFRA PRIVATE LIMITEDU70109PN2021PTC202308Maharashtra02-07-2021
PLANTD PHARMACEUTICALPRIVATE LIMITEDU24290MH2021PTC363144Maharashtra02-07-2021
BAJPEYI INDUSTRIAL GASES PRIVATE LIMITEDU24290MH2021PTC363147Maharashtra02-07-2021
DARAK MANAGEMENT SERVICES PRIVATE LIMITEDU74999MH2021PTC363141Maharashtra02-07-2021
RADICE FOOD PRIVATE LIMITEDU15400MH2021PTC363204Maharashtra02-07-2021
ANTARCTIC REALTY PRIVATE LIMITEDU70109MH2021PTC363168Maharashtra02-07-2021
NAVI CREATIONS FOOD & GIFTS PRIVATE LIMITEDU15400PN2021PTC202284Maharashtra02-07-2021
WALK THE TALK COMMUNICATIONS PRIVATE LIMITEDU74999MH2021PTC363154Maharashtra02-07-2021
YAYIN AGRO PROCESSING PRIVATE LIMITEDU15400PN2021PTC202316Maharashtra02-07-2021
ANCIENT AROMAS PRIVATE LIMITEDU15400PN2021PTC202318Maharashtra02-07-2021
DOSTI SECURITY AND MANPOWER INDIA PRIVATE LIMITEDU93090MH2021PTC363202Maharashtra02-07-2021
EBENEZER MINERALS & METALS PRIVATE LIMITEDU13200MH2021PTC363157Maharashtra02-07-2021
AADYAAGRO INDUSTRIES PRIVATE LIMITEDU15400MH2021PTC363203Maharashtra02-07-2021
CSC EARTH ORGANIC FARMERS PRODUCER COMPANY LIMITEDU01110MH2021PTC363211Maharashtra02-07-2021
PAARAKHI AGRO-TECH PRIVATE LIMITEDU01110PN2021PTC202282Maharashtra02-07-2021
KRUSHIVIGYAN AGRO FARMER PRODUCER COMPANY LIMITEDU01110PN2021PTC202300Maharashtra02-07-2021
PRODUCTIO TECHNOLOGIES PRIVATE LIMITEDU74999MH2021PTC363163Maharashtra02-07-2021
RELIANCE NEW ENERGY HYDROGEN ELECTROLYSIS LIMITEDU40101MH2021PLC363183Maharashtra02-07-2021
IDEAL SECURITY & CONSULTANTS PRIVATE LIMITEDU74999MH2021PTC363171Maharashtra02-07-2021
NEW SHIELD SECURITY & MANPOWER SERVICES PRIVATE LIMITEDU74999MH2021PTC363174Maharashtra02-07-2021
SMAZE PAY PRIVATE LIMITEDU74999MH2021PTC363192Maharashtra02-07-2021
GRAAMM DIGITAL PRIVATE LIMITEDU74999MH2021PTC363175Maharashtra02-07-2021
ARNAV BUSINESS CONSULTANTS PRIVATE LIMITEDU74999MH2021PTC363177Maharashtra02-07-2021
FOODXEL HOSPITALITY (OPC) PRIVATE LIMITEDU55209MH2021OPC363188Maharashtra02-07-2021
WOCKHARDT BIOLOGICS LIMITEDU24299MH2021PLC363201Maharashtra02-07-2021
VALLARI PHARMA PRIVATE LIMITEDU24299MH2021PTC363158Maharashtra02-07-2021
SOLITE LINKS PRIVATE LIMITEDU74999MH2021PTC363198Maharashtra02-07-2021
GLOBE CONNECTORS (INDIA) LOGISTICS PRIVATE LIMITEDU74999MH2021PTC363216Maharashtra02-07-2021
NISHIGANDHA CORPORATE PRIVATE LIMITEDU74999MH2021PTC363218Maharashtra02-07-2021
ASK MULTIVISION PRIVATE LIMITEDU24299PN2021PTC202302Maharashtra02-07-2021
MEDIFOLIA INDIA PRIVATE LIMITEDU74999MH2021PTC363229Maharashtra02-07-2021
GUARDIFY SECURITY SERVICES PRIVATE LIMITEDU74999PN2021PTC202303Maharashtra02-07-2021
JV ELITE CONSULTANCY (OPC) PRIVATE LIMITEDU51909MH2021OPC363214Maharashtra02-07-2021
NAGPUR AGRO SYNDICATE PRIVATE LIMITEDU15549MH2021PTC363221Maharashtra02-07-2021
YAG ENTERPRISES (OPC) PRIVATE LIMITEDU51909MH2021OPC363191Maharashtra02-07-2021
ARSHIYA DISTRIBUTION HUB PRIVATE LIMITEDU45203MH2021PTC363169Maharashtra02-07-2021
SAGAR TRANSLINE PRIVATE LIMITEDU60220MH2021PTC363162Maharashtra02-07-2021
GLOBALIN EXIM PRIVATE LIMITEDU51909MH2021PTC363161Maharashtra02-07-2021
ALLIED SHIPPING AND LOGISTICS PRIVATE LIMITEDU60300MH2021PTC363166Maharashtra02-07-2021
GAJANAN MAHARAJ FARMER PRODUCER COMPANY LIMITEDU01100MH2021PTC363164Maharashtra02-07-2021
KALKAI AGRO PRIVATE LIMITEDU51909PN2021PTC202301Maharashtra02-07-2021
CHISHTI SHIPPING PRIVATE LIMITEDU61200MH2021PTC363222Maharashtra02-07-2021
REVOLUNO CREATION PRIVATE LIMITEDU51909PN2021PTC202321Maharashtra02-07-2021
PRANAL SEEDS AND AGROTECH RESEARCH (OPC)PRIVATE LIMITEDU01100MH2021OPC363182Maharashtra02-07-2021
DEVOE INFRA & DEVELOPMENT PRIVATE LIMITEDU45209MH2021PTC363189Maharashtra02-07-2021
KHALSA SEVA FOUNDATIONU85300MH2021NPL363148Maharashtra02-07-2021
NAISARGIK ADIVASI FARMER PRODUCER COMPANY LIMITEDU01100MH2021PTC363173Maharashtra02-07-2021
LOKJANKRANTI HUMAN RIGHTS ASSOCIATIONU85300MH2021NPL363143Maharashtra02-07-2021
SHIVARMAN OVERSEAS PRIVATE LIMITEDU17299MH2021PTC363142Maharashtra02-07-2021
DEMOCRACYLIFE ASSOCIATIONU85300MH2021NPL363184Maharashtra02-07-2021
ATG FREIGHT INDIA PRIVATE LIMITEDU63030PN2021PTC202295Maharashtra02-07-2021
MG INTIGRETED COMMODITY SERVICES PRIVATELIMITEDU01100MH2021PTC363185Maharashtra02-07-2021
AELEA WELFARE FOUNDATIONU85300MH2021NPL363150Maharashtra02-07-2021
KKP LIFESTYLE PRIVATE LIMITEDU18100MH2021PTC363152Maharashtra02-07-2021
PARCEL FORCE LOGISTIC PRIVATE LIMITEDU63030MH2021PTC363146Maharashtra02-07-2021
24-7 ASK FOUNDATIONU85300MH2021NPL363151Maharashtra02-07-2021
ARCANE PROJECTS (OPC) PRIVATE LIMITEDU45309MH2021OPC363172Maharashtra02-07-2021
SHRISHIDDHANATH GARMENTS AND INDUSTRIES PRIVATE LIMITEDU18109PN2021PTC202310Maharashtra02-07-2021
JESUS LOVES US ALL FOUNDATIONU85300MH2021NPL363213Maharashtra02-07-2021
BUILDSURE INFRASTRUCTURE PRIVATE LIMITEDU45309MH2021PTC363137Maharashtra02-07-2021
CHAMBER OF MUSLIM INTELLECTUALSU85300MH2021NPL363193Maharashtra02-07-2021
STARCH POWER PRIVATE LIMITEDU01100MH2021PTC363181Maharashtra02-07-2021
MAC-FIT INDUSTRIES PRIVATE LIMITEDU28939MH2021PTC363160Maharashtra02-07-2021
RUDRA CREATIONS PRIVATE LIMITEDU18109MH2021PTC363228Maharashtra02-07-2021
MAHATMABASESHWAR FARMER PRODUCER COMPANYLIMITEDU01100MH2021PTC363194Maharashtra02-07-2021
RION BUILDTECH PRIVATE LIMITEDU45309PN2021PTC202299Maharashtra02-07-2021
VITTHAL RUKMINI SOCIAL FOUNDATIONU85300MH2021NPL363226Maharashtra02-07-2021
HELLOINTERNET PRIVATE LIMITEDU64200MH2021PTC363140Maharashtra02-07-2021
ACHARE BROADBAND (OPC) PRIVATE LIMITEDU64100MH2021OPC363145Maharashtra02-07-2021
JAGTIK JAN AADHAR FOUNDATIONU85300MH2021NPL363223Maharashtra02-07-2021
DATTAPRABHU FARMER PRODUCER COMPANY LIMITEDU01100MH2021PTC363196Maharashtra02-07-2021
BAAG BAGICHA FOUNDATIONU85300MH2021NPL363224Maharashtra02-07-2021
SHRI BHARATI LI & SOLAR ENERGY PRIVATE LIMITEDU29100PN2021PTC202320Maharashtra02-07-2021
360 DEGREE SAFETY AND SECURITY SOLUTIONSPRIVATE LIMITEDU29193PN2021PTC202297Maharashtra02-07-2021
BIRSA MUNDA ADIVASI KRUSHI KRANTI FARMERPRODUCER COMPANY LIMITEDU01100MH2021PTC363199Maharashtra02-07-2021
SWPNPURTI BAHUUUDESHIY FOUNDATIONU85300PN2021NPL202280Maharashtra02-07-2021
MOKSH WELFARE FOUNDATIONU85300PN2021NPL202290Maharashtra02-07-2021
ASSOCIATION FOR ARTS SOCIAL SUSTAINABILITY TRAINING AND HEALTH FOR ALLU85300PN2021NPL202291Maharashtra02-07-2021
RLWII SOCIAL WELFARE FOUNDATIONU85300PN2021NPL202296Maharashtra02-07-2021
ST. LAWRENCE EDUCATION FOUNDATIONU80302MH2021NPL363170Maharashtra02-07-2021
NATURE LOVERS FOUNDATIONU85300PN2021NPL202311Maharashtra02-07-2021
PRATIK SECURITY SERVICES PRIVATE LIMITEDU74140MH2021PTC363207Maharashtra02-07-2021
SHIV SAMPADA NIDHI LIMITEDU65929MH2021PLN363180Maharashtra02-07-2021
LIFTTECH EQUIP SALES SERVICES AND PACKAGING SOLUTIONS PRIVATE LIMITEDU29309PN2021PTC202304Maharashtra02-07-2021
DEO-AGRO INDUSTRIES PRODUCER COMPANY LIMITEDU01100PN2021PTC202279Maharashtra02-07-2021
PANDHARI BHUSHAN NEWSPAPERS PRIVATE LIMITEDU22219MH2021PTC363195Maharashtra02-07-2021
BADAMIYA URBAN NIDHI LIMITEDU65990MH2021PLN363176Maharashtra02-07-2021
ABCL EDSERVE PRIVATE LIMITEDU80900MH2021PTC363155Maharashtra02-07-2021
JAGGERY WORLD AGRO PRODUCTS FOUNDATIONU85300PN2021NPL202313Maharashtra02-07-2021
RUKHMAI PAPER INDUSTRY (INDIA) PRIVATE LIMITEDU21099MH2021PTC363138Maharashtra02-07-2021
ARCANDGREY CONSTRUCTION PRIVATE LIMITEDU45400MH2021PTC363178Maharashtra02-07-2021
TRILOKNATH NIDHI LIMITEDU65990MH2021PLN363149Maharashtra02-07-2021
KAI ANTU BHAIRU REPE (TATYA) FOUNDATIONU85300PN2021NPL202315Maharashtra02-07-2021
TRUTH AND TALES (OPC) PRIVATE LIMITEDU22300MH2021OPC363190Maharashtra02-07-2021
SHREE KSHETRA BHAGWAN GAD URBAN NIDHI LIMITEDU65990MH2021PLN363200Maharashtra02-07-2021
SPARKLE SPLENDOUR PRIVATE LIMITEDU45400PN2021PTC202307Maharashtra02-07-2021
EASYGOLD NIDHI LIMITEDU65990MH2021PLN363212Maharashtra02-07-2021
ROUPYA GREENTECH INDIA PRIVATE LIMITEDU23101MH2021PTC363139Maharashtra02-07-2021
CHOUNDESHWARY URBAN NIDHI LIMITEDU65990PN2021PLN202281Maharashtra02-07-2021
BYNOCS SOLUTIONS PRIVATE LIMITEDU52394MH2021PTC363159Maharashtra02-07-2021
BAELDENT PRIVATE LIMITEDU33100MH2021PTC363208Maharashtra02-07-2021
TRITON ALGORITHMS PRIVATE LIMITEDU72900MH2021PTC363156Maharashtra02-07-2021
OMNILIFE SYSTEMS PRIVATE LIMITEDU33100PN2021PTC202278Maharashtra02-07-2021
STUDIO PROXIMITY PRIVATE LIMITEDU72900MH2021PTC363167Maharashtra02-07-2021
DHAYRESHWAR FINANCE AND INVESTMENT PRIVATE LIMITEDU65990PN2021PTC202283Maharashtra02-07-2021
BHOKARDAN CLEANFUELS PRIVATE LIMITEDU23200MH2021PTC363227Maharashtra02-07-2021
ATPADI TALUKA AGRO FARMERS PRODUCER COMPANY LIMITEDU01100PN2021PTC202293Maharashtra02-07-2021
RUCHITA SURGICAL COTTON INDUSTRIES (OPC)PRIVATE LIMITEDU33120PN2021OPC202277Maharashtra02-07-2021
ADVIK MULTITRADE INDIA PRIVATE LIMITEDU31909PN2021PTC202288Maharashtra02-07-2021
HARITKRUSHI FARMERS PRODUCER COMPANY LIMITEDU01100PN2021PTC202294Maharashtra02-07-2021
PANTHAR INFOHUB PRIVATE LIMITEDU72900MH2021PTC363210Maharashtra02-07-2021
ORAGADAM INDUSTRIAL AND LOGISTICS PRIVATE LIMITEDU45201MH2021PTC363273Maharashtra05-07-2021
PUNEKAR AGRO FARMER PRODUCER COMPANY LIMITEDU01100MH2021PTC363266Maharashtra05-07-2021
BLUEDEAL COURIER AND LOGISTICS PRIVATE LIMITEDU64100MH2021PTC363324Maharashtra05-07-2021
MSM SOLVEX PRIVATE LIMITEDU01100MH2021PTC363251Maharashtra05-07-2021
BIOGROW ORGANICS PRIVATE LIMITEDU01100MH2021PTC363301Maharashtra05-07-2021
JAYGHOSH AGRO TECH INDIA PRIVATE LIMITEDU01100MH2021PTC363283Maharashtra05-07-2021
GSTLENZ PRIVATE LIMITEDU74120PN2021PTC202341Maharashtra05-07-2021
MARIYA ENGINEERING PRIVATE LIMITEDU45201MH2021PTC363296Maharashtra05-07-2021
SERVOMED HEALTHCARE PRIVATE LIMITEDU51909PN2021PTC202335Maharashtra05-07-2021
INTERNATIONAL HUMAN RIGHTS FEDERATION FOR WELFAREU85300MH2021NPL363243Maharashtra05-07-2021
ARC-VIEW PROFESSIONAL SERVICES PRIVATE LIMITEDU74140PN2021PTC202344Maharashtra05-07-2021
AMPLEWISH E BIZ INDUSTRIES PRIVATE LIMITEDU51909PN2021PTC202348Maharashtra05-07-2021
YOGADAN URJA FOUNDATIONU85300MH2021NPL363253Maharashtra05-07-2021
NASHIK MANAV SEWA FOUNDATIONU85300MH2021NPL363259Maharashtra05-07-2021
FYGEN ANIMAL HEALTH PRIVATE LIMITEDU51909PN2021PTC202353Maharashtra05-07-2021
ANAND PURVI FOUNDATIONU85300MH2021NPL363262Maharashtra05-07-2021
NANDURBAR CHILI PROCESSORS FOUNDATIONU85300MH2021NPL363264Maharashtra05-07-2021
INDUBAI METAL MART PRIVATE LIMITEDU51909PN2021PTC202359Maharashtra05-07-2021
KHALSA YODDHA ORGANISATIONU85300MH2021NPL363307Maharashtra05-07-2021
PARAM FINANCE LIMITEDU65990PN2021PLC202361Maharashtra05-07-2021
INDORAMA VENTURES YARNS PRIVATE LIMITEDU17299MH2021PTC363295Maharashtra05-07-2021
JATAYU INFRASTRUCTURE PRIVATE LIMITEDU45203MH2021PTC363241Maharashtra05-07-2021
HAND HOLDING LIMITEDU65990MH2021PLC363293Maharashtra05-07-2021
URBANLEELA FOUNDATIONU85300MH2021NPL363314Maharashtra05-07-2021
BULDHANA AGRO FEDERATIONU85300MH2021NPL363315Maharashtra05-07-2021
ASHA CARE AND RESEARCH FOUNDATIONU85300MH2021NPL363289Maharashtra05-07-2021
JEEVANDAN LIFE AHEAD FOUNDATIONU85300MH2021NPL363317Maharashtra05-07-2021
SHRIRAM KRISHNA INDUSTRIES PRIVATE LIMITEDU45203PN2021PTC202360Maharashtra05-07-2021
SAISAMARTH MULTIPURPOSE NIDHI LIMITEDU65990MH2021PLN363284Maharashtra05-07-2021
SABAH FOUNDATIONU85300MH2021NPL363292Maharashtra05-07-2021
RRAP INDUSTRIES PRIVATE LIMITEDU28999PN2021PTC202324Maharashtra05-07-2021
UMMUL KHAIR WELFARE FOUNDATIONU85300MH2021NPL363312Maharashtra05-07-2021
RICHADHAR KURIES PRIVATE LIMITEDU65992PN2021PTC202336Maharashtra05-07-2021
WAFTURE INFOTECH (OPC) PRIVATE LIMITEDU72900MH2021OPC363258Maharashtra05-07-2021
ADNA FOUNDATIONU85300PN2021NPL202345Maharashtra05-07-2021
KDC DATA CENTRE PRIVATE LIMITEDU72900MH2021FTC363265Maharashtra05-07-2021
SHIVKANYA AGRO FOODS (OPC) PRIVATE LIMITEDU01100PN2021OPC202333Maharashtra05-07-2021
DATTAJIRAO FARMER PRODUCER COMPANY LIMITEDU01100PN2021PTC202327Maharashtra05-07-2021
RUGVED VEER DADA FARMER PRODUCER COMPANYLIMITEDU01100PN2021PTC202339Maharashtra05-07-2021
REVENUE PLUS PILOT PRIVATE LIMITEDU72900MH2021PTC363272Maharashtra05-07-2021
ALEPHATA FARMERS AGRO PRODUCER COMPANY LIMITEDU01100PN2021PTC202330Maharashtra05-07-2021
JAYKRANTI URBAN NIDHI LIMITEDU65999PN2021PLN202347Maharashtra05-07-2021
NEXT WAVE SOFT-TECH PRIVATE LIMITEDU72900MH2021PTC363280Maharashtra05-07-2021
NIKALAS FOUNDATIONU80900MH2021NPL363268Maharashtra05-07-2021
HAMILTON HEALTH PRIVATE LIMITEDU52100MH2021PTC363242Maharashtra05-07-2021
OKIE GAMING AND ENTERTAINMENT PRIVATE LIMITEDU72900MH2021PTC363281Maharashtra05-07-2021
CRYSTALEDGE DENTAL & MEDICAL EQUIPMENTS PRIVATE LIMITEDU29308PN2021PTC202325Maharashtra05-07-2021
VINATA INDUSTRIES PRIVATE LIMITEDU18209MH2021PTC363294Maharashtra05-07-2021
GROWUP INVESTMENT SOLUTIONS PRIVATE LIMITEDU67100MH2021PTC363304Maharashtra05-07-2021
NISHKAERA FINANCIAL ADVISORY AND WEALTH MANAGEMENT PRIVATE LIMITEDU67100MH2021PTC363297Maharashtra05-07-2021
VNS IT GLOBAL SERVICES PRIVATE LIMITEDU72900MH2021PTC363290Maharashtra05-07-2021
VAGMINE TRAVEL GEAR PRIVATE LIMITEDU19121MH2021PTC363267Maharashtra05-07-2021
MICROFILTER POLYMERS PRIVATE LIMITEDU29309MH2021PTC363256Maharashtra05-07-2021
NEURAL HIVE TECHNOLOGIES PRIVATE LIMITEDU72900MH2021PTC363310Maharashtra05-07-2021
FETCH DATA INDIA PRIVATE LIMITEDU72900MH2021PTC363300Maharashtra05-07-2021
ANHIVA E-TAILER PRIVATE LIMITEDU51909MH2021PTC363252Maharashtra05-07-2021
SAISHREE INFOTAL PAYTRENDS PRIVATE LIMITEDU51909MH2021PTC363235Maharashtra05-07-2021
JBS AGRICTECH PRIVATE LIMITEDU01100MH2021PTC363237Maharashtra05-07-2021
THESAI EXPORTERS PRIVATE LIMITEDU51909MH2021PTC363277Maharashtra05-07-2021
ARSUL AGRITECH FARMERS PRODUCER COMPANY LIMITEDU01100MH2021PTC363249Maharashtra05-07-2021
SAHEB SINGH DRYFRUITS PRIVATE LIMITEDU51909MH2021PTC363288Maharashtra05-07-2021
SHREESWAMI PLASTCRAFT PRIVATE LIMITEDU25209MH2021PTC363232Maharashtra05-07-2021
OLTRACK INDIA PRIVATE LIMITEDU51909MH2021PTC363278Maharashtra05-07-2021
LOOKWELL CONSULTANTS (OPC) PRIVATE LIMITEDU74999MH2021OPC363298Maharashtra05-07-2021
SAVI FACILITY AND SECURITY SERVICES PRIVATE LIMITEDU74999MH2021PTC363238Maharashtra05-07-2021
SVENTA EVENTS AND MEDIA PRIVATE LIMITEDU74999MH2021PTC363274Maharashtra05-07-2021
MINORITY X PRIVATE LIMITEDU74999MH2021PTC363263Maharashtra05-07-2021
LIZ ALUMINIUM SERVICES PRIVATE LIMITEDU74999MH2021PTC363286Maharashtra05-07-2021
FUTGAS SERVICES PRIVATE LIMITEDU74999MH2021PTC363275Maharashtra05-07-2021
RAMSAAZ & SONS PRIVATE LIMITEDU15400MH2021PTC363236Maharashtra05-07-2021
MITHACKERAY PRIVATE LIMITEDU52520MH2021PTC363328Maharashtra05-07-2021
TRIDHAY DIVINITY PRIVATE LIMITEDU52520MH2021PTC363269Maharashtra05-07-2021
APSS ADARSH BIO AGRO PRIVATE LIMITEDU24100MH2021PTC363287Maharashtra05-07-2021
SOFTWING PRIVATE LIMITEDU72900PN2021PTC202322Maharashtra05-07-2021
GROWHAWK TECH PRIVATE LIMITEDU72900PN2021PTC202332Maharashtra05-07-2021
MVS TRADING PRIVATE LIMITEDU70109MH2021PTC363282Maharashtra05-07-2021
1NESS WORLD-WIDE PRIVATE LIMITEDU24230MH2021PTC363255Maharashtra05-07-2021
STAII CONSULTING PRIVATE LIMITEDU72900PN2021PTC202350Maharashtra05-07-2021
BLUE WORTH PROPERTIES PRIVATE LIMITEDU70109MH2021PTC363313Maharashtra05-07-2021
SIQUAR TECHNOLOGIES PRIVATE LIMITEDU72900PN2021PTC202331Maharashtra05-07-2021
HEALTHD HEALTHCARE TECHNOLOGIES PRIVATE LIMITEDU33119MH2021PTC363271Maharashtra05-07-2021
RANJANA RESTAURANTS PRIVATE LIMITEDU55101MH2021PTC363247Maharashtra05-07-2021
GROWTHLANE TECH PRIVATE LIMITEDU72900PN2021PTC202358Maharashtra05-07-2021
QUACK STUDIOS PRIVATE LIMITEDU92490MH2021PTC363318Maharashtra05-07-2021
MARCHETORS PRIVATE LIMITEDU72900PN2021PTC202342Maharashtra05-07-2021
PURPLEGRAD TECHNOLOGIES PRIVATE LIMITEDU72900PN2021PTC202351Maharashtra05-07-2021
POLYMEK PETROCHEM PRIVATE LIMITEDU24230MH2021PTC363330Maharashtra05-07-2021
YOURFIRST ESTATE PRIVATE LIMITEDU70109PN2021PTC202349Maharashtra05-07-2021
HOLLY 2 BOLLY PICTURES INDIA PRIVATE LIMITEDU92419MH2021PTC363254Maharashtra05-07-2021
ZM CONSULTING (INDIA) PRIVATE LIMITEDU72900PN2021PTC202356Maharashtra05-07-2021
BOX AND BEYOND ENTERTAINMENT PRIVATE LIMITEDU92490MH2021PTC363291Maharashtra05-07-2021
MIRA REALTORS AND INFRA PRIVATE LIMITEDU45309MH2021PTC363319Maharashtra05-07-2021
LIAO CORNICE PRIVATE LIMITEDU45309MH2021PTC363322Maharashtra05-07-2021
SPORTSEQUIP PRIVATE LIMITEDU72900MH2021PTC363316Maharashtra05-07-2021
TRIDGE TALENTREPRENURSHIP SOFTWARE PRIVATE LIMITEDU72900MH2021PTC363321Maharashtra05-07-2021
OPTION BRAINS WEALTH PRIVATE LIMITEDU67110MH2021PTC363234Maharashtra05-07-2021
SUMITRALANDMARK PRIVATE LIMITEDU45309MH2021PTC363303Maharashtra05-07-2021
ANRISA ESTATES PRIVATE LIMITEDU45309MH2021PTC363305Maharashtra05-07-2021
DHRUVA REAL ESTATE PRIVATE LIMITEDU45309MH2021PTC363327Maharashtra05-07-2021
RUKMINICHANDRA AGRO FARMERS PRODUCER COMPANY LIMITEDU01409MH2021PTC363240Maharashtra05-07-2021
SHREEDURGAMATA MAHILA FARMER PRODUCER COMPANY LIMITEDU01409MH2021PTC363279Maharashtra05-07-2021
SANKALP PURTI AGRO FARMER PRODUCER COMPANY LIMITEDU01110PN2021PTC202326Maharashtra05-07-2021
SUPERCROSS INDIA PRIVATE LIMITEDU92490PN2021PTC202357Maharashtra05-07-2021
CR HOMES PRIVATE LIMITEDU45400MH2021PTC363246Maharashtra05-07-2021
FINNOPTIVE OUTSOURCE & MARKETING PRIVATELIMITEDU93090MH2021PTC363331Maharashtra05-07-2021
13 SHARKS FILMS (OPC) PRIVATE LIMITEDU92490MH2021OPC363326Maharashtra05-07-2021
KESHAR AADIWASI MAHILA SHETKARI PRODUCERCOMPANY LIMITEDU01400MH2021PTC363260Maharashtra05-07-2021
LONARWADI FARMERS PRODUCER COMPANY LIMITEDU01110MH2021PTC363308Maharashtra05-07-2021
BIOSPARK HEALTHCARE PRIVATE LIMITEDU24290MH2021PTC363325Maharashtra05-07-2021
SPEEDZIO PRIVATE LIMITEDU60220MH2021PTC363270Maharashtra05-07-2021
YS FINANCIAL INTELLIGENCE PRIVATE LIMITEDU74999MH2021PTC363276Maharashtra05-07-2021
SPINNING SPATULA PRIVATE LIMITEDU15400PN2021PTC202328Maharashtra05-07-2021
AKHAL TEKE PRIVATE LIMITEDU37100PN2021PTC202343Maharashtra05-07-2021
SOCREATURES TECH PRIVATE LIMITEDU74999MH2021PTC363309Maharashtra05-07-2021
MOLTO BUSINESS CONSULTANCY PRIVATE LIMITEDU74999MH2021PTC363299Maharashtra05-07-2021
SANJIVANI PETROCHEM PRIVATE LIMITEDU74999MH2021PTC363302Maharashtra05-07-2021
AS ECO ENERGY SOLUTIONS PRIVATE LIMITEDU37100PN2021PTC202329Maharashtra05-07-2021
SHOPPERSMUSE INTEGRATED SOLUTIONS PRIVATE LIMITEDU72200MH2021PTC363332Maharashtra05-07-2021
SMARTBOXX CONTAINER TRADING PRIVATE LIMITEDU63010MH2021PTC363333Maharashtra05-07-2021
SUKANU PRIVATE LIMITEDU72200PN2021PTC202352Maharashtra05-07-2021
ADVED SUNRAYS POWER PRIVATE LIMITEDU40106MH2021PTC363329Maharashtra05-07-2021
PRAMISON SERVICES (OPC) PRIVATE LIMITEDU74999PN2021OPC202355Maharashtra05-07-2021
PRIME LOGISTICS SERVICES PRIVATE LIMITEDU63030MH2021PTC363257Maharashtra05-07-2021
K K ENERGY PRODUCTS PRIVATE LIMITEDU40107MH2021PTC363239Maharashtra05-07-2021
JYOTIRGAMAY SOLUTIONS PRIVATE LIMITEDU74999PN2021PTC202337Maharashtra05-07-2021
HYAGEL PRIVATE LIMITEDU24299MH2021PTC363233Maharashtra05-07-2021
INGENIOUS SOLAR PRIVATE LIMITEDU40106PN2021PTC202323Maharashtra05-07-2021
INDIA LAND INFRA LOGISTICS PRIVATE LIMITEDU63030MH2021PTC363244Maharashtra05-07-2021
CRAAZEA VENTURES PRIVATE LIMITEDU74999PN2021PTC202334Maharashtra05-07-2021
ST BOTANICA BEAUTY PRIVATE LIMITEDU24299PN2021PTC202340Maharashtra05-07-2021
KART2DOOR PRIVATE LIMITEDU63030PN2021FTC202362Maharashtra05-07-2021
SONNY FOODS AND BEVERAGES PRIVATE LIMITEDU15490MH2021PTC363248Maharashtra05-07-2021
WAY2SHOP PRIVATE LIMITEDU15490MH2021PTC363285Maharashtra05-07-2021
STRANGER & SONS GIN PRIVATE LIMITEDU15490MH2021PTC363245Maharashtra05-07-2021
MANJUL BIOFUEL PRIVATE LIMITEDU40200MH2021PTC363261Maharashtra05-07-2021
PIROUZI PRIVATE LIMITEDU24304MH2021PTC363311Maharashtra05-07-2021
LOG-HUB INDIA PRIVATE LIMITEDU63031PN2021FTC202354Maharashtra05-07-2021
TRIO MOBILITY PRIVATE LIMITEDU15490MH2021PTC363320Maharashtra05-07-2021
VIGHNAHARTHA SOYBEAN PROCESSING PRIVATE LIMITEDU15490MH2021PTC363323Maharashtra05-07-2021
SUNIL N GOYAL ENTERPRISES (OPC) PRIVATE LIMITEDU51909MH2021OPC363306Maharashtra05-07-2021
LAXMIDEV FARMER PRODUCER COMPANY LIMITEDU01110MH2021PTC363250Maharashtra05-07-2021
PAYGOODAY AGRO PRODUCTS PRIVATE LIMITEDU01110PN2021PTC202338Maharashtra05-07-2021
AKOLAUNIQUE AGRO FARMER PRODUCER COMPANYLIMITEDU01409PN2021PTC202346Maharashtra05-07-2021
CSC KANHAIYA AGRO FARMER PRODUCER COMPANY LIMITEDU01114MH2021PTC363337Maharashtra06-07-2021
REALITY FARMS PRIVATE LIMITEDU01110MH2021PTC363371Maharashtra06-07-2021
AMBAJOGAI YASHWANT FARMER PRODUCER COMPANY LIMITEDU01110MH2021PTC363352Maharashtra06-07-2021
KARAN SUNIL GOYAL (OPC) PRIVATE LIMITEDU51909MH2021OPC363347Maharashtra06-07-2021
RENOM VENTURES PRIVATE LIMITEDU40108PN2021PTC202402Maharashtra06-07-2021
ANDIZISTIC KITCHEN (OPC) PRIVATE LIMITEDU15490MH2021OPC363399Maharashtra06-07-2021
JSW NEO ENERGY LIMITEDU40108MH2021PLC363393Maharashtra06-07-2021
MEHERAM EMPRESAS PRIVATE LIMITEDU74999PN2021PTC202391Maharashtra06-07-2021
RELENE SATIEVA HEALTHCARE PRIVATE LIMITEDU24299MH2021PTC363367Maharashtra06-07-2021
A AND R TURNKEY PROJECTS PRIVATE LIMITEDU74999PN2021PTC202393Maharashtra06-07-2021
K V TRANSPORT INDIA PRIVATE LIMITEDU63030MH2021PTC363405Maharashtra06-07-2021
V R COMMUNICATIONS INDIA PRIVATE LIMITEDU74999PN2021PTC202406Maharashtra06-07-2021
ZEELAND LOGISTICS PRIVATE LIMITEDU63030MH2021PTC363406Maharashtra06-07-2021
NEXTWORLD TRAVEL SOLUTIONS PRIVATE LIMITEDU63030MH2021PTC363350Maharashtra06-07-2021
LOYALATY DEFENCE SECURITY SERVICES (OPC)PRIVATE LIMITEDU74999PN2021OPC202381Maharashtra06-07-2021
JARATA SOLUTIONS (OPC) PRIVATE LIMITEDU74999PN2021OPC202366Maharashtra06-07-2021
RADIANCE KA SUNRISE FIVE PRIVATE LIMITEDU40106MH2021PTC363356Maharashtra06-07-2021
RADIANCE KA SUNRISE FOUR PRIVATE LIMITEDU40106MH2021PTC363355Maharashtra06-07-2021
GROYYO PRIVATE LIMITEDU74999MH2021PTC363392Maharashtra06-07-2021
GOODGOVERN ADVISORY SERVICES PRIVATE LIMITEDU74999MH2021PTC363384Maharashtra06-07-2021
HIRU ADVISORY SERVICES PRIVATE LIMITEDU74999MH2021PTC363370Maharashtra06-07-2021
SHIVADNYA ENVIRONMENTAL SOLUTIONS (OPC) PRIVATE LIMITEDU37200PN2021OPC202379Maharashtra06-07-2021
PRIMEPLUS PAYMENT SOLUTION PRIVATE LIMITEDU74999MH2021PTC363365Maharashtra06-07-2021
0101 TODAY PRIVATE LIMITEDU74999MH2021PTC363351Maharashtra06-07-2021
YASH INTEGRATED LOGISTICS SOLUTIONS PRIVATE LIMITEDU60231PN2021PTC202412Maharashtra06-07-2021
SWADESHI SPIRITS PRIVATE LIMITEDU15400MH2021PTC363404Maharashtra06-07-2021
RAYGREEN OIL AND FOOD PRODUCTS PRIVATE LIMITEDU15400PN2021PTC202403Maharashtra06-07-2021
DAILYWISH AGRO DAIRY PRODUCTS PRIVATE LIMITEDU15400PN2021PTC202400Maharashtra06-07-2021
SUN GRIFFINS INDIA PRIVATE LIMITEDU60300MH2021PTC363349Maharashtra06-07-2021
TRILOGY DEVELOPERS PRIVATE LIMITEDU70200MH2021PTC363382Maharashtra06-07-2021
CHISHTI UNITED FARMING PRIVATE LIMITEDU15134MH2021PTC363366Maharashtra06-07-2021
AMAZE EARTH PRIVATE LIMITEDU24241MH2021PTC363389Maharashtra06-07-2021
CIRCAZENITH SOLUTIONS PRIVATE LIMITEDU72900PN2021PTC202396Maharashtra06-07-2021
VULCAN DESIGN PRIVATE LIMITEDU36101PN2021PTC202390Maharashtra06-07-2021
BYNRY SERVICES PRIVATE LIMITEDU72900PN2021PTC202385Maharashtra06-07-2021
TRISTAR REALBUILD PRIVATE LIMITEDU45400MH2021PTC363409Maharashtra06-07-2021
BHANSALI WAREHOUSES PRIVATE LIMITEDU70109PN2021PTC202397Maharashtra06-07-2021
ONE SYSTEM SOLUTIONS TECHNOLOGIES PRIVATE LIMITEDU72900PN2021PTC202382Maharashtra06-07-2021
ACCUVANTECH PRIVATE LIMITEDU72900PN2021PTC202371Maharashtra06-07-2021
4A FINANCIAL TECHNOLOGIES PRIVATE LIMITEDU72900PN2021PTC202363Maharashtra06-07-2021
FINAL RENDER PRIVATE LIMITEDU92419MH2021PTC363388Maharashtra06-07-2021
PURNAVIDA PRIVATE LIMITEDU01130MH2021PTC363403Maharashtra06-07-2021
SURMAI FISHERIES PRIVATE LIMITEDU01229PN2021PTC202413Maharashtra06-07-2021
SALGAR FOODS PRIVATE LIMITEDU15127PN2021PTC202375Maharashtra06-07-2021
DHYANAI AGRO PRODUCER COMPANY LIMITEDU01409MH2021PTC363391Maharashtra06-07-2021
SYSTEMPRO IT SERVICES PRIVATE LIMITEDU72900MH2021PTC363374Maharashtra06-07-2021
4TECH SOFTLINK PRIVATE LIMITEDU72900MH2021PTC363345Maharashtra06-07-2021
CRAZE TECHNOLOGIES PRIVATE LIMITEDU72900MH2021PTC363359Maharashtra06-07-2021
BHARATMATA MART MARKETING PRIVATE LIMITEDU52339MH2021PTC363348Maharashtra06-07-2021
MELIORIST DEVELOPERS PRIVATE LIMITEDU72900MH2021PTC363353Maharashtra06-07-2021
SIMPATICO ELECTRONICS PRIVATE LIMITEDU31904PN2021PTC202367Maharashtra06-07-2021
QUALITYKAAM PRIVATE LIMITEDU72900MH2021PTC363339Maharashtra06-07-2021
BO6 VENTURES PRIVATE LIMITEDU52335MH2021PTC363396Maharashtra06-07-2021
ASPIRE WEBS AND INFORMATICS PRIVATE LIMITEDU72900MH2021PTC363340Maharashtra06-07-2021
CTRLALTINFINITE SOLUTIONS (OPC) PRIVATE LIMITEDU31900MH2021OPC363407Maharashtra06-07-2021
NORTHONE TECH PRIVATE LIMITEDU21000PN2021PTC202405Maharashtra06-07-2021
SUSTAINZA GREEN PRIVATE LIMITEDU20299PN2021PTC202383Maharashtra06-07-2021
NRMAGIC POWER SERVICES (OPC) PRIVATE LIMITEDU80902MH2021OPC363378Maharashtra06-07-2021
SEQUOIA AUTOMATION AND CONTROLS PRIVATE LIMITEDU31900PN2021PTC202388Maharashtra06-07-2021
STRATZY FINTECH PRIVATE LIMITEDU72900MH2021PTC363390Maharashtra06-07-2021
JABS GLOBAL SOLUTION PRIVATE LIMITEDU45309MH2021PTC363398Maharashtra06-07-2021
H-EDUCARE LEARNING PRIVATE LIMITEDU80903MH2021PTC363338Maharashtra06-07-2021
PGW TECHEX PRIVATE LIMITEDU52399PN2021PTC202376Maharashtra06-07-2021
MERE FASHION TRENDZ PRIVATE LIMITEDU52390PN2021PTC202380Maharashtra06-07-2021
INTELLANCE IT SOLUTIONS PRIVATE LIMITEDU72900MH2021PTC363375Maharashtra06-07-2021
KARTIKEY VATSALYA FOUNDATIONU80903MH2021NPL363336Maharashtra06-07-2021
JAYA INFRACON BUILDINGS PRIVATE LIMITEDU45400MH2021PTC363400Maharashtra06-07-2021
INCEPTION MEDICARE PRIVATE LIMITEDU85100PN2021PTC202394Maharashtra06-07-2021
SHANESHWAR HEALTHCARE PRIVATE LIMITEDU85100MH2021PTC363383Maharashtra06-07-2021
ORAVR PRIVATE LIMITEDU72900PN2021PTC202372Maharashtra06-07-2021
GLAM ANGEL MEDIA ENTERTAINMENT PRIVATE LIMITEDU92419MH2021PTC363380Maharashtra06-07-2021
NSM HOTELS PRIVATE LIMITEDU55101MH2021PTC363408Maharashtra06-07-2021
PKASTI TECHNOLOGIES (OPC) PRIVATE LIMITEDU72900PN2021OPC202374Maharashtra06-07-2021
MOVIEDOM WORLD (OPC) PRIVATE LIMITEDU92190MH2021OPC363343Maharashtra06-07-2021
DHWAJ ESTATE PRIVATE LIMITEDU70109MH2021PTC363364Maharashtra06-07-2021
SIMPLIFAI IT SOLUTIONS PRIVATE LIMITEDU72900PN2021FTC202399Maharashtra06-07-2021
GOLEE DAWAAI PHARMA PRIVATE LIMITEDU24100MH2021PTC363357Maharashtra06-07-2021
NIKKU KIDS INTERACTIVE LEARNING GAMES PRIVATE LIMITEDU80904PN2021PTC202398Maharashtra06-07-2021
EDYNAMIC SERVICE PROVIDERS PRIVATE LIMITEDU72900PN2021FTC202387Maharashtra06-07-2021
RAJASHREE INTERNATIONAL MANUFACTURING PRIVATE LIMITEDU31909PN2021PTC202410Maharashtra06-07-2021
CHHATRAPATI INFRASTRUCTURE AND DEVELOPMENT PRIVATE LIMITEDU45309PN2021PTC202368Maharashtra06-07-2021
SOLAR EMPIRE HUB PRIVATE LIMITEDU45309PN2021PTC202364Maharashtra06-07-2021
RAVISH BIOTECH AND ENGINEERING PRIVATE LIMITEDU31909PN2021PTC202409Maharashtra06-07-2021
PSS TURNKEY SOLUTIONS PRIVATE LIMITEDU45309PN2021PTC202377Maharashtra06-07-2021
ELECTROFINE RECYCLING (OPC) PRIVATE LIMITEDU37100MH2021OPC363402Maharashtra06-07-2021
LUCAINVENT TECHNOLOGIES PRIVATE LIMITEDU72900PN2021PTC202401Maharashtra06-07-2021
TRUSHNAS OUTSOURCING SOLUTIONS PRIVATE LIMITEDU74999MH2021FTC363387Maharashtra06-07-2021
THOSAR INDUSTRIES PRIVATE LIMITEDU31909PN2021PTC202395Maharashtra06-07-2021
RADJYA (OPC) PRIVATE LIMITEDU85300MH2021OPC363341Maharashtra06-07-2021
LATE DR. BABURAO MENDHE FOUNDATIONU80222MH2021NPL363379Maharashtra06-07-2021
GANESH RAMCHANDRA APTE PRIVATE LIMITEDU15490PN2021PTC202392Maharashtra06-07-2021
BOWS ARE WOWS (OPC) PRIVATE LIMITEDU51909MH2021OPC363386Maharashtra06-07-2021
SHARESADDA INVESTMENT PRIVATE LIMITEDU67100MH2021PTC363360Maharashtra06-07-2021
AAKKA BIOTECH FARMER PRODUCER COMPANY LIMITEDU01100PN2021PTC202407Maharashtra06-07-2021
DARSHANA SOLVENT EXTRACTION PRIVATE LIMITEDU01100PN2021PTC202411Maharashtra06-07-2021
WPU INNOVATION INCUBATION COUNCILU80902PN2021NPL202404Maharashtra06-07-2021
RATLAM FINANCIAL CONSULTING AND SECURITIES PRIVATE LIMITEDU67100PN2021PTC202389Maharashtra06-07-2021
ANUPRIT CAPITAL LIMITEDU67100PN2021PLC202365Maharashtra06-07-2021
DIVINE MUSICLAB PRIVATE LIMITEDU52100PN2021PTC202370Maharashtra06-07-2021
KKC AGRO PRIVATE LIMITEDU01100PN2021PTC202378Maharashtra06-07-2021
AMIGOZ FACTORY FRESH PRIVATE LIMITEDU52100MH2021PTC363361Maharashtra06-07-2021
SAMRUDDHA SAKHI SOCIAL FOUNDATIONU85300PN2021NPL202373Maharashtra06-07-2021
MADISON BPO SERVICES (OPC) PRIVATE LIMITEDU72900MH2021OPC363373Maharashtra06-07-2021
C-DOC MED ED TECH PRIVATE LIMITEDU80300MH2021PTC363394Maharashtra06-07-2021
JAY VAMANBHAU URBAN MULTIPLE NIDHI LIMITEDU65991MH2021PLN363368Maharashtra06-07-2021
SHREE BALAJI CARE CHARITABLE FOUNDATIONU80301MH2021NPL363381Maharashtra06-07-2021
BIG THREE BUILDCON PRIVATE LIMITEDU45209MH2021PTC363372Maharashtra06-07-2021
SHIO GLOBAL TRENDS PRIVATE LIMITEDU18109MH2021PTC363369Maharashtra06-07-2021
ORIRI CAPITAL PRIVATE LIMITEDU65990PN2021PTC202369Maharashtra06-07-2021
TAPASYA FACILITIES INDIA PRIVATE LIMITEDU74920PN2021PTC202384Maharashtra06-07-2021
VIDHI LOKSEVA NIDHI LIMITEDU65929MH2021PLN363363Maharashtra06-07-2021
SWAYAMSIDDHA JAIVIK SHETI MISSION FARMERPRODUCER COMPANY LIMITEDU01100MH2021PTC363397Maharashtra06-07-2021
DEKALVALVE CASTING PRIVATE LIMITEDU27100MH2021PTC363334Maharashtra06-07-2021
KRUSHIVIDYA FARMERS PRODUCER COMPANY LIMITEDU01100MH2021PTC363385Maharashtra06-07-2021
PRATAP MASKE ENTERPRISES (OPC) PRIVATE LIMITEDU74140MH2021OPC363354Maharashtra06-07-2021
NAGPUR METAL INDUSTRIES PRIVATE LIMITEDU27109MH2021PTC363362Maharashtra06-07-2021
SHIVSANGMESHWAR FARMER PRODUCER COMPANY LIMITEDU01100MH2021PTC363395Maharashtra06-07-2021
ORGANOLANDS MULTILAYER FARMING PRIVATE LIMITEDU01100MH2021PTC363346Maharashtra06-07-2021
AGROBULLS PRIVATE LIMITEDU01100MH2021PTC363344Maharashtra06-07-2021
VSCON INNOVATIVE CONSTRUCTIONS PRIVATE LIMITEDU45201PN2021PTC202386Maharashtra06-07-2021
PURELEMON SOLUTIONS PRIVATE LIMITEDU51909MH2021PTC363377Maharashtra06-07-2021
BAGLANSHETKARI AGRI FARMER PRODUCER COMPANY LIMITEDU01100MH2021PTC363335Maharashtra06-07-2021
KRR MONDIAL PRIVATE LIMITEDU51909MH2021PTC363342Maharashtra06-07-2021
IMTEX AGROTECH PRIVATE LIMITEDU25209MH2021PTC363401Maharashtra06-07-2021
STATIC ENGINEERING EQUIPMENTS PRIVATE LIMITEDU51909MH2021PTC363376Maharashtra06-07-2021
WILD POWER INDIA PRIVATE LIMITEDU51909MH2021PTC363358Maharashtra06-07-2021
ROYAL COSMOGNATHIC PRIVATE LIMITEDU85190MH2021PTC363434Maharashtra07-07-2021
SAWARKAR AGRO INDUSTRIES PRIVATE LIMITEDU15490MH2021PTC363412Maharashtra07-07-2021
STRATEGIC NUTRITIONALS INDIA PRIVATE LIMITEDU15490MH2021PTC363425Maharashtra07-07-2021
PAWANA DAIRY PRODUCTS PRIVATE LIMITEDU15490PN2021PTC202419Maharashtra07-07-2021
AMAZE ROCK PRIVATE LIMITEDU64200MH2021PTC363503Maharashtra07-07-2021
VOLAR ALTA PRIVATE LIMITEDU74999PN2021PTC202431Maharashtra07-07-2021
SBS GIGAFIBER PRIVATE LIMITEDU64200PN2021PTC202415Maharashtra07-07-2021
FIBREON NETWORK PRIVATE LIMITEDU64204MH2021PTC363468Maharashtra07-07-2021
PROTOSTAFF SOLUTIONS PRIVATE LIMITEDU74999PN2021PTC202434Maharashtra07-07-2021
FIVE ELEMENTS OVERSEAS FINSERV AND TRADEPRIVATE LIMITEDU74999PN2021PTC202422Maharashtra07-07-2021
SWA HEMANTBHAU DIYEWAR URBAN NIDHI LIMITEDU65929MH2021PLN363480Maharashtra07-07-2021
JAIBHADRA PVC PIPE PRIVATE LIMITEDU25209MH2021PTC363452Maharashtra07-07-2021
TRINESH MUTUAL BENIFITS URBAN WORLD RAJUR NIDHI LIMITEDU65990MH2021PLN363498Maharashtra07-07-2021
VEGICLE PRIVATE LIMITEDU15549MH2021PTC363462Maharashtra07-07-2021
LCDF OVERSEAS PRIVATE LIMITEDU01100MH2021PTC363410Maharashtra07-07-2021
NO CAMERA FOUNDATIONU85300MH2021NPL363446Maharashtra07-07-2021
BADGUJAR INDUSTRIES PRIVATE LIMITEDU16000MH2021PTC363495Maharashtra07-07-2021
SANKET INFRATECH SOLUTIONS PRIVATE LIMITEDU45203MH2021PTC363481Maharashtra07-07-2021
PHARMESAL LABS (OPC) PRIVATE LIMITEDU52310MH2021OPC363442Maharashtra07-07-2021
L&T COMMUNITY WELFARE ASSOCIATIONU85300MH2021NPL363438Maharashtra07-07-2021
ROBEL AGRO PRODUCER COMPANY LIMITEDU01100MH2021PTC363421Maharashtra07-07-2021
KUSNALE FOUNDATIONU85300MH2021NPL363509Maharashtra07-07-2021
ASHTAVINAYAK FOUNDATIONU85300MH2021NPL363454Maharashtra07-07-2021
AUM SHRI VIGHNAHARTAA NIDHI LIMITEDU65999MH2021PLN363464Maharashtra07-07-2021
HOSPACCX HEALTHCARE AND EDUCATION FOUNDATIONU85300MH2021NPL363504Maharashtra07-07-2021
SATYARTHI FARMERS PRODUCER COMPANY LIMITEDU01100MH2021PTC363422Maharashtra07-07-2021
APEX BRASS ALLOY PRIVATE LIMITEDU27100MH2021PTC363494Maharashtra07-07-2021
VU NIDHI LIMITEDU65999MH2021PLN363475Maharashtra07-07-2021
SAMPURN SAHAYATA FOUNDATIONU85300MH2021NPL363512Maharashtra07-07-2021
SINDHIKARS AGRO PRODUCER COMPANY LIMITEDU01100MH2021PTC363435Maharashtra07-07-2021
SDG GLOBAL PRIVATE LIMITEDU73100MH2021PTC363433Maharashtra07-07-2021
IG MART (OPC) PRIVATE LIMITEDU52399MH2021OPC363505Maharashtra07-07-2021
KDK DREAM TRADERS PRIVATE LIMITEDU52399MH2021PTC363467Maharashtra07-07-2021
NAX AUTOMATION AND ROBOTICS PRIVATE LIMITEDU45309PN2021PTC202439Maharashtra07-07-2021
CHAITANYA COATING PRIVATE LIMITEDU27209MH2021PTC363418Maharashtra07-07-2021
SANTOSH POWDER COATING PRIVATE LIMITEDU28999MH2021PTC363473Maharashtra07-07-2021
JC VALUERS AND ADVISORS PRIVATE LIMITEDU74140PN2021PTC202429Maharashtra07-07-2021
KOYTUR FARMER PRODUCER COMPANY LIMITEDU01100MH2021PTC363447Maharashtra07-07-2021
NATIONAL ASSET RECONSTRUCTION COMPANY LIMITEDU67100MH2021GOI363511Maharashtra07-07-2021
GATS MARKET RESEARCH INDIA (OPC) PRIVATELIMITEDU74140MH2021OPC363470Maharashtra07-07-2021
TRIGUNESHWAR FARMER PRODUCER COMPANY LIMITEDU01100MH2021PTC363449Maharashtra07-07-2021
UMA CHATURVEDI HOLDINGS PRIVATE LIMITEDU67100MH2021PTC363465Maharashtra07-07-2021
TULJAI PRARTISHTHAN PRODUCER COMPANY LIMITEDU01100MH2021PTC363466Maharashtra07-07-2021
VERASTAR SOLUTIONS PRIVATE LIMITEDU72900MH2021PTC363414Maharashtra07-07-2021
CONATION TECHNOLOGIES PRIVATE LIMITEDU29306PN2021PTC202425Maharashtra07-07-2021
AUSA FARMS PRODUCER COMPANY LIMITEDU01100MH2021PTC363453Maharashtra07-07-2021
MERAKI HOLDINGS PRIVATE LIMITEDU67100MH2021PTC363417Maharashtra07-07-2021
HYPERSPEED LABS PRIVATE LIMITEDU72900MH2021PTC363477Maharashtra07-07-2021
RELIABLE ENTERTAINMENT & MEDIA PRIVATE LIMITEDU92100MH2021PTC363413Maharashtra07-07-2021
GRAND BLOOM CHAMPIONS IT SERVICES PRIVATE LIMITEDU72900MH2021PTC363436Maharashtra07-07-2021
TEERAPORT SOLUTIONS PRIVATE LIMITEDU72900MH2021PTC363420Maharashtra07-07-2021
K A REALTY & DEVELOPERS PRIVATE LIMITEDU45400MH2021PTC363423Maharashtra07-07-2021
NICKEL WEALTH MANAGEMENT PRIVATE LIMITEDU67110MH2021PTC363431Maharashtra07-07-2021
V.I. PLY INDUSTRIES PRIVATE LIMITEDU20295MH2021PTC363460Maharashtra07-07-2021
ONE PLUS SPARK SHINE INDUSTRY PRIVATE LIMITEDU29308MH2021PTC363448Maharashtra07-07-2021
SECONDSOLUTION INNOTECH PRIVATE LIMITEDU72900MH2021PTC363429Maharashtra07-07-2021
SHREE SANT BAIRAGI KISAN PRODUCER COMPANY LIMITEDU01100MH2021PTC363469Maharashtra07-07-2021
NEXARM FARMERS PRODUCER COMPANY LIMITEDU01100MH2021PTC363490Maharashtra07-07-2021
UMANG WEAVERS PRIVATE LIMITEDU01100MH2021PTC363472Maharashtra07-07-2021
MBMA PRIVATE LIMITEDU80902MH2021PTC363440Maharashtra07-07-2021
RAJPUT AGRO FARM PRIVATE LIMITEDU01100MH2021PTC363502Maharashtra07-07-2021
SUNLINK TECHNOLOGY PRIVATE LIMITEDU31900MH2021PTC363439Maharashtra07-07-2021
ECONIX INFOTECH INDIA PRIVATE LIMITEDU93000PN2021FTC202432Maharashtra07-07-2021
SAMAR PRODUCTIONS PRIVATE LIMITEDU92490PN2021PTC202437Maharashtra07-07-2021
ADDIGITALLY DIGITAL MEDIA PRIVATE LIMITEDU22300MH2021PTC363500Maharashtra07-07-2021
HIGH TEK AGRO TRADE PRIVATE LIMITEDU01100MH2021PTC363492Maharashtra07-07-2021
TOSH SIKIL LOTTO GAME PRIVATE LIMITEDU93000MH2021PTC363474Maharashtra07-07-2021
CREATE & COLLAB PRIVATE LIMITEDU92490MH2021PTC363506Maharashtra07-07-2021
UNITY REALITIES AND BUILDERS PRIVATE LIMITEDU70109MH2021PTC363424Maharashtra07-07-2021
S.G.R FOUNDATIONU80903MH2021NPL363419Maharashtra07-07-2021
NITA ENGINEERING SOLUTIONS AND TECHNOLOGY PRIVATE LIMITEDU31900MH2021PTC363455Maharashtra07-07-2021
TERANA-MANJARA AGRO PRODUCER COMPANY LIMITEDU01100MH2021PTC363514Maharashtra07-07-2021
AYOKA PHARMACEUITCALS PRIVATE LIMITEDU24100MH2021PTC363485Maharashtra07-07-2021
LA PACE ESTATES PRIVATE LIMITEDU70109MH2021PTC363445Maharashtra07-07-2021
SATRAP REALTORS PRIVATE LIMITEDU70109PN2021PTC202427Maharashtra07-07-2021
ELITEACRO TECHNOLOGIES PRIVATE LIMITEDU31909MH2021PTC363501Maharashtra07-07-2021
NAYA ENERGY WORKS PRIVATE LIMITEDU31900MH2021PTC363488Maharashtra07-07-2021
GIITAI BUILDCON PRIVATE LIMITEDU70109PN2021PTC202418Maharashtra07-07-2021
SAMRUDDHIGREEN ORGANIC PRIVATE LIMITEDU01100PN2021PTC202424Maharashtra07-07-2021
KARMAVEER AGRO FARMERS PRODUCER COMPANY LIMITEDU01400MH2021PTC363441Maharashtra07-07-2021
ROYAL SHETKARI FOODS PRIVATE LIMITEDU01100PN2021PTC202438Maharashtra07-07-2021
SAI GOVINDGIRI FARMERS PRODUCER COMPANY LIMITEDU01100PN2021PTC202440Maharashtra07-07-2021
MORVANDI FARMERS PRODUCER COMPANY LIMITEDU01400MH2021PTC363471Maharashtra07-07-2021
BHUMIVEER FARMERS PRODUCER COMPANY LIMITEDU01110MH2021PTC363458Maharashtra07-07-2021
ASG INDIA AGRO PRODUCER COMPANY LIMITEDU01400MH2021PTC363476Maharashtra07-07-2021
DROID AGROTECH PRIVATE LIMITEDU01110MH2021PTC363493Maharashtra07-07-2021
NEW INDRAYANI AGRO FARMER PRODUCER COMPANY LIMITEDU01110MH2021PTC363508Maharashtra07-07-2021
MANGAL SEEDS PRIVATE LIMITEDU01409MH2021PTC363415Maharashtra07-07-2021
PANVIKAR FARMERS PRODUCER COMPANY LIMITEDU01409MH2021PTC363426Maharashtra07-07-2021
LUMIRADX HEALTHCARE PRIVATE LIMITEDU33309MH2021FTC363513Maharashtra07-07-2021
SANGEETA PHARMA PRIVATE LIMITEDU24110MH2021PTC363451Maharashtra07-07-2021
SIDDHANTA EDUCATIONAL FOUNDATIONU80904MH2021NPL363416Maharashtra07-07-2021
GRAY STAR PROPERTIES PRIVATE LIMITEDU55209PN2021PTC202417Maharashtra07-07-2021
UPTRADE BUSINESS SOLUTIONS PRIVATE LIMITEDU33309MH2021PTC363491Maharashtra07-07-2021
BELLATOR BEVERAGES PRIVATE LIMITEDU15209MH2021PTC363456Maharashtra07-07-2021
RAVINDRA MOTORS INDUSTRIES PRIVATE LIMITEDU34300MH2021PTC363461Maharashtra07-07-2021
HIGHWAY SUPPLIES AND NETWORK PRIVATE LIMITEDU60300MH2021PTC363432Maharashtra07-07-2021
RENTRONICS PRIVATE LIMITEDU71290MH2021PTC363486Maharashtra07-07-2021
NIKESH LIFESCIENCE PHARMA PRIVATE LIMITEDU24231PN2021PTC202426Maharashtra07-07-2021
LEVELOPS PRIVATE LIMITEDU72900PN2021FTC202430Maharashtra07-07-2021
MELIORATE FOODS PRIVATE LIMITEDU15400MH2021PTC363427Maharashtra07-07-2021
RADKE AGRO INDUSTRIES PRIVATE LIMITEDU15400MH2021PTC363497Maharashtra07-07-2021
EXCELSIOR HUMAN CARE PRIVATE LIMITEDU15400MH2021PTC363507Maharashtra07-07-2021
CIRCULATE CAPITAL SERVICES INDIA PRIVATELIMITEDU74999MH2021FTC363478Maharashtra07-07-2021
VALUEBLISS ECOMMERCE SERVICES PRIVATE LIMITEDU72900PN2021PTC202421Maharashtra07-07-2021
VUPSURGE GLOBAL PRIVATE LIMITEDU15400MH2021PTC363428Maharashtra07-07-2021
SAISOHAM SYNERGIES PRIVATE LIMITEDU61200MH2021PTC363457Maharashtra07-07-2021
IHFC SERVICES PRIVATE LIMITEDU72200MH2021PTC363496Maharashtra07-07-2021
WEBSTER DEVELOPERS PRIVATE LIMITEDU72900PN2021PTC202433Maharashtra07-07-2021
SEEDA AGRI SERVICES PRIVATE LIMITEDU24290MH2021PTC363443Maharashtra07-07-2021
UKAY HI-TECH PRIVATE LIMITEDU36990PN2021PTC202416Maharashtra07-07-2021
OCTAVEGREEN LABORATORIES PRIVATE LIMITEDU24290PN2021FTC202435Maharashtra07-07-2021
STRATEGIC VALUE MANAGEMENT PRIVATE LIMITEDU74999MH2021PTC363430Maharashtra07-07-2021
WISELY COATING (INDIA) PRIVATE LIMITEDU24290MH2021PTC363487Maharashtra07-07-2021
OCC EDUSOFT PRIVATE LIMITEDU51909PN2021PTC202420Maharashtra07-07-2021
NICHE NINETY NINE CAPABILITY AND CERTIFICATIONS (OPC) PRIVATE LIMITEDU74999MH2021OPC363483Maharashtra07-07-2021
ARYA FOODS & PROCESSING PRIVATE LIMITEDU51909PN2021PTC202423Maharashtra07-07-2021
RISEE APEX PRIVATE LIMITEDU74999MH2021PTC363484Maharashtra07-07-2021
ABHINAV HEALTHCARE INDIA PRIVATE LIMITEDU85110PN2021PTC202414Maharashtra07-07-2021
JMSR PHARMACEUTICAL PRIVATE LIMITEDU51909MH2021PTC363444Maharashtra07-07-2021
INDIA LAND INFRA RESOURCES PRIVATE LIMITEDU63030MH2021PTC363482Maharashtra07-07-2021
AJVA SP APPRAISAL SERVICES PRIVATE LIMITEDU74999MH2021PTC363411Maharashtra07-07-2021
ONENESS FINTECH SERVICES PRIVATE LIMITEDU74999MH2021PTC363437Maharashtra07-07-2021
BLUE PENCIL STRATEGIES PRIVATE LIMITEDU74999MH2021PTC363459Maharashtra07-07-2021
EVERGREEN COMMUNITY PRIVATE LIMITEDU74999MH2021PTC363463Maharashtra07-07-2021
FIRST CHOICE HEALTH PRIVATE LIMITEDU85110MH2021PTC363479Maharashtra07-07-2021
THINKERSTATION PRIVATE LIMITEDU74999MH2021PTC363499Maharashtra07-07-2021
JONWAL SOLAR POWER (OPC) PRIVATE LIMITEDU40106PN2021OPC202441Maharashtra07-07-2021
GARUDA CHEMICALS INTERMEDIATES PRIVATE LIMITEDU24299MH2021PTC363450Maharashtra07-07-2021
RG INDUSTRIAL AND LOGISTICS PARK PRIVATELIMITEDU63031PN2021PTC202436Maharashtra07-07-2021
SAIPRO BIOFUELS PRIVATE LIMITEDU40106PN2021PTC202428Maharashtra07-07-2021
SPIDER-BRISCA COMMUNICATION PRIVATE LIMITEDU64200MH2021PTC363489Maharashtra07-07-2021
DROID EMOBILITY PRIVATE LIMITEDU74999MH2021PTC363510Maharashtra07-07-2021
TIRANGA INFRASTRUCTURE PRIVATE LIMITEDU70109PN2021PTC202444Maharashtra08-07-2021
THRIVO LABS AND WELLNESS PRIVATE LIMITEDU52600MH2021FTC363530Maharashtra08-07-2021
DCA FINCHEM PRIVATE LIMITEDU24290PN2021PTC202452Maharashtra08-07-2021
CHANDRASHEKHAR DANGE INFRASTRUCTURE PRIVATE LIMITEDU70109PN2021PTC202445Maharashtra08-07-2021
GWT INTERNATIONAL MARKETING PRIVATE LIMITEDU52520MH2021PTC363564Maharashtra08-07-2021
PARAS PETROLEUM PRIVATE LIMITEDU50401MH2021PTC363622Maharashtra08-07-2021
TULSIBAUGH TRADERS ASSOCIATIONU85300PN2021NPL202456Maharashtra08-07-2021
WRUSHI MEDIHALL 24 PRIVATE LIMITEDU51397PN2021PTC202454Maharashtra08-07-2021
TNV INSTITUTE PRIVATE LIMITEDU80900MH2021PTC363566Maharashtra08-07-2021
DREAMSPURSUIT PRIVATE LIMITEDU72900PN2021PTC202472Maharashtra08-07-2021
INVESTORS PARADISE REALTY PRIVATE LIMITEDU70109MH2021PTC363615Maharashtra08-07-2021
MAVALA KOLHAPUR FOUNDATIONU85300PN2021NPL202473Maharashtra08-07-2021
SKC CHEM TECH PRIVATE LIMITEDU24290MH2021PTC363618Maharashtra08-07-2021
TUDIP FOUNDATIONU85300PN2021NPL202476Maharashtra08-07-2021
FURKHA CABIN INDUSTRIES PRIVATE LIMITEDU36109MH2021PTC363594Maharashtra08-07-2021
NEST ACADEMY OF MODELLING & GROOMING WELFARE FOUNDATIONU80902MH2021NPL363556Maharashtra08-07-2021
NEST ACADEMY OF FASHION DESIGN AND INNOVATION EDUCATION FOUNDATIONU80902MH2021NPL363551Maharashtra08-07-2021
ST. XAVIERS EDUCATION FOUNDATIONU80902MH2021NPL363561Maharashtra08-07-2021
CIRCULLENCE SOLUTIONS PRIVATE LIMITEDU74999MH2021PTC363516Maharashtra08-07-2021
TAXWING MANAGEMENT PRIVATE LIMITEDU74999MH2021PTC363575Maharashtra08-07-2021
ARYAHEE ENGINEERING AND ELECTRICAL PRIVATE LIMITEDU74999MH2021PTC363527Maharashtra08-07-2021
SCARECROW SECURITY SERVICES PRIVATE LIMITEDU74999MH2021PTC363600Maharashtra08-07-2021
VAISHALI INTEGRATED PEOPLE SOLUTION PRIVATE LIMITEDU74999MH2021PTC363547Maharashtra08-07-2021
LEVERAQE MULTIVENTURES PRIVATE LIMITEDU74999MH2021PTC363612Maharashtra08-07-2021
ADORB HEALTH CARE PRIVATE LIMITEDU24297MH2021PTC363607Maharashtra08-07-2021
MALIK OIL AND GAS SUPPORT SERVICES PRIVATE LIMITEDU74999MH2021PTC363616Maharashtra08-07-2021
CASA RURAL PRIVATE LIMITEDU55209MH2021PTC363625Maharashtra08-07-2021
LEARN THROUGH STORIES FOUNDATIONU80903MH2021NPL363539Maharashtra08-07-2021
FUMOSOO RESTAURANTS (OPC) PRIVATE LIMITEDU55209PN2021OPC202464Maharashtra08-07-2021
RICHESMAP (OPC) PRIVATE LIMITEDU93000MH2021OPC363519Maharashtra08-07-2021
IKGA INDIA PRIVATE LIMITEDU92410MH2021PTC363569Maharashtra08-07-2021
DENIZ FACILITY MANAGEMENT PRIVATE LIMITEDU74999MH2021PTC363560Maharashtra08-07-2021
NAT BEAUTY PRIVATE LIMITEDU74999MH2021PTC363562Maharashtra08-07-2021
SHAPE APPLICATIONS INDIA PRIVATE LIMITEDU92490MH2021PTC363532Maharashtra08-07-2021
NAZIRA PRIVATE LIMITEDU74999MH2021PTC363571Maharashtra08-07-2021
KEYSTEPS REALTORS PRIVATE LIMITEDU70200MH2021PTC363568Maharashtra08-07-2021
PULSE ENERGY TECHNOLOGIES PRIVATE LIMITEDU93090MH2021PTC363591Maharashtra08-07-2021
CREAMUP INDIA PRIVATE LIMITEDU15400MH2021PTC363520Maharashtra08-07-2021
GREEN FEEL INFRA PROJECTS PRIVATE LIMITEDU45201MH2021PTC363620Maharashtra08-07-2021
SAMOAN SPRITZERS PRIVATE LIMITEDU15400PN2021PTC202470Maharashtra08-07-2021
LIVSATVIK PRIVATE LIMITEDU15400MH2021PTC363623Maharashtra08-07-2021
INNVOCROP SCIENCE PRIVATE LIMITEDU01111MH2021PTC363517Maharashtra08-07-2021
SALUNANDA FARMERS PRODUCER COMPANY LIMITEDU01110MH2021PTC363521Maharashtra08-07-2021
MAHAVEERANAND INDUSTRIES PRIVATE LIMITEDU15136PN2021PTC202467Maharashtra08-07-2021
EARTHEN BREWS PRIVATE LIMITEDU15209PN2021PTC202450Maharashtra08-07-2021
JAC PROJECTS & CONSULTANTS PRIVATE LIMITEDU45309PN2021PTC202449Maharashtra08-07-2021
WE7 INFOCOM PRIVATE LIMITEDU64200MH2021PTC363552Maharashtra08-07-2021
SAIKRISHNA HYDRAULICS PRIVATE LIMITEDU29100MH2021PTC363525Maharashtra08-07-2021
AMAROK VENTURE PRIVATE LIMITEDU74300PN2021PTC202466Maharashtra08-07-2021
OSJS PRIVATE LIMITEDU17299MH2021PTC363528Maharashtra08-07-2021
SHIVARTH DISTILLERY PRIVATE LIMITEDU15490PN2021PTC202451Maharashtra08-07-2021
DHANWARDHAN URBAN DEVELOPMENT NIDHI LIMITEDU65929PN2021PLN202455Maharashtra08-07-2021
KUNDDAN KALASH PRIVATE LIMITEDU29300MH2021PTC363596Maharashtra08-07-2021
DEVREBUILDERS INFRA PRIVATE LIMITEDU45309MH2021PTC363549Maharashtra08-07-2021
AGRIBLE GLOBAL TRADE PRIVATE LIMITEDU15490PN2021PTC202461Maharashtra08-07-2021
BHOJAN KING PRIVATE LIMITEDU15549MH2021PTC363570Maharashtra08-07-2021
UMANG SIZERS PRIVATE LIMITEDU17299MH2021PTC363559Maharashtra08-07-2021
MANGAL NINAD BUSINESS DEVELOPMENT GURUKUL PRIVATE LIMITEDU52100PN2021PTC202468Maharashtra08-07-2021
SELC URBANITY PRIVATE LIMITEDU45400MH2021PTC363609Maharashtra08-07-2021
KULKARNI URBAN NIDHI LIMITEDU65999MH2021PLN363621Maharashtra08-07-2021
MIDNEED PRIVATE LIMITEDU52322PN2021PTC202446Maharashtra08-07-2021
MADHUKAMAL NIDHI LIMITEDU65999PN2021PLN202457Maharashtra08-07-2021
SHREE PARESHWARAY FARMER PRODUCER COMPANY LIMITEDU01100MH2021PTC363535Maharashtra08-07-2021
MATA BALASUNDRI NIDHI LIMITEDU65990MH2021PLN363515Maharashtra08-07-2021
SHEJUL BROTHERS FARMER PRODUCER COMPANY LIMITEDU01100MH2021PTC363553Maharashtra08-07-2021
SMCA CONSTRUCTIONS PRIVATE LIMITEDU45400MH2021PTC363574Maharashtra08-07-2021
CINENX DIGITAL ENTERTAINMENT PRIVATE LIMITEDU22300MH2021PTC363595Maharashtra08-07-2021
SHRISHIVTEJMALHAR RULER FARMERS PRODUCERCOMPANY LIMITEDU01100MH2021PTC363558Maharashtra08-07-2021
HI TECH TECHNOID PRIVATE LIMITEDU72900MH2021PTC363518Maharashtra08-07-2021
KAMBLESHWAR FARMER PRODUCER COMPANY LIMITEDU01100MH2021PTC363565Maharashtra08-07-2021
NEURONPULSE TECHNOLOGIES PRIVATE LIMITEDU72900MH2021PTC363526Maharashtra08-07-2021
AHAAN SKYLINE PRIVATE LIMITEDU45400PN2021PTC202453Maharashtra08-07-2021
SCLOUDX NETWORKS PRIVATE LIMITEDU72900MH2021PTC363563Maharashtra08-07-2021
WHITEAPPLE CARE FOUNDATIONU85300MH2021NPL363554Maharashtra08-07-2021
NITI AGRO PRODUCER COMPANY LIMITEDU01100MH2021PTC363592Maharashtra08-07-2021
TRUSTED TORQUE MOTORS PRIVATE LIMITEDU50100MH2021PTC363573Maharashtra08-07-2021
RHUNAI FUELS PRIVATE LIMITEDU50400MH2021PTC363548Maharashtra08-07-2021
CANEPOWER AGRO PRIVATE LIMITEDU01100MH2021PTC363601Maharashtra08-07-2021
QUASTECH DEVELOPMENT PRIVATE LIMITEDU72900MH2021PTC363555Maharashtra08-07-2021
KRISHIVATSALYA EXPORT FARMER PRODUCER COMPANY LIMITEDU01100MH2021PTC363602Maharashtra08-07-2021
NEST ACADEMY EDUCATION FOUNDATIONU80301MH2021NPL363545Maharashtra08-07-2021
RK OPTRONIX PRIVATE LIMITEDU31909PN2021PTC202460Maharashtra08-07-2021
SHRIKISAN AND BASANTABAI BANG FOUNDATIONU85300MH2021NPL363523Maharashtra08-07-2021
EKAM HQ INFOTEK PRIVATE LIMITEDU72900MH2021PTC363557Maharashtra08-07-2021
MAXFIN HOLDINGS PRIVATE LIMITEDU67110MH2021PTC363604Maharashtra08-07-2021
LOKMANYA HELPING FOUNDATIONU85300MH2021NPL363597Maharashtra08-07-2021
CAPITA CORPORATE CONSULTANCY PRIVATE LIMITEDU67110MH2021PTC363610Maharashtra08-07-2021
GRAMPUTRA JAIVIK SHETI MISSION FARMER PRODUCER COMPANY LIMITEDU01100MH2021PTC363613Maharashtra08-07-2021
ANKDATA PRIVATE LIMITEDU72900MH2021PTC363593Maharashtra08-07-2021
DATELLERS PRIVATE LIMITEDU72900MH2021PTC363605Maharashtra08-07-2021
GROWGENERIC INDIA PRIVATE LIMITEDU52520PN2021PTC202447Maharashtra08-07-2021
AAHARDAAN FOUNDATIONU85300PN2021NPL202442Maharashtra08-07-2021
SHREESAINATH FARMER PRODUCER COMPANY LIMITEDU01100PN2021PTC202475Maharashtra08-07-2021
MOHIDIGITAL SOLUTIONS PRIVATE LIMITEDU72900PN2021PTC202448Maharashtra08-07-2021
CRIMEFREE WORLD AND PEACE COUNCILU85300PN2021NPL202463Maharashtra08-07-2021
VAANSA TRAINING AND PROJECTS PRIVATE LIMITEDU80900PN2021PTC202462Maharashtra08-07-2021
ONLINE MART PRIVATE LIMITEDU72900MH2021PTC363611Maharashtra08-07-2021
SNEH HOLISTIC & CULTURAL FOUNDATIONU85100MH2021NPL363608Maharashtra08-07-2021
BVMS MARINE SERVICES PRIVATE LIMITEDU61100MH2021PTC363599Maharashtra08-07-2021
SKYUP INDUSTRIES PRIVATE LIMITEDU51909MH2021PTC363603Maharashtra08-07-2021
INTELISYS VENTURES PRIVATE LIMITEDU74999PN2021PTC202443Maharashtra08-07-2021
KHANDELWAL CHEMIE UDYOG PRIVATE LIMITEDU24299MH2021PTC363619Maharashtra08-07-2021
COMPLETE MY DREAM (OPC) PRIVATE LIMITEDU51909MH2021OPC363617Maharashtra08-07-2021
ANIL N GOYAL ENTERPRISES (OPC) PRIVATE LIMITEDU51909MH2021OPC363624Maharashtra08-07-2021
SGD BIOTECH PRIVATE LIMITEDU51909MH2021PTC363567Maharashtra08-07-2021
PREEAGLE TECHNOLOGIES (OPC) PRIVATE LIMITEDU74999PN2021OPC202465Maharashtra08-07-2021
GMENVIRO ENGINEERS PRIVATE LIMITEDU74999PN2021PTC202474Maharashtra08-07-2021
AYESHA EDIFICE (OPC) PRIVATE LIMITEDU45203MH2021OPC363590Maharashtra08-07-2021
IND-OWN DIETARY & HEALTHCARE SOLUTIONS PRIVATE LIMITEDU85100MH2021PTC363524Maharashtra08-07-2021
HUMA HOLIDAYS PRIVATE LIMITEDU63030MH2021PTC363614Maharashtra08-07-2021
URNAVI TECH PRIVATE LIMITEDU51909MH2021PTC363606Maharashtra08-07-2021
AARNA HAPPY EARTH PRIVATE LIMITEDU74999PN2021PTC202469Maharashtra08-07-2021
BRIGHT VISION SECURITY SERVICES PRIVATE LIMITEDU74999PN2021PTC202471Maharashtra08-07-2021
PETRAY PRIVATE LIMITEDU51909PN2021PTC202458Maharashtra08-07-2021
JJBT IMPEX PRIVATE LIMITEDU15490MH2021PTC363522Maharashtra08-07-2021
KNOVONBRICKS AND STONES PRIVATE LIMITEDU26900MH2021PTC363572Maharashtra08-07-2021
ASCENTIAL WORLDWIDE PRIVATE LIMITEDU74999PN2021PTC202459Maharashtra08-07-2021
RAJKAMAL CONSTRUCTION & DEVELOPERS PRIVATE LIMITEDU45309MH2021PTC363598Maharashtra08-07-2021
AMIMA PROJECTS PRIVATE LIMITEDU45309MH2021PTC363550Maharashtra08-07-2021
KSHIRSAGARS AMRUTDHARALAKDIGHANA TEL UDYOG (OPC) PRIVATE LIMITEDU15549PN2021OPC202494Maharashtra09-07-2021
DIGEOMETRY PRIVATE LIMITEDU72900MH2021PTC363663Maharashtra09-07-2021
VRIDDHAMITRA PRIVATE LIMITEDU85300PN2021PTC202478Maharashtra09-07-2021
DIGIBLU TECHNOLOGIES PRIVATE LIMITEDU72900MH2021PTC363702Maharashtra09-07-2021
SUSTAINABLE METAL REFINERY PRIVATE LIMITEDU27320MH2021PTC363628Maharashtra09-07-2021
STOMPBOX PRIVATE LIMITEDU52500PN2021PTC202489Maharashtra09-07-2021
MISSION KRANTI PRIVATE LIMITEDU52520MH2021PTC363647Maharashtra09-07-2021
MELIUS INTEGRATED (OPC) PRIVATE LIMITEDU80900MH2021OPC363696Maharashtra09-07-2021
SOUND SPACE FOUNDATIONU80900MH2021NPL363689Maharashtra09-07-2021
ADIVRUSHA HOLDINGS PRIVATE LIMITEDU67100MH2021PTC363650Maharashtra09-07-2021
VETACA INDIA PRIVATE LIMITEDU72900PN2021FTC202504Maharashtra09-07-2021
KDCD INFRASTRUCTURES PRIVATE LIMITEDU45400MH2021PTC363631Maharashtra09-07-2021
ARIHANT TECHNOSPINS PRIVATE LIMITEDU17299PN2021PTC202477Maharashtra09-07-2021
NIYA TEXTILES PRIVATE LIMITEDU17299MH2021PTC363630Maharashtra09-07-2021
SMBTECH ENGINEERS PRIVATE LIMITEDU29306MH2021PTC363638Maharashtra09-07-2021
LEDGER LABS PRIVATE LIMITEDU72900PN2021PTC202505Maharashtra09-07-2021
MIZIZI LIFESTYLE PRIVATE LIMITEDU52599MH2021PTC363685Maharashtra09-07-2021
DAXTON IT SERVICES & SOLUTIONS PRIVATE LIMITEDU72900PN2021PTC202497Maharashtra09-07-2021
LOKVIKAS HITECH AGRO FARMER PRODUCER COMPANY LIMITEDU01100MH2021PTC363664Maharashtra09-07-2021
ECGIT ZSKILLS INDIA PRIVATE LIMITEDU72900PN2021PTC202499Maharashtra09-07-2021
JEETRAJ CONSTRUCTION & SERVICES PRIVATE LIMITEDU45400PN2021PTC202512Maharashtra09-07-2021
ESTELLE MODA WORLDWIDE PRIVATE LIMITEDU17299MH2021PTC363654Maharashtra09-07-2021
TEKCREDIBLE PRIVATE LIMITEDU72900PN2021PTC202496Maharashtra09-07-2021
CHISHTI INFRASTRUCTURE AND REAL ESTATE PRIVATE LIMITEDU70100MH2021PTC363636Maharashtra09-07-2021
SGR EDUCATION FOUNDATIONU80902MH2021NPL363655Maharashtra09-07-2021
P SIRASGAON FARMER PRODUCER COMPANY LIMITEDU01100MH2021PTC363668Maharashtra09-07-2021
PANCHVKTRA FOUNDATIONU80902PN2021NPL202511Maharashtra09-07-2021
WHATSLIVE TECH PRIVATE LIMITEDU18109MH2021PTC363632Maharashtra09-07-2021
JANAI COACHING ACADEMY PRIVATE LIMITEDU80902PN2021PTC202495Maharashtra09-07-2021
ARAI PUMP INDIA PRIVATE LIMITEDU29309MH2021PTC363665Maharashtra09-07-2021
MAHABHUMI AGRO PRODUCER COMPANY LIMITEDU01100MH2021PTC363674Maharashtra09-07-2021
FILL POINT PETROLEUM PRIVATE LIMITEDU50500PN2021PTC202503Maharashtra09-07-2021
INDUSTREAM EXPORT PRIVATE LIMITEDU51392MH2021PTC363666Maharashtra09-07-2021
PETH AADIWASI AGRO FARMERS PRODUCER COMPANY LIMITEDU01100MH2021PTC363699Maharashtra09-07-2021
ALI SONS RESTAURANTS AND HOSPITALITY PRIVATE LIMITEDU55100MH2021PTC363653Maharashtra09-07-2021
PHARAOH ROBOTICS MACHINE AND AUTOMATION PRIVATE LIMITEDU29309PN2021PTC202515Maharashtra09-07-2021
CHISHTI PHARMACEUTICALS PRIVATE LIMITEDU51397MH2021PTC363658Maharashtra09-07-2021
SPURTI KAUSHAL VIKASH INNOVATION PRIVATELIMITEDU80903MH2021PTC363672Maharashtra09-07-2021
SMP TEAM PRIVATE LIMITEDU22120MH2021PTC363648Maharashtra09-07-2021
DNYANUMANG FARMERS PRODUCER COMPANY LIMITEDU01100MH2021PTC363701Maharashtra09-07-2021
MALPANI PARKS AHMEDABAD PRIVATE LIMITEDU92490PN2021PTC202510Maharashtra09-07-2021
SPIRITUAL PHARMA AND SUPPLY PRIVATE LIMITEDU24100MH2021PTC363656Maharashtra09-07-2021
SPPIN INDIA PRIVATE LIMITEDU74999MH2021FTC363681Maharashtra09-07-2021
INSITU DESIGN STUDIO (OPC) PRIVATE LIMITEDU74999MH2021OPC363652Maharashtra09-07-2021
OPTIMA COATINGS & CHEMICALS PRIVATE LIMITEDU24100PN2021PTC202514Maharashtra09-07-2021
INDOFUSION HOSPITALITY PRIVATE LIMITEDU55209MH2021PTC363683Maharashtra09-07-2021
MEDIVYA LABS PRIVATE LIMITEDU85100PN2021PTC202488Maharashtra09-07-2021
IDYLLICMOJO TECHNOLOGIES (OPC) PRIVATE LIMITEDU74999MH2021OPC363657Maharashtra09-07-2021
ARYAN NOVEL AUTOMATION INDIA PRIVATE LIMITEDU31909MH2021PTC363675Maharashtra09-07-2021
TARGETRIGHTWAY SALES PRIVATE LIMITEDU31909MH2021PTC363661Maharashtra09-07-2021
SNEH SAVALI FOUNDATIONU85100MH2021NPL363709Maharashtra09-07-2021
MAGRITS (OPC) PRIVATE LIMITEDU74999MH2021OPC363688Maharashtra09-07-2021
SALES ALLY REALTY PRIVATE LIMITEDU70109MH2021PTC363633Maharashtra09-07-2021
AJAY DAYAL BADMINTON SPORTS ACADEMY PRIVATE LIMITEDU92490MH2021PTC363712Maharashtra09-07-2021
HB PLUS PRIVATE LIMITEDU32209MH2021PTC363695Maharashtra09-07-2021
MARQUIS FINSERV INDIA PRIVATE LIMITEDU74999MH2021PTC363641Maharashtra09-07-2021
MUDRA CAB SERVICES PRIVATE LIMITEDU60200PN2021PTC202500Maharashtra09-07-2021
RAJE SAMBHAJI FARMER PRODUCER COMPANY LIMITEDU01100MH2021PTC363704Maharashtra09-07-2021
AVER DIGITECH PRIVATE LIMITEDU74999MH2021PTC363642Maharashtra09-07-2021
SANRUP E-MOBILITY PRIVATE LIMITEDU34300MH2021PTC363707Maharashtra09-07-2021
ART OF WORKING OUTSOURCING PRIVATE LIMITEDU74999MH2021PTC363670Maharashtra09-07-2021
RIVALIFE CARE PRIVATE LIMITEDU24110MH2021PTC363678Maharashtra09-07-2021
SAN JUNIPER PRIVATE LIMITEDU74999MH2021PTC363684Maharashtra09-07-2021
MEYRAHKEE FACILITIES PRIVATE LIMITEDU93090PN2021PTC202485Maharashtra09-07-2021
BIVESTORS PRIVATE LIMITEDU74999MH2021PTC363626Maharashtra09-07-2021
HAMDULE MARKETING CARE PRIVATE LIMITEDU24110MH2021PTC363694Maharashtra09-07-2021
SAKASHM FARMER PRODUCER COMPANY LIMITEDU01100MH2021PTC363711Maharashtra09-07-2021
LUXETERIOR INDIA PRIVATE LIMITEDU74999MH2021PTC363687Maharashtra09-07-2021
ZODUS CERTIFICATION PRIVATE LIMITEDU74999MH2021PTC363690Maharashtra09-07-2021
NEO LITE EARTH SOLID WASTE MANAGEMENT PRIVATE LIMITEDU37100MH2021PTC363662Maharashtra09-07-2021
BEYOND MANGO PRIVATE LIMITEDU37100MH2021PTC363706Maharashtra09-07-2021
TOPCOP SECURITY AND FACILITY MANAGEMENT PRIVATE LIMITEDU74999PN2021PTC202518Maharashtra09-07-2021
KAIRANA MART MARKETING PRIVATE LIMITEDU15400MH2021PTC363634Maharashtra09-07-2021
BEFAST LOGISTIC PRIVATE LIMITEDU63030MH2021PTC363710Maharashtra09-07-2021
DEEPALI INFRACONSTRUCT (OPC) PRIVATE LIMITEDU45200MH2021OPC363673Maharashtra09-07-2021
OLFYRE DESIGN PRIVATE LIMITEDU24299MH2021PTC363660Maharashtra09-07-2021
WESTERN FARMS AGRO FROZEN FOODS INDIA PRIVATE LIMITEDU15400PN2021PTC202513Maharashtra09-07-2021
BLUE RAIN FILMS PRIVATE LIMITEDU74300MH2021PTC363703Maharashtra09-07-2021
JAYKA INFRASTRUCTURE WEVOLVE PROJECTS PRIVATE LIMITEDU45201PN2021PTC202481Maharashtra09-07-2021
VPROTECTALL SERVICES PRIVATE LIMITEDU74140MH2021PTC363671Maharashtra09-07-2021
BEGHAR SHEHARI INDIA NIDHI LIMITEDU65990MH2021PLN363682Maharashtra09-07-2021
M.K. MARKETING ELASTOMERS PRIVATE LIMITEDU24299MH2021PTC363705Maharashtra09-07-2021
CAPWISE FINANCIAL PRODUCTS DISTRIBUTION PRIVATE LIMITEDU65990MH2021PTC363693Maharashtra09-07-2021
ANASYN LAB PRIVATE LIMITEDU24299PN2021PTC202480Maharashtra09-07-2021
DR. AMAGO PHARMACEUTICALS PRIVATE LIMITEDU24299PN2021PTC202487Maharashtra09-07-2021
YEOTI NIDHI LIMITEDU65990PN2021PLN202483Maharashtra09-07-2021
MATOSHRI GREENGOLD SEEDS PRIVATE LIMITEDU15490MH2021PTC363649Maharashtra09-07-2021
HEALTHY CRUMBS PRIVATE LIMITEDU15490MH2021PTC363700Maharashtra09-07-2021
ANJANAI URBAN MULTIPLE NIDHI LIMITEDU65991MH2021PLN363686Maharashtra09-07-2021
DOOT GLOBAL EXPORTS & IMPORTS (OPC) PRIVATE LIMITEDU15490PN2021OPC202484Maharashtra09-07-2021
VENNSKAP PRIVATE LIMITEDU15490PN2021PTC202516Maharashtra09-07-2021
SONU FLEXI PACK PRIVATE LIMITEDU25199MH2021PTC363659Maharashtra09-07-2021
BHARATMATA ARTHSEVA NIDHI LIMITEDU65999PN2021PLN202509Maharashtra09-07-2021
SUCCESS INDIA URBAN NIDHI LIMITEDU65999PN2021PLN202501Maharashtra09-07-2021
ANTICORROSION ENGINEERS PRIVATE LIMITEDU25209MH2021PTC363708Maharashtra09-07-2021
SUCCESS MULTIPURPOSE NIDHI LIMITEDU65999PN2021PLN202520Maharashtra09-07-2021
CHAMP’S ANIMAL FOUNDATIONU85300MH2021NPL363637Maharashtra09-07-2021
VISHWAMANI GRAMIN MULTIPURPOSE NIDHI LIMITEDU65999PN2021PLN202517Maharashtra09-07-2021
ARPANASHRAY INITIATIVE FOUNDATIONU85300MH2021NPL363645Maharashtra09-07-2021
EMPEZAR FOUNDATIONU85300MH2021NPL363697Maharashtra09-07-2021
SVALIFE WELL-BEING PRIVATE LIMITEDU85300MH2021PTC363643Maharashtra09-07-2021
RACHAK TECHNOLOGY PRIVATE LIMITEDU72900MH2021PTC363640Maharashtra09-07-2021
AGILESOFT SOLUTION PRIVATE LIMITEDU72900MH2021PTC363646Maharashtra09-07-2021
RURAL RELATIONS FOUNDATIONU80301PN2021NPL202482Maharashtra09-07-2021
TECHNOKING CONSULTANCIES PRIVATE LIMITEDU72900MH2021PTC363639Maharashtra09-07-2021
CHAKRADATTA VENTURES PRIVATE LIMITEDU45309MH2021PTC363692Maharashtra09-07-2021
RAINBOW REFORM INDIA PRIVATE LIMITEDU72900MH2021PTC363651Maharashtra09-07-2021
GREEN VASUNDHARA FOUNDATIONU85300PN2021NPL202493Maharashtra09-07-2021
PRAAN CLIMATE TECHNOLOGIES PRIVATE LIMITEDU72900MH2021PTC363691Maharashtra09-07-2021
THRIFTY METAL PRIVATE LIMITEDU27300MH2021PTC363669Maharashtra09-07-2021
BHAKTISEVA FOUNDATIONU85300PN2021NPL202490Maharashtra09-07-2021
SAVLI SEVA FOUNDATIONU85300PN2021NPL202492Maharashtra09-07-2021
ONEFPI CONSULTANCY PRIVATE LIMITEDU72900MH2021PTC363667Maharashtra09-07-2021
NAUTICFLEET PRIVATE LIMITEDU61200MH2021PTC363627Maharashtra09-07-2021
LEOSUN ORGANIC PRIVATE LIMITEDU24230MH2021PTC363629Maharashtra09-07-2021
WHITE EAGLE COPYRIGHTS PRIVATE LIMITEDU74999MH2021PTC363698Maharashtra09-07-2021
DUDHNA AGRO PRODUCER COMPANY LIMITEDU01400MH2021PTC363676Maharashtra09-07-2021
ARAMITA ENTERPRISES PRIVATE LIMITEDU72200MH2021PTC363644Maharashtra09-07-2021
CHIRNIRANTAR FARMERS PRODUCER COMPANY LIMITEDU01100PN2021PTC202519Maharashtra09-07-2021
RAJBIROBA FARMER PRODUCER COMPANY LIMITEDU01100PN2021PTC202506Maharashtra09-07-2021
MODERN HINDUSTAN AGRICULTURE FARMERS PRODUCER COMPANY LIMITEDU01100PN2021PTC202507Maharashtra09-07-2021
ROYAL CHICKEN PRIVATE LIMITEDU15339MH2021PTC363679Maharashtra09-07-2021
PROTEANTECS INDIA PRIVATE LIMITEDU74999PN2021FTC202479Maharashtra09-07-2021
SUCHINT TECH VENTURES PRIVATE LIMITEDU74999MH2021PTC363713Maharashtra09-07-2021
INS LUBRICANTS PRIVATE LIMITEDU51909MH2021PTC363635Maharashtra09-07-2021
INCEPTION STRATEGY CONSULTING PRIVATE LIMITEDU74999PN2021PTC202502Maharashtra09-07-2021
DB BRANDS PRIVATE LIMITEDU51909PN2021PTC202491Maharashtra09-07-2021
VARICK CONSULTING (OPC) PRIVATE LIMITEDU74999PN2021OPC202508Maharashtra09-07-2021
EDINFRA INTERNATIONAL PRIVATE LIMITEDU51909MH2021PTC363677Maharashtra09-07-2021
TROIDSTOCKS PRIVATE LIMITEDU74999PN2021PTC202486Maharashtra09-07-2021
ERETAILTEAFAY GLOBAL PRIVATE LIMITEDU51909MH2021PTC363680Maharashtra09-07-2021
ELITE RECOVERY AGENCY PRIVATE LIMITEDU74999PN2021PTC202498Maharashtra09-07-2021
SHRI DATTA SUPER MARKET PRIVATE LIMITEDU51909PN2021PTC202521Maharashtra09-07-2021
JETSKY FIBER INFRASTRUCTURE PRIVATE LIMITEDU64200MH2021PTC363757Maharashtra12-07-2021
GONDIYA VIKAS URBAN NIDHI LIMITEDU65990MH2021PLN363755Maharashtra12-07-2021
SHRIDATTA NAGARI SEVA NIDHI LIMITEDU65929PN2021PLN202551Maharashtra12-07-2021
AJITDADA FARMER PRODUCER COMPANY LIMITEDU01100MH2021PTC363754Maharashtra12-07-2021
SUGARSAM PRIVATE LIMITEDU52100PN2021PTC202547Maharashtra12-07-2021
VIBHAAG FORUMU85300MH2021NPL363738Maharashtra12-07-2021
BOHRA INDUSTRIAL OIL (OPC) PRIVATE LIMITEDU52100MH2021OPC363782Maharashtra12-07-2021
COTTON MANUFACTURERS ASSOCIATION OF INDIAU85300MH2021NPL363747Maharashtra12-07-2021
PCA PROCESSING UNIT INDIA PRIVATE LIMITEDU27209MH2021PTC363763Maharashtra12-07-2021
JIJAAI AGROBIZ PRODUCER COMPANY LIMITEDU01100MH2021PTC363765Maharashtra12-07-2021
FINX INVESTMENTS CONSULTANCY PRIVATE LIMITEDU74140PN2021PTC202558Maharashtra12-07-2021
KALPVRRIKSH STAFFING AND RECRUITMENT SERVICES PRIVATE LIMITEDU74910MH2021PTC363741Maharashtra12-07-2021
PEKEL TECHNOLOGY PRIVATE LIMITEDU72900MH2021PTC363769Maharashtra12-07-2021
CARTRADE FOUNDATIONU85300MH2021NPL363767Maharashtra12-07-2021
WAINGANGA URBAN NIDHI LIMITEDU65999MH2021PLN363760Maharashtra12-07-2021
WAAHFRESH FARM AND FOODS PRIVATE LIMITEDU15490MH2021PTC363775Maharashtra12-07-2021
SADHANA LIFECARE PRIVATE LIMITEDU85300PN2021PTC202534Maharashtra12-07-2021
TUITION TALKIES PRIVATE LIMITEDU72900MH2021PTC363724Maharashtra12-07-2021
PINNPOINTER PRIVATE LIMITEDU74910MH2021PTC363714Maharashtra12-07-2021
PRIYA KUMARS TRAINING SYSTEMS PRIVATE LIMITEDU72900MH2021PTC363734Maharashtra12-07-2021
KUBERA URBAN MULTI-PURPOSE NIDHI LIMITEDU65999PN2021PLN202540Maharashtra12-07-2021
NAVKISAN FARMER PRODUCER COMPANY LIMITEDU01100MH2021PTC363792Maharashtra12-07-2021
SPICEBIRDE EDIBLES PRIVATE LIMITEDU15490PN2021PTC202528Maharashtra12-07-2021
VIERA SEAMLESS PRIVATE LIMITEDU28990MH2021PTC363715Maharashtra12-07-2021
SHUBHRAREKHA FOODS PRIVATE LIMITEDU15490MH2021PTC363746Maharashtra12-07-2021
VARSHAVAN FOUNDATIONU85300PN2021NPL202553Maharashtra12-07-2021
PURATECH CONSULTANCY SOLUTIONS PRIVATE LIMITEDU72900MH2021PTC363770Maharashtra12-07-2021
ONECONFIAR FOUNDATIONU85300PN2021NPL202567Maharashtra12-07-2021
SWAYER INDUSTRIES PRIVATE LIMITEDU52209PN2021PTC202530Maharashtra12-07-2021
NIPANISHWAR FARMER PRODUCER COMPANY LIMITEDU01100MH2021PTC363793Maharashtra12-07-2021
INDRAJEET STAINLESS PRIVATE LIMITEDU27320MH2021PTC363717Maharashtra12-07-2021
TROL CHAT (OPC) PRIVATE LIMITEDU72900PN2021OPC202545Maharashtra12-07-2021
RAPPORT ENTERPRISE PRIVATE LIMITEDU72900PN2021PTC202522Maharashtra12-07-2021
RA1 EDU TECH PRIVATE LIMITEDU80902MH2021PTC363762Maharashtra12-07-2021
SUNLAX SOFTWARE SOLUTIONS PRIVATE LIMITEDU72900PN2021PTC202525Maharashtra12-07-2021
WINDFLUX TECHNOLOGIES PRIVATE LIMITEDU72900PN2021PTC202542Maharashtra12-07-2021
CODENGINE TECHNOLOGIES PRIVATE LIMITEDU72900PN2021PTC202548Maharashtra12-07-2021
PARTY MANEACS PRIVATE LIMITEDU15549MH2021PTC363743Maharashtra12-07-2021
ZIM BLUE PRIVATE LIMITEDU72900PN2021PTC202536Maharashtra12-07-2021
NIMBLITY SOLUTIONS PRIVATE LIMITEDU72900PN2021PTC202539Maharashtra12-07-2021
BACHHAV KNOWLEDGE HUB PRIVATE LIMITEDU80902MH2021PTC363780Maharashtra12-07-2021
NARANDAS ENGINEERS PRIVATE LIMITEDU29100MH2021PTC363783Maharashtra12-07-2021
OCMODELS PRIVATE LIMITEDU72900PN2021PTC202565Maharashtra12-07-2021
MEDIASTROKE WEB SERVICES PRIVATE LIMITEDU72900PN2021PTC202550Maharashtra12-07-2021
DECODEDUPSC (OPC) PRIVATE LIMITEDU80902PN2021OPC202561Maharashtra12-07-2021
CONSILIO INTERACTIVE DEXIGN PRIVATE LIMITEDU80902PN2021PTC202524Maharashtra12-07-2021
NEXEONS TECHNOLOGIES PRIVATE LIMITEDU72900PN2021PTC202560Maharashtra12-07-2021
MHB ASSOCIATES PRIVATE LIMITEDU70109MH2021PTC363756Maharashtra12-07-2021
ASBHANDARE PROPERTIES (OPC) PRIVATE LIMITEDU45400MH2021OPC363766Maharashtra12-07-2021
SHRUTHI LIFESTYLE PRIVATE LIMITEDU18109MH2021PTC363731Maharashtra12-07-2021
NIRNAV TECHNOLOGIES PRIVATE LIMITEDU29308PN2021PTC202564Maharashtra12-07-2021
MATCH BOX TECHNOLOGIES PRIVATE LIMITEDU18209MH2021PTC363773Maharashtra12-07-2021
FORWELL ECO INDIA PRIVATE LIMITEDU90001PN2021PTC202538Maharashtra12-07-2021
NAFT GENERAL TRADING PRIVATE LIMITEDU52590MH2021PTC363750Maharashtra12-07-2021
MICROGREEN PLYWOOD PRIVATE LIMITEDU20299MH2021PTC363719Maharashtra12-07-2021
IGNITY POWER (OPC) PRIVATE LIMITEDU31905PN2021OPC202554Maharashtra12-07-2021
SANSKRUTI PETROLEUM PRIVATE LIMITEDU11102PN2021PTC202549Maharashtra12-07-2021
IXCHEL MEDICARE PRIVATE LIMITEDU51909MH2021PTC363727Maharashtra12-07-2021
SMBIZZ ANALYTICS PRIVATE LIMITEDU72200MH2021PTC363774Maharashtra12-07-2021
RELY PATH LAB PRIVATE LIMITEDU85100MH2021PTC363733Maharashtra12-07-2021
DESMECH PRIVATE LIMITEDU35999PN2021PTC202566Maharashtra12-07-2021
EHELP 24-7 PRIVATE LIMITEDU74999MH2021PTC363735Maharashtra12-07-2021
HMI FURNITURE FACTORY PRIVATE LIMITEDU36101MH2021PTC363739Maharashtra12-07-2021
SUNCARE LIFE SCIENCE PRIVATE LIMITEDU24231PN2021PTC202568Maharashtra12-07-2021
CHEMFLOW PAINTS PRIVATE LIMITEDU24220PN2021PTC202532Maharashtra12-07-2021
JAYYAVI SERVICES PRIVATE LIMITEDU60210PN2021PTC202557Maharashtra12-07-2021
INMAROB LIFESCIENCE PRIVATE LIMITEDU24230MH2021PTC363721Maharashtra12-07-2021
SAHANI LOGISTICS PRIVATE LIMITEDU60221MH2021PTC363751Maharashtra12-07-2021
JAY JEET MANAGEMENT SERVICES (INDIA) PRIVATE LIMITEDU74999MH2021PTC363745Maharashtra12-07-2021
CENTURIZE TRADING PRIVATE LIMITEDU51909MH2021PTC363740Maharashtra12-07-2021
URMILA ELECTRICAL ENGINEERING PRIVATE LIMITEDU74999MH2021PTC363716Maharashtra12-07-2021
SINDH APPARELS PRIVATE LIMITEDU51909MH2021PTC363781Maharashtra12-07-2021
NEOVATION CONSULTANCY SERVICES PRIVATE LIMITEDU74999MH2021PTC363725Maharashtra12-07-2021
MBC CONNECT PRIVATE LIMITEDU74999MH2021PTC363742Maharashtra12-07-2021
SHRIPADRAJ BUSINESS SOLUTIONS PRIVATE LIMITEDU74999MH2021PTC363787Maharashtra12-07-2021
ZIVIA HEALTHCARE PRIVATE LIMITEDU85110MH2021PTC363758Maharashtra12-07-2021
ABHISHANT LOGISTICS PRIVATE LIMITEDU63030MH2021PTC363752Maharashtra12-07-2021
CRESCENTX TRADERS PRIVATE LIMITEDU74999MH2021PTC363788Maharashtra12-07-2021
AATMNIRBHAR INDUSTRIAL AND LOGISTICS PARKS (OPC) PRIVATE LIMITEDU63030PN2021OPC202529Maharashtra12-07-2021
VITOCARE PHARMACEUTICALS PRIVATE LIMITEDU51909MH2021PTC363791Maharashtra12-07-2021
AVNI AYURVEDA PRIVATE LIMITEDU24233MH2021PTC363771Maharashtra12-07-2021
PRITHVI INTERIOR PRIVATE LIMITEDU74999MH2021PTC363778Maharashtra12-07-2021
GG PROTECH PRIVATE LIMITEDU63030MH2021PTC363749Maharashtra12-07-2021
ALTOIS TECHNOLOGIES PRIVATE LIMITEDU74999MH2021PTC363784Maharashtra12-07-2021
URBNSHIRE PRIVATE LIMITEDU74999MH2021PTC363772Maharashtra12-07-2021
SALVATION PHARMA PRIVATE LIMITEDU24297PN2021PTC202546Maharashtra12-07-2021
VRBMS PRIVATE LIMITEDU15124MH2021PTC363722Maharashtra12-07-2021
SHREE BALAJI BIZSOL PRIVATE LIMITEDU74999PN2021PTC202559Maharashtra12-07-2021
ALIBAG LIFECARE SNC HOSPITAL PRIVATE LIMITEDU85200MH2021PTC363761Maharashtra12-07-2021
SUNROYAL GLOBAL EXIM PRIVATE LIMITEDU51909PN2021PTC202533Maharashtra12-07-2021
HERBAN CUISINE FOODS PRIVATE LIMITEDU15134PN2021PTC202563Maharashtra12-07-2021
GEETA BIOFUELS PRIVATE LIMITEDU40200PN2021PTC202541Maharashtra12-07-2021
SOFTCAST CONSULTANT PRIVATE LIMITEDU74999PN2021PTC202537Maharashtra12-07-2021
SYNAPSE SCAN CENTRE PRIVATE LIMITEDU85190MH2021PTC363779Maharashtra12-07-2021
PPC EXIM PRIVATE LIMITEDU51909PN2021PTC202523Maharashtra12-07-2021
MAULIKRISHNARJUN PHARMACY AND HEALTH SERVICES LIMITEDU24299PN2021PLC202562Maharashtra12-07-2021
FLAVOUROPS (OPC) PRIVATE LIMITEDU15134MH2021OPC363744Maharashtra12-07-2021
EXACTITUDE GREEN PRIVATE LIMITEDU40106MH2021PTC363777Maharashtra12-07-2021
BONAVENTURA CRIADO PRIVATE LIMITEDU63040MH2021PTC363776Maharashtra12-07-2021
NATHAI GRAMIN SEVA NIDHI LIMITEDU65929MH2021PLN363753Maharashtra12-07-2021
CARRY FASTGLOBAL SERVICES PRIVATE LIMITEDU63090MH2021PTC363759Maharashtra12-07-2021
OPTICSPECTRA COMMUNICATIONS PRIVATE LIMITEDU31909MH2021PTC363723Maharashtra12-07-2021
LONAND AGRO FARMER PRODUCER COMPANY LIMITEDU01100PN2021PTC202535Maharashtra12-07-2021
SHREE PAVNADEVI AGRO PRODUCER COMPANY LIMITEDU01100PN2021PTC202526Maharashtra12-07-2021
RAPHAEL SEQUEIRA FOUNDATIONU85310MH2021NPL363718Maharashtra12-07-2021
XLENT PRINT (OPC) PRIVATE LIMITEDU22300MH2021OPC363790Maharashtra12-07-2021
GATI ELECTRONIC PRIVATE LIMITEDU32109MH2021PTC363730Maharashtra12-07-2021
VSONS TECHNOCRATS PRIVATE LIMITEDU31909MH2021PTC363726Maharashtra12-07-2021
DESHI DOODHWALE PRIVATE LIMITEDU01100PN2021PTC202556Maharashtra12-07-2021
AXL FOODS PRIVATE LIMITEDU55209MH2021PTC363737Maharashtra12-07-2021
RIXOTEL PRIVATE LIMITEDU55209MH2021PTC363786Maharashtra12-07-2021
INS ESPORTS PRIVATE LIMITEDU92410MH2021PTC363720Maharashtra12-07-2021
CHAKRA RESTO BAR PRIVATE LIMITEDU55101MH2021PTC363764Maharashtra12-07-2021
FLAME DIGITAL PRIVATE LIMITEDU92490MH2021PTC363768Maharashtra12-07-2021
ENTERTAINMENT CONSULTANT INDIA PRIVATE LIMITEDU92490MH2021PTC363785Maharashtra12-07-2021
DONATELLA RESTAURANTS PRIVATE LIMITEDU55101PN2021PTC202543Maharashtra12-07-2021
RAJARSHIRAJ PRODUCER COMPANY LIMITEDU01110PN2021PTC202527Maharashtra12-07-2021
URMODI PORK FARMING PRIVATE LIMITEDU01409PN2021PTC202531Maharashtra12-07-2021
TORTOISE ORGANICS PRIVATE LIMITEDU01110PN2021PTC202552Maharashtra12-07-2021
TULSI PAINTS BHILWARA PRIVATE LIMITEDU24110MH2021PTC363729Maharashtra12-07-2021
VITHUMAULI AGRO FARMER PRODUCER COMPANY LIMITEDU01110PN2021PTC202555Maharashtra12-07-2021
ANUVI FOOD SCIENCES PRIVATE LIMITEDU24110MH2021PTC363789Maharashtra12-07-2021
RICH DREAMS MARKETING PRIVATE LIMITEDU01409MH2021PTC363736Maharashtra12-07-2021
PRANISH AGRO FARMERS PRODUCER COMPANY LIMITEDU01110MH2021PTC363728Maharashtra12-07-2021
SHRI THAPLING FARMER PRODUCER COMPANY LIMITEDU01400PN2021PTC202544Maharashtra12-07-2021
RATNAI AGRO PRODUCER COMPANY LIMITEDU01111MH2021PTC363748Maharashtra12-07-2021
HB BIOTECH PRIVATE LIMITEDU01400MH2021PTC363732Maharashtra12-07-2021
CIO TIMES MEDIA AND TECHNOLOGY PRIVATE LIMITEDU22300PN2021PTC202602Maharashtra13-07-2021
SATISH PATIL SPICES INDUSTRY PRIVATE LIMITEDU15332MH2021PTC363845Maharashtra13-07-2021
ANAND GIRDHAR SAGAR PRIVATE LIMITEDU74999PN2021PTC202597Maharashtra13-07-2021
DESHING GRAMIN NIDHI LIMITEDU65990PN2021PLN202598Maharashtra13-07-2021
VENKURE ENTERPRISES PRIVATE LIMITEDU51909MH2021PTC363855Maharashtra13-07-2021
SAUDHARM TRADING PRIVATE LIMITEDU51909MH2021PTC363866Maharashtra13-07-2021
ARKA FINANCIAL HOLDINGS PRIVATE LIMITEDU65993MH2021PTC363806Maharashtra13-07-2021
SPR SOLAR POWER PRIVATE LIMITEDU40108MH2021PTC363812Maharashtra13-07-2021
KETRIS ENTERPRISES PRIVATE LIMITEDU51909MH2021PTC363863Maharashtra13-07-2021
OMERGIA INTERNATIONAL PRIVATE LIMITEDU24110PN2021PTC202573Maharashtra13-07-2021
ASUNITY CHARITABLE FOUNDATIONU85300MH2021NPL363810Maharashtra13-07-2021
RAINBOWAGRO FARMER PRODUCER COMPANY LIMITEDU01100MH2021PTC363799Maharashtra13-07-2021
SANTOSHKUMAR DHOOT RESEARCH AND DEVELOPMENT FOUNDATIONU85300MH2021NPL363814Maharashtra13-07-2021
GUITARWALL.IN PRIVATE LIMITEDU51909PN2021PTC202606Maharashtra13-07-2021
MANSIKAMAL NIDHI LIMITEDU65999MH2021PLN363847Maharashtra13-07-2021
DCPL SPECIALITY CHEMICALS PRIVATE LIMITEDU24200MH2021PTC363872Maharashtra13-07-2021
PURNACHAL FARMER PRODUCER COMPANY LIMITEDU01100MH2021PTC363858Maharashtra13-07-2021
KHANDESHWARI SOCIAL FOUNDATIONU85300MH2021NPL363864Maharashtra13-07-2021
SPARKLE REALTY INDIA PRIVATE LIMITEDU45202PN2021PTC202591Maharashtra13-07-2021
BRAHMAPURI LIFE ESSENTIALS SPIRITUAL ANDRESEARCH FOUNDATIONU85300PN2021NPL202570Maharashtra13-07-2021
PUREGLOSS PRIVATE LIMITEDU24230MH2021PTC363840Maharashtra13-07-2021
SUPREME GOLDEN GRAINS PRIVATE LIMITEDU01100MH2021PTC363862Maharashtra13-07-2021
YUGPARIVARTAN SOCIAL FOUNDATIONU85300PN2021NPL202578Maharashtra13-07-2021
AMIKEVA PRIVATE LIMITEDU24290MH2021PTC363823Maharashtra13-07-2021
BHAVYASH ASSOCIATE PRIVATE LIMITEDU45209MH2021PTC363822Maharashtra13-07-2021
ORLENA INDIA PRIVATE LIMITEDU24290MH2021PTC363851Maharashtra13-07-2021
DORABJEE’S GLOBAL FOUNDATIONU85300PN2021NPL202599Maharashtra13-07-2021
LUVITUS UNITED INDIA (OPC) PRIVATE LIMITEDU45209PN2021OPC202585Maharashtra13-07-2021
UNICLICK PHARMACEUTICALS PRIVATE LIMITEDU24239PN2021PTC202605Maharashtra13-07-2021
HUNARHO LEARNING SOLUTIONS PRIVATE LIMITEDU72900MH2021PTC363794Maharashtra13-07-2021
MVP CONSULTS PRIVATE LIMITEDU70109MH2021PTC363821Maharashtra13-07-2021
ASANN PROCESS INTEGRATION PRIVATE LIMITEDU72900MH2021PTC363795Maharashtra13-07-2021
SWAPNROOP RESEARCH PRIVATE LIMITEDU24299MH2021PTC363817Maharashtra13-07-2021
EVERSM HYGIENIX PRIVATE LIMITEDU24290MH2021PTC363871Maharashtra13-07-2021
REVERSAL AID CONSULTANCY PRIVATE LIMITEDU85300PN2021PTC202594Maharashtra13-07-2021
SCHVIAAN HEALTH SOLUTIONS PRIVATE LIMITEDU85300PN2021PTC202596Maharashtra13-07-2021
VAGHNATH CONSTRUCTIONS PRIVATE LIMITEDU70109PN2021PTC202575Maharashtra13-07-2021
LAPOHE TECHNOLOGY PRIVATE LIMITEDU72900MH2021PTC363803Maharashtra13-07-2021
ISHIKA VENTURES PRIVATE LIMITEDU70109PN2021PTC202603Maharashtra13-07-2021
VERITUS EDUCATION CONSULTANT PRIVATE LIMITEDU80301MH2021PTC363849Maharashtra13-07-2021
CYBER CARTEL PRIVATE LIMITEDU72900MH2021PTC363805Maharashtra13-07-2021
KABPOL SOLUTIONS PRIVATE LIMITEDU24299MH2021PTC363829Maharashtra13-07-2021
JEEVIKA EARTH PRIVATE LIMITEDU52209MH2021PTC363833Maharashtra13-07-2021
INARDENT SOFTWARES PRIVATE LIMITEDU72900MH2021PTC363813Maharashtra13-07-2021
NURTUING MINDS HEALTH & EDUCARE PRIVATE LIMITEDU85300PN2021PTC202604Maharashtra13-07-2021
PRAJPRIME PHARMACEUTICALS (OPC) PRIVATE LIMITEDU24299PN2021OPC202592Maharashtra13-07-2021
MAGTEQ BUSINESS SOLUTIONS PRIVATE LIMITEDU72900MH2021PTC363824Maharashtra13-07-2021
7INK VENTURES PRIVATE LIMITEDU15490MH2021PTC363804Maharashtra13-07-2021
INTROVEXTECHNOLOGIES PRIVATE LIMITEDU72900MH2021PTC363826Maharashtra13-07-2021
BIZEAL INDIA PRIVATE LIMITEDU15490MH2021PTC363841Maharashtra13-07-2021
CYMATIQUE ENGINEERS PRIVATE LIMITEDU45309MH2021PTC363820Maharashtra13-07-2021
FINMET INDIA PRIVATE LIMITEDU72900MH2021PTC363825Maharashtra13-07-2021
ETHIC GREEN TECH PRIVATE LIMITEDU15490MH2021PTC363811Maharashtra13-07-2021
RR CUBE MINOR MINING & INFRA PRIVATE LIMITEDU45309MH2021PTC363850Maharashtra13-07-2021
9PLATFORMS TECHNOLOGY PRIVATE LIMITEDU72900MH2021PTC363836Maharashtra13-07-2021
SOUMYA ELASTOMER PRIVATE LIMITEDU25209MH2021PTC363800Maharashtra13-07-2021
SIMPLE SOFTWARE (OPC) PRIVATE LIMITEDU72200MH2021OPC363815Maharashtra13-07-2021
NEEDL TECHNOLOGY PRIVATE LIMITEDU72900MH2021PTC363843Maharashtra13-07-2021
DHANJI JEWELS PRIVATE LIMITEDU27205MH2021PTC363842Maharashtra13-07-2021
EMERAALD SRR INFRA PRIVATE LIMITEDU45309PN2021PTC202576Maharashtra13-07-2021
LOUDER VENTURES PRIVATE LIMITEDU72900MH2021PTC363844Maharashtra13-07-2021
BLOCKCHAIN TECHNO ADVISORY PRIVATE LIMITEDU72900MH2021PTC363838Maharashtra13-07-2021
UGREN FOODS PRIVATE LIMITEDU15490MH2021PTC363870Maharashtra13-07-2021
SHANTISAGAR CLEAN FUELS PRIVATE LIMITEDU01100PN2021PTC202572Maharashtra13-07-2021
FOOD KOSH INDIA PRIVATE LIMITEDU15490PN2021PTC202584Maharashtra13-07-2021
WINNERS ZONE PRIVATE LIMITEDU80902MH2021PTC363796Maharashtra13-07-2021
SANVEDAN PSYCHOLOGICAL SERVICES PRIVATE LIMITEDU80902MH2021PTC363832Maharashtra13-07-2021
SOUTH ASIA KUNG FU FEDERATIONU92410PN2021NPL202607Maharashtra13-07-2021
CURVE EXPERTS SOFTWARE PRIVATE LIMITEDU72900PN2021PTC202595Maharashtra13-07-2021
FUTURES EGALITARIAN ETHICAL LIBERAL LEADERS PRIVATE LIMITEDU80902MH2021PTC363839Maharashtra13-07-2021
SELTEN TECHNIK PRIVATE LIMITEDU52609PN2021PTC202588Maharashtra13-07-2021
HEMY STEELS LIMITEDU27300MH2021PLC363856Maharashtra13-07-2021
SEVENPORT IO LABS (OPC) PRIVATE LIMITEDU72900PN2021OPC202580Maharashtra13-07-2021
NAGPUR BUILDCON MULTIVENTURES PRIVATE LIMITEDU45400MH2021PTC363867Maharashtra13-07-2021
LEAFRAIN PROCOMM PRIVATE LIMITEDU15490PN2021PTC202586Maharashtra13-07-2021
INNOVER INFOTECH PRIVATE LIMITEDU72900PN2021PTC202581Maharashtra13-07-2021
STALWART E-COMMERCE ENTERPRISE PRIVATE LIMITEDU52609PN2021PTC202574Maharashtra13-07-2021
RFBYTES PRIVATE LIMITEDU72900PN2021PTC202601Maharashtra13-07-2021
NEWLIGHT OVERSEAS EDUCATION CONSULTANCY PRIVATE LIMITEDU80902MH2021PTC363854Maharashtra13-07-2021
SHP INDUSTRIES AND TRADING PRIVATE LIMITEDU21090PN2021PTC202577Maharashtra13-07-2021
MEGA JOULES ENERGY PRIVATE LIMITEDU50400MH2021PTC363859Maharashtra13-07-2021
TELESECURE COMMUNICATIONS PRIVATE LIMITEDU74999PN2021PTC202582Maharashtra13-07-2021
GRACIAS TECHNOLOGY AND CONSULTANCY (OPC)PRIVATE LIMITEDU74999PN2021OPC202590Maharashtra13-07-2021
CAN PE SERVICES PRIVATE LIMITEDU74999PN2021PTC202571Maharashtra13-07-2021
DBA MINING PRIVATE LIMITEDU14290MH2021PTC363860Maharashtra13-07-2021
AIM MOULDPLAST PRIVATE LIMITEDU74999PN2021PTC202579Maharashtra13-07-2021
CITYSHIELD FACILITIES PRIVATE LIMITEDU74999PN2021PTC202583Maharashtra13-07-2021
FRANCHTECH PRIVATE LIMITEDU74999PN2021PTC202593Maharashtra13-07-2021
VOICECARE PHARMACEUTICAL PRIVATE LIMITEDU51900MH2021PTC363852Maharashtra13-07-2021
TRUEHIR MANAGEMENT SERVICES PRIVATE LIMITEDU74999PN2021PTC202587Maharashtra13-07-2021
HOPLIKE PRIVATE LIMITEDU36999MH2021PTC363818Maharashtra13-07-2021
KPACK SOLUTIONS PRIVATE LIMITEDU21099PN2021PTC202600Maharashtra13-07-2021
OCEANIC CIRCLES IMPACT COLLECTIVE PRIVATE LIMITEDU74999PN2021PTC202589Maharashtra13-07-2021
RAGHUKUL URBAN NIDHI LIMITEDU65990MH2021PLN363807Maharashtra13-07-2021
PROTECH E-WASTE PRIVATE LIMITEDU37100MH2021PTC363801Maharashtra13-07-2021
SRINAY AUTOCOMPS INDIA PRIVATE LIMITEDU29100MH2021PTC363808Maharashtra13-07-2021
TLN EDTECH PRIVATE LIMITEDU80903MH2021PTC363809Maharashtra13-07-2021
CHEMONK PRIVATE LIMITEDU74999MH2021PTC363798Maharashtra13-07-2021
DIGIMAZE MARKETING PRIVATE LIMITEDU74999MH2021PTC363834Maharashtra13-07-2021
ANITAS MICROSYSTEMS PRIVATE LIMITEDU74999MH2021PTC363828Maharashtra13-07-2021
ABJ FOODS PRIVATE LIMITEDU55209MH2021PTC363846Maharashtra13-07-2021
COORD ENGINEERING PRIVATE LIMITEDU74999MH2021PTC363827Maharashtra13-07-2021
MOON CHARITABLE FOUNDATIONU80904MH2021NPL363802Maharashtra13-07-2021
TRUE VECTOR BROKING PRIVATE LIMITEDU74999MH2021PTC363848Maharashtra13-07-2021
TAL MEDIA PRIVATE LIMITEDU74999MH2021PTC363868Maharashtra13-07-2021
VIDHATE AGRO PRODUCER COMPANY LIMITEDU01400MH2021PTC363831Maharashtra13-07-2021
LIMONCELLO SUPERMARKETS PRIVATE LIMITEDU74999MH2021PTC363857Maharashtra13-07-2021
SOIE FASHION PRIVATE LIMITEDU17299MH2021PTC363819Maharashtra13-07-2021
SUBODHI AGRO GOAT AND SHEEP PRODUCER COMPANY LIMITEDU01400PN2021PTC202569Maharashtra13-07-2021
BIOBLESS PHARMACEUTICAL (OPC) PRIVATE LIMITEDU85100MH2021OPC363837Maharashtra13-07-2021
TEQFOX FINTECH SOLUTIONS PRIVATE LIMITEDU74999MH2021PTC363853Maharashtra13-07-2021
TATSAT GARMENTS PRIVATE LIMITEDU18209MH2021PTC363830Maharashtra13-07-2021
EMBROZARI ARTISANS WELFARE PRODUCER COMPANY LIMITEDU01400MH2021PTC363835Maharashtra13-07-2021
KAAZWAS LIFESTYLES PRIVATE LIMITEDU18100MH2021PTC363861Maharashtra13-07-2021
SANT MUKTAI AGRO PRODUCER COMPANY LIMITEDU01110MH2021PTC363797Maharashtra13-07-2021
HARIT MANAS FARMER PRODUCER COMPANY LIMITEDU01110MH2021PTC363869Maharashtra13-07-2021
SIRMIL MAROTI FARMER PRODUCER COMPANY LIMITEDU01220MH2021PTC363865Maharashtra13-07-2021
SAIRAM HI-TECH FARMER PRODUCER COMPANY LIMITEDU01400MH2021PTC363816Maharashtra13-07-2021
UTSHIL HEALTHCARE PRIVATE LIMITEDU24110PN2021PTC202637Maharashtra14-07-2021
HAVE A HEART FOUNDATIONU85100PN2021NPL202612Maharashtra14-07-2021
SMILE CREATOR PRIVATE LIMITEDU33119MH2021PTC363902Maharashtra14-07-2021
MORENMORE MULTITRADE PRIVATE LIMITEDU15110PN2021PTC202618Maharashtra14-07-2021
SHITOLE COTTON INDUSTRIES (OPC) PRIVATE LIMITEDU33119PN2021OPC202623Maharashtra14-07-2021
GREENVISION ORGANICS PRIVATE LIMITEDU24290PN2021PTC202646Maharashtra14-07-2021
SAVAJI FUTURISTIC TECHNOLOGIES (OPC) PRIVATE LIMITEDU34300PN2021OPC202640Maharashtra14-07-2021
KINIMA MARKETING PRIVATE LIMITEDU72200MH2021PTC363952Maharashtra14-07-2021
ELON BRIDGETOWN PRIVATE LIMITEDU55209MH2021PTC363875Maharashtra14-07-2021
CG NEPHROCARE AND DIALYSIS CENTER PRIVATE LIMITEDU85100PN2021PTC202636Maharashtra14-07-2021
PREVALENT AUTOMOTIVE PRIVATE LIMITEDU34300MH2021PTC363910Maharashtra14-07-2021
HAKLUYT INDIA STRATEGIC ADVISORY SERVICES PRIVATE LIMITEDU74999MH2021FTC363955Maharashtra14-07-2021
SPGK TECHNOENGINEERING PRIVATE LIMITEDU74999MH2021PTC363879Maharashtra14-07-2021
SHRI BALAJI HUMAN RESOURCES PRIVATE LIMITEDU74999MH2021PTC363882Maharashtra14-07-2021
VISHWAKRIT JEWELLERS PRIVATE LIMITEDU36910PN2021PTC202641Maharashtra14-07-2021
AMOL JWELLERS AND SONS PRIVATE LIMITEDU36996PN2021PTC202631Maharashtra14-07-2021
SUVRAT EXPORTS PRIVATE LIMITEDU36999MH2021PTC363876Maharashtra14-07-2021
ZEO FIN TECHNOLOGY PRIVATE LIMITEDU74999MH2021PTC363899Maharashtra14-07-2021
WADHAI ENTERPRISE PRIVATE LIMITEDU15400MH2021PTC363943Maharashtra14-07-2021
KAR CHEMICALS PRIVATE LIMITEDU24299MH2021PTC363905Maharashtra14-07-2021
UNIQUE STAR MARITIME PRIVATE LIMITEDU61200MH2021PTC363880Maharashtra14-07-2021
MSR INTERIORS PRIVATE LIMITEDU74999MH2021PTC363904Maharashtra14-07-2021
AKM PHARMA PRIVATE LIMITEDU24299MH2021PTC363908Maharashtra14-07-2021
FRESTLE INDIA PRIVATE LIMITEDU15400MH2021PTC363930Maharashtra14-07-2021
APRA INNOVATIVE PRIVATE LIMITEDU24299MH2021PTC363909Maharashtra14-07-2021
SUNLIT POWER PRIVATE LIMITEDU40107MH2021PTC363931Maharashtra14-07-2021
REFEROUTE TECHNOLOGIES PRIVATE LIMITEDU74999MH2021PTC363919Maharashtra14-07-2021
A2K LABS PRIVATE LIMITEDU24299MH2021PTC363942Maharashtra14-07-2021
BLUEWATER CONSULTING ENGINEERS PRIVATE LIMITEDU74999MH2021PTC363921Maharashtra14-07-2021
SC ROYAL OVERSEAS (OPC) PRIVATE LIMITEDU51909MH2021OPC363883Maharashtra14-07-2021
FELLOWLINK ONLINE VENTURE PRIVATE LIMITEDU74999MH2021PTC363927Maharashtra14-07-2021
MWF SOLUTIONS PRIVATE LIMITEDU51909MH2021PTC363911Maharashtra14-07-2021
VANJARE SERVICES PRIVATE LIMITEDU74999MH2021PTC363937Maharashtra14-07-2021
SAMEER TRADE SOLUTION PRIVATE LIMITEDU51909MH2021PTC363958Maharashtra14-07-2021
KRISHAIL BIOGREENS ENERGY PRIVATE LIMITEDU40300MH2021PTC363935Maharashtra14-07-2021
SHRI KANTABAI VITTHAL AGRO PRODUCER COMPANY LIMITEDU01100MH2021PTC363887Maharashtra14-07-2021
VTM TRADERS PRIVATE LIMITEDU51909MH2021PTC363938Maharashtra14-07-2021
UBIQ LOGISTEC PRIVATE LIMITEDU74999MH2021PTC363939Maharashtra14-07-2021
SAYAN UTILITY & COMMON INFRASTRUCTURE PRIVATE LIMITEDU41000MH2021PTC363959Maharashtra14-07-2021
RAYIRTH BIOTECH PRIVATE LIMITEDU24299MH2021PTC363946Maharashtra14-07-2021
HUNGAMA FOOD PRODUCTS PRIVATE LIMITEDU15400PN2021PTC202614Maharashtra14-07-2021
DELTA GROWTH EQUIPMENT TRADING PRIVATE LIMITEDU51909MH2021PTC363915Maharashtra14-07-2021
METRO INFINITY PRIVATE LIMITEDU51909MH2021PTC363940Maharashtra14-07-2021
KHANDESHWARI AGRO FARMER PRODUCER COMPANY LIMITEDU01100MH2021PTC363906Maharashtra14-07-2021
BIZNOW BUSINESS HUB PRIVATE LIMITEDU74999MH2021PTC363947Maharashtra14-07-2021
HOME CREATIVE INTERIOR (OPC) PRIVATE LIMITEDU74999PN2021OPC202622Maharashtra14-07-2021
AL AMAANAH GENERAL TRADING PRIVATE LIMITEDU51909MH2021PTC363962Maharashtra14-07-2021
AGRO SPARKLERS FARMERS PRODUCER COMPANY LIMITEDU01100MH2021PTC363912Maharashtra14-07-2021
BUZZ IT UP MEDIA PRIVATE LIMITEDU74999PN2021PTC202616Maharashtra14-07-2021
GROUNDUP ASIA PRIVATE LIMITEDU74999PN2021PTC202634Maharashtra14-07-2021
DEEPRIO INFORMATION TECHNOLOGY INDIA PRIVATE LIMITEDU74999PN2021PTC202647Maharashtra14-07-2021
ARADHYA FARMER PRODUCER COMPANY LIMITEDU01100MH2021PTC363917Maharashtra14-07-2021
BORA BHATEWARA VENTURES PRIVATE LIMITEDU45201PN2021PTC202635Maharashtra14-07-2021
KISANRAOSAHEBRAO TRADING PRIVATE LIMITEDU15490MH2021PTC363873Maharashtra14-07-2021
GREENFOOD FARMERS PRODUCER COMPANY LIMITEDU01100MH2021PTC363918Maharashtra14-07-2021
ARIMAK OVERSEAS PRIVATE LIMITEDU27200MH2021PTC363924Maharashtra14-07-2021
SHIVTEJ CANE AGRO LIMITEDU15490PN2021PLC202628Maharashtra14-07-2021
SALASAR BUILDERS (RPA) PRIVATE LIMITEDU45209MH2021PTC363888Maharashtra14-07-2021
BLOOMING BITES FOODS PRIVATE LIMITEDU15490PN2021PTC202609Maharashtra14-07-2021
ALCOBEV PRIVATE LIMITEDU15490PN2021PTC202643Maharashtra14-07-2021
SHRI CHATURBHUJ AGARWAL CHARITABLE FOUNDATIONU85300MH2021NPL363877Maharashtra14-07-2021
HINDAWI FARMERS PRODUCER COMPANY LIMITEDU01100MH2021PTC363945Maharashtra14-07-2021
TAXGYANY PRO PRIVATE LIMITEDU74120MH2021PTC363874Maharashtra14-07-2021
DEEPTEN RAJE FARMERS PRODUCER COMPANY LIMITEDU01100MH2021PTC363963Maharashtra14-07-2021
SHIV PRAVARA GOLD INDUSTRIES PRIVATE LIMITEDU15490PN2021PTC202650Maharashtra14-07-2021
JAIN ACTIVISTS GLOBAL ORGANIZATION (JAGO)U85300MH2021NPL363886Maharashtra14-07-2021
SHRI SHANAISHWAR FARMERS PRODUCER COMPANY LIMITEDU01100MH2021PTC363916Maharashtra14-07-2021
AL BARR EXPORTS (OPC) PRIVATE LIMITEDU51909PN2021OPC202613Maharashtra14-07-2021
STEELINK INDIA PRIVATE LIMITEDU29190MH2021PTC363960Maharashtra14-07-2021
STREEDHAN NIDHI LIMITEDU65990MH2021PLN363893Maharashtra14-07-2021
SWARNASAMRUDDHI NIDHI LIMITEDU65990MH2021PLN363932Maharashtra14-07-2021
YOUNOH TRADES (OPC) PRIVATE LIMITEDU74140MH2021OPC363895Maharashtra14-07-2021
QUANTUMSOFT TECHNOLOGIES PRIVATE LIMITEDU72900MH2021PTC363878Maharashtra14-07-2021
TECHWYSH OILTECH PRIVATE LIMITEDU29100MH2021PTC363925Maharashtra14-07-2021
EKAKSHAR URBAN NIDHI LIMITEDU65990MH2021PLN363897Maharashtra14-07-2021
RAYSA RESONANCE HUMAN RIGHTS FOUNDATIONU85300MH2021NPL363894Maharashtra14-07-2021
GEETA SANGH FOUNDATIONU85300MH2021NPL363956Maharashtra14-07-2021
LIBDEX CONSTRUCTION PRIVATE LIMITEDU45309MH2021PTC363900Maharashtra14-07-2021
SESH CHARITABLE FOUNDATIONU85300MH2021NPL363914Maharashtra14-07-2021
WOWSOYA ORGANIC PRIVATE LIMITEDU52100MH2021PTC363933Maharashtra14-07-2021
ASSOCIATION FOR THE DEVELOPMENT OF INDIGENOUS ETHICSU85300MH2021NPL363923Maharashtra14-07-2021
SISPAY MULTIPURPOSE URBAN NIDHI LIMITEDU65990PN2021PLN202642Maharashtra14-07-2021
ORGANIC SAGA PRIVATE LIMITEDU52100MH2021PTC363948Maharashtra14-07-2021
NITEO AUTOMATION INDIA PRIVATE LIMITEDU29299PN2021PTC202649Maharashtra14-07-2021
VOICE FOR MEN FOUNDATIONU85300MH2021NPL363926Maharashtra14-07-2021
WATER FACTORY (PACHPADRA) PRIVATE LIMITEDU45309MH2021PTC363896Maharashtra14-07-2021
SANJERI PAYMENTS INDIA PRIVATE LIMITEDU72900MH2021PTC363891Maharashtra14-07-2021
SUUMAYA INFOTECH PRIVATE LIMITEDU72900MH2021PTC363928Maharashtra14-07-2021
OBITZO PRIVATE LIMITEDU72900MH2021PTC363944Maharashtra14-07-2021
SQUAD OF YOUTHS FOUNDATIONU85300PN2021NPL202629Maharashtra14-07-2021
S KUMAR HOMES PRIVATE LIMITEDU45309MH2021PTC363907Maharashtra14-07-2021
CHRONICLEHQ PRIVATE LIMITEDU72900MH2021PTC363934Maharashtra14-07-2021
AGROAYUR RESEARCH PRIVATE LIMITEDU01100PN2021PTC202620Maharashtra14-07-2021
PISCIS NETWORKS PRIVATE LIMITEDU72900MH2021PTC363941Maharashtra14-07-2021
BHIMTHADI FOUNDATION BARAMATIU85300PN2021NPL202610Maharashtra14-07-2021
RAJWADA AYURVED CENTER PRIVATE LIMITEDU85300PN2021PTC202621Maharashtra14-07-2021
SHARV TOOLING PRIVATE LIMITEDU29309PN2021PTC202644Maharashtra14-07-2021
WYANKATESH URBAN NIDHI LIMITEDU65999MH2021PLN363950Maharashtra14-07-2021
VOSGI INTERNATIONAL PRIVATE LIMITEDU52339MH2021PTC363892Maharashtra14-07-2021
ZEP FARMERS PRODUCER COMPANY LIMITEDU01100PN2021PTC202632Maharashtra14-07-2021
SGTEK SYSTEMS PRIVATE LIMITEDU72900MH2021PTC363954Maharashtra14-07-2021
SARWARTH SEVA SANGAM FOUNDATIONU85300PN2021NPL202639Maharashtra14-07-2021
CURLYBRACES SYSTEMS PRIVATE LIMITEDU72900MH2021PTC363961Maharashtra14-07-2021
JIKONI FOUNDATIONU85300PN2021NPL202645Maharashtra14-07-2021
NEST ACADEMY FOUNDATIONU80100MH2021NPL363884Maharashtra14-07-2021
MARATHWADA MATI FOUNDATIONU85300PN2021NPL202648Maharashtra14-07-2021
SADHGURU SUGAR PRIVATE LIMITEDU01100PN2021PTC202626Maharashtra14-07-2021
ANANDMURTI NIDHI LIMITEDU65999PN2021PLN202624Maharashtra14-07-2021
QUALITY CERTIFICATION AND EDUCATION (OPC) PRIVATE LIMITEDU80900PN2021OPC202651Maharashtra14-07-2021
OFF PRICE PRIVATE LIMITEDU18209MH2021PTC363929Maharashtra14-07-2021
EMILE TECHNOLOGIES PRIVATE LIMITEDU72900PN2021PTC202608Maharashtra14-07-2021
VALUE WEALTH FINANCIAL SERVICES PRIVATE LIMITEDU67100MH2021PTC363949Maharashtra14-07-2021
WINDREAMS INFORMATIVES PRIVATE LIMITEDU72900PN2021PTC202615Maharashtra14-07-2021
GROCERYUS PRIVATE LIMITEDU52599MH2021PTC363903Maharashtra14-07-2021
MF NETWORKING PRIVATE LIMITEDU80902MH2021PTC363957Maharashtra14-07-2021
DISHA EDUCATION AND SPORTS FOUNDATIONU85320PN2021NPL202627Maharashtra14-07-2021
AARTH SALES AND MARKETING PRIVATE LIMITEDU52609MH2021PTC363920Maharashtra14-07-2021
RELIANCE NEW ENERGY POWER ELECTRONICS LIMITEDU31904MH2021PLC363881Maharashtra14-07-2021
SAICENT SOFTWARE PRIVATE LIMITEDU72900PN2021PTC202625Maharashtra14-07-2021
HAVK FUEL (OPC) PRIVATE LIMITEDU23209MH2021OPC363936Maharashtra14-07-2021
SAFECHARGE MOBILITY SOLUTIONS PRIVATE LIMITEDU31909PN2021PTC202630Maharashtra14-07-2021
MUMBAI SCHOOL OF CINEMATIC & PERFORMING ARTS WELFARE FOUNDATIONU80903MH2021NPL363885Maharashtra14-07-2021
Y.I.W. ASSOCIATIONU92419MH2021NPL363922Maharashtra14-07-2021
SAFECOM INTERNET & ECOMMERCE SAFETY FOUNDATIONU80903MH2021NPL363913Maharashtra14-07-2021
VENUE VENTURE PRIVATE LIMITEDU92490MH2021PTC363890Maharashtra14-07-2021
IRENIC EVENTS PRIVATE LIMITEDU92490MH2021PTC363901Maharashtra14-07-2021
ROYAL WINGS TRADERS PRIVATE LIMITEDU70109PN2021PTC202652Maharashtra14-07-2021
REFLEX AUDIO PRIVATE LIMITEDU32309PN2021PTC202619Maharashtra14-07-2021
YAHSHUA ENTERPRISES (OPC) PRIVATE LIMITEDU92490PN2021OPC202638Maharashtra14-07-2021
UPSIDE INVESTECH NETWORKS PRIVATE LIMITEDU70109MH2021PTC363951Maharashtra14-07-2021
DHAIRYASHEEL AGRO INDIA PRIVATE LIMITEDU01110PN2021PTC202617Maharashtra14-07-2021
GADCHIROLI WOMENS POULTRY PRODUCER COMPANY LIMITEDU01110MH2021PTC363889Maharashtra14-07-2021
RJMS AGRO PRIVATE LIMITEDU01400MH2021PTC363898Maharashtra14-07-2021
TEJONIDHI FARMER PRODUCER COMPANY LIMITEDU01400MH2021PTC363953Maharashtra14-07-2021
LEO & SAGITTARIUS CONSULTING (OPC) PRIVATE LIMITEDU74999MH2021OPC363966Maharashtra15-07-2021
LEGEND MARINE SHIPPING PRIVATE LIMITEDU74999MH2021PTC363970Maharashtra15-07-2021
ROHISON ECONOMIC MARKETING PRIVATE LIMITEDU51909MH2021PTC364010Maharashtra15-07-2021
ISHNA SERVICES PRIVATE LIMITEDU74999MH2021PTC363972Maharashtra15-07-2021
ELITE AMENITIES PRIVATE LIMITEDU51909MH2021PTC364000Maharashtra15-07-2021
GREEN E-PICK SERVICES PRIVATE LIMITEDU63030PN2021PTC202672Maharashtra15-07-2021
AMASAN INSURTECH PRIVATE LIMITEDU72200MH2021PTC364006Maharashtra15-07-2021
OSSIGENO PRIVATE LIMITEDU24297MH2021PTC364017Maharashtra15-07-2021
HONESTGOAL SYSTEM PRIVATE LIMITEDU51909PN2021PTC202683Maharashtra15-07-2021
FIRSTMITRASTUDIO FOUNDATIONU85100MH2021NPL363967Maharashtra15-07-2021
CODE WORLD INSTITUTE AND INFOTECH PRIVATE LIMITEDU72200PN2021PTC202682Maharashtra15-07-2021
CHARTERED EVALUATORS PRIVATE LIMITEDU74999MH2021PTC363979Maharashtra15-07-2021
ROOHI MENTAL HEALTH ORGANISATIONU85100MH2021NPL364019Maharashtra15-07-2021
BUILDREAM FRANTECH SOLUTIONS PRIVATE LIMITEDU74999MH2021PTC363988Maharashtra15-07-2021
ESYA.STUDIO INDIA PRIVATE LIMITEDU74999MH2021PTC363981Maharashtra15-07-2021
ENERGEVO SPARK (BHOOM) PRIVATE LIMITEDU40108MH2021PTC364025Maharashtra15-07-2021
GRATILA HEALTHCARE PRIVATE LIMITEDU85100PN2021PTC202653Maharashtra15-07-2021
HWS 3 TECHNOLOGIES PRIVATE LIMITEDU24299PN2021PTC202677Maharashtra15-07-2021
READYMAN SERVICES PRIVATE LIMITEDU74999MH2021PTC363992Maharashtra15-07-2021
INTERLINK PHARMACEUTICAL PRIVATE LIMITEDU24299PN2021PTC202662Maharashtra15-07-2021
CNECT TELECOM PRIVATE LIMITEDU64100PN2021PTC202663Maharashtra15-07-2021
INNFRA CONSOL PRIVATE LIMITEDU74999MH2021PTC364008Maharashtra15-07-2021
INDRICA INFOTECH PRIVATE LIMITEDU74999MH2021PTC364009Maharashtra15-07-2021
GADCHIROLI BHANDARA URBAN NIDHI LIMITEDU65900MH2021PLN363989Maharashtra15-07-2021
GURUDAYAL MULTISERVICES PRIVATE LIMITEDU74999MH2021PTC364027Maharashtra15-07-2021
SNEHA HOSPITALITY SERVICES PRIVATE LIMITEDU74999MH2021PTC363995Maharashtra15-07-2021
VAITARNA SOLAR-HYDRO POWERGENCO PRIVATE LIMITEDU40109MH2021PTC363975Maharashtra15-07-2021
ANANT ENGINEERING AND CONSTRUCTION COMPONENTS PRIVATE LIMITEDU74999PN2021PTC202674Maharashtra15-07-2021
ASSOCIATE LEGAL PRIVATE LIMITEDU74999PN2021PTC202676Maharashtra15-07-2021
GM FINEST PRIVATE LIMITEDU74999MH2021PTC364033Maharashtra15-07-2021
VCARE HOSPITALITY INDIA PRIVATE LIMITEDU74999PN2021PTC202684Maharashtra15-07-2021
CHAY CHAY PRIVATE LIMITEDU15490PN2021PTC202685Maharashtra15-07-2021
CONVERSANT ALGORITHMS PRIVATE LIMITEDU74999PN2021PTC202679Maharashtra15-07-2021
DHANFINLEAF FINANCIAL SERVICES PRIVATE LIMITEDU65990MH2021PTC363965Maharashtra15-07-2021
GOLDBRICKS INVESTMENT PRIVATE LIMITEDU65990MH2021PTC364022Maharashtra15-07-2021
SWARNAMANI NIDHI LIMITEDU65990PN2021PLN202661Maharashtra15-07-2021
GOPANI INFRASTRUCTURE SYSTEMS PRIVATE LIMITEDU28999MH2021PTC363991Maharashtra15-07-2021
FPS ENGINEERING CONSOLIDATES PRIVATE LIMITEDU28999MH2021PTC363999Maharashtra15-07-2021
CSC DHULE SHINDAKHEDA SARVADA FARMER PRODUCER COMPANY LIMITEDU01100MH2021PTC363964Maharashtra15-07-2021
B & J METAL BUILDING CONSULTANCY PRIVATELIMITEDU74210PN2021PTC202670Maharashtra15-07-2021
BALU ADVANCED TECHNOLOGIES & SYSTEMS PRIVATE LIMITEDU28999MH2021PTC364001Maharashtra15-07-2021
MDP INDUSTRIES PRIVATE LIMITEDU17299MH2021PTC364002Maharashtra15-07-2021
MOKSHA FASHION PRIVATE LIMITEDU18101MH2021PTC364015Maharashtra15-07-2021
BIRKULE CONSTRUCTION PRIVATE LIMITEDU45309MH2021PTC363978Maharashtra15-07-2021
BLOOMBOMBS LIVING PRIVATE LIMITEDU52399MH2021PTC363998Maharashtra15-07-2021
BIOVISION PROCESS ENGINEERING PRIVATE LIMITEDU29306PN2021PTC202666Maharashtra15-07-2021
BHAGWANDASJI GUPTA FARMER PRODUCER COMPANY LIMITEDU01100MH2021PTC363976Maharashtra15-07-2021
BHALOD FARMER PRODUCER COMPANY LIMITEDU01100MH2021PTC363987Maharashtra15-07-2021
ORA NIDHI LIMITEDU65999MH2021PLN364014Maharashtra15-07-2021
ENVIRO SHIELD SOLUTIONS PRIVATE LIMITEDU29308PN2021PTC202656Maharashtra15-07-2021
PDE INSTITUTE OF INDIA PRIVATE LIMITEDU29256PN2021PTC202673Maharashtra15-07-2021
PDO ENERGY PRIVATE LIMITEDU29308MH2021PTC364028Maharashtra15-07-2021
TRAKHIJA INTERNATIONAL PRIVATE LIMITEDU52599MH2021PTC363968Maharashtra15-07-2021
RAJE YASHWANTRAO HOLKAR SOCIAL WELFARE FORUMU85300MH2021NPL364012Maharashtra15-07-2021
MAPLEOAK VENTURES PRIVATE LIMITEDU52609MH2021PTC364036Maharashtra15-07-2021
CLASY UNIFORMS INDIA PRIVATE LIMITEDU18109PN2021PTC202667Maharashtra15-07-2021
FORMONIX INSTRUMENTS PRIVATE LIMITEDU29309PN2021PTC202658Maharashtra15-07-2021
REAL MONEY FINANCIAL SERVICES PRIVATE LIMITEDU67190MH2021PTC364026Maharashtra15-07-2021
RAJARSHRI SHAHU SOCIAL FOUNDATIONU85300MH2021NPL363990Maharashtra15-07-2021
PANSY HOSPITALITY & RAPID CLEAN MANAGEMENT SERVICE PRIVATE LIMITEDU55100MH2021PTC364004Maharashtra15-07-2021
CLAIMPOWER INDIA PRIVATE LIMITEDU72900MH2021FTC363983Maharashtra15-07-2021
SWARAJ RURAL DEVELOPMENT FOUNDATIONU85300PN2021NPL202665Maharashtra15-07-2021
AKSH HOTELS AND RESORTS PRIVATE LIMITEDU55209MH2021PTC363982Maharashtra15-07-2021
HIGHWAY9 NETWORKS PRIVATE LIMITEDU72900MH2021FTC364016Maharashtra15-07-2021
SUPERFUN ONLINE PRIVATE LIMITEDU72900MH2021PTC363984Maharashtra15-07-2021
DEZLEARN EDUCATION PRIVATE LIMITEDU80301PN2021PTC202655Maharashtra15-07-2021
ELECTROGENIS INDIA PRIVATE LIMITEDU31400MH2021PTC363969Maharashtra15-07-2021
INDO ASIAN NETWORK SOLUTIONS PRIVATE LIMITEDU72900MH2021PTC363996Maharashtra15-07-2021
SUNCAPE SERVICES PRIVATE LIMITEDU72900MH2021PTC364011Maharashtra15-07-2021
BHAGYAREKHA BHIWAPURI MASALE ASSOCIATIONU85300MH2021NPL364013Maharashtra15-07-2021
AZZULO ADVISORS PRIVATE LIMITEDU70103MH2021PTC363985Maharashtra15-07-2021
NIRAASHRIT GAUVANSH SEVA FOUNDATIONU85300MH2021NPL364030Maharashtra15-07-2021
LOKNETE VISHNUPANT BACHCHE (ANNA) YOUTH FOUNDATIONU85300PN2021NPL202660Maharashtra15-07-2021
SORTD TECHNOLOGIES PRIVATE LIMITEDU31905MH2021PTC363977Maharashtra15-07-2021
LONA LOGISTICS INDIA PRIVATE LIMITEDU60100MH2021PTC364031Maharashtra15-07-2021
EDYOUTH LEARNING FOUNDATIONU80302MH2021NPL364007Maharashtra15-07-2021
SARATHEE DRIVING TRAINING RESEARCH CENTRE PRIVATE LIMITEDU80902PN2021PTC202654Maharashtra15-07-2021
THINKMONK EDUTECH PRIVATE LIMITEDU72900MH2021PTC364021Maharashtra15-07-2021
VENGURLA CASHEW FARMERS PRODUCER COMPANYLIMITEDU01100PN2021PTC202671Maharashtra15-07-2021
TARUN VISHWA PRIVATE LIMITEDU22300MH2021PTC363973Maharashtra15-07-2021
MAULANA AZAD MODERN COUNCILU85300PN2021NPL202680Maharashtra15-07-2021
SOULWORKS HOME DECOR PRIVATE LIMITEDU36100MH2021PTC364003Maharashtra15-07-2021
MAHABALESHWAR TALUKA WESTERN GHAT FARMERS PRODUCER COMPANY LIMITEDU01100PN2021PTC202675Maharashtra15-07-2021
KEY GREEN REALTORS PRIVATE LIMITEDU70109MH2021PTC364020Maharashtra15-07-2021
NESTINN LIFESPACES PRIVATE LIMITEDU70109MH2021PTC363997Maharashtra15-07-2021
AVIVPRO (OPC) PRIVATE LIMITEDU72900PN2021OPC202669Maharashtra15-07-2021
KRUSHIMART AGRO PRODUCER COMPANY LIMITEDU01100PN2021PTC202681Maharashtra15-07-2021
ATOENFRA SOLUTION PRIVATE LIMITEDU72900PN2021PTC202659Maharashtra15-07-2021
FUELMANIA PRIVATE LIMITEDU50500MH2021PTC364037Maharashtra15-07-2021
PEPPERFRY MODULAR PRIVATE LIMITEDU36109MH2021PTC363980Maharashtra15-07-2021
KHAMMA GHANI FILMS PRIVATE LIMITEDU92140MH2021PTC363971Maharashtra15-07-2021
VAISHNAVI SMARTPLUS PRIVATE LIMITEDU92490MH2021PTC363974Maharashtra15-07-2021
RISHIKESH ELECTROMETAL PROCESSORS PRIVATE LIMITEDU24220PN2021PTC202664Maharashtra15-07-2021
ALMC SOLUTIONS PRIVATE LIMITEDU92490MH2021PTC363986Maharashtra15-07-2021
SF MARINA (INDIA) PRIVATE LIMITEDU36999MH2021PTC364005Maharashtra15-07-2021
PUALASHAS CARPENTER & INTERIOR DESIGNS PRIVATE LIMITEDU36999PN2021PTC202657Maharashtra15-07-2021
DIGRAS URBAN AGRO PRODUCER COMPANY LIMITEDU01409MH2021PTC363994Maharashtra15-07-2021
KRUSHIKORN PRIVATE LIMITEDU24290PN2021PTC202668Maharashtra15-07-2021
ZEMA MUSIC PRIVATE LIMITEDU93000MH2021PTC364035Maharashtra15-07-2021
SUNNIVA VENTURES INFRA PRIVATE LIMITEDU71290MH2021PTC364032Maharashtra15-07-2021
RUDRAMUNI CHEMICALS PRIVATE LIMITEDU24290PN2021PTC202678Maharashtra15-07-2021
SAMINDAR AGROTECH PRIVATE LIMITEDU01110MH2021PTC364024Maharashtra15-07-2021
PAUNI TURMERIC & AGRO PRODUCER COMPANY LIMITEDU01110MH2021PTC364029Maharashtra15-07-2021
TREEVENI FARMERS PRODUCER COMPANY LIMITEDU01110MH2021PTC364034Maharashtra15-07-2021
G1 RESOURCES PRIVATE LIMITEDU14290MH2021PTC363993Maharashtra15-07-2021
SATYASHODHAK MAHATMA JYOTIBA PHULE FARMER PRODUCER COMPANY LIMITEDU01409MH2021PTC364018Maharashtra15-07-2021
NISARGKRUSHI FARMER PRODUCER COMPANY LIMITEDU01110MH2021PTC364023Maharashtra15-07-2021
YASNEEL GLOBAL TRADING PRIVATE LIMITEDU51909MH2021PTC364085Maharashtra16-07-2021
UPAAYI TECHCARE PRIVATE LIMITEDU74999MH2021PTC364100Maharashtra16-07-2021
JJR PHARMA PRIVATE LIMITEDU24299MH2021PTC364062Maharashtra16-07-2021
PRIMESTONE ENTERPRISES PRIVATE LIMITEDU45201MH2021PTC364094Maharashtra16-07-2021
STARLITSTYLE PRIVATE LIMITEDU17299PN2021PTC202696Maharashtra16-07-2021
ROYAL RANGE ENTERPRISES PRIVATE LIMITEDU51909PN2021PTC202703Maharashtra16-07-2021
MESON LABS PRIVATE LIMITEDU73100PN2021PTC202698Maharashtra16-07-2021
PRISTINE GEMS PRIVATE LIMITEDU51909MH2021PTC364090Maharashtra16-07-2021
FOODBLOC PRIVATE LIMITEDU15549MH2021PTC364084Maharashtra16-07-2021
SHREE BHAGVAN GAD URBAN YELI NIDHI LIMITEDU65999MH2021PLN364101Maharashtra16-07-2021
EGLOBAL SOURCING SOLUTION PRIVATE LIMITEDU51909MH2021PTC364097Maharashtra16-07-2021
GENERATION NEXT ESPORT PRIVATE LIMITEDU74999PN2021PTC202693Maharashtra16-07-2021
LUTON PHARMA PRIVATE LIMITEDU85100MH2021PTC364047Maharashtra16-07-2021
POWERLIFT ENGINEERS PRIVATE LIMITEDU17299MH2021PTC364060Maharashtra16-07-2021
NEODOCS HEALTHCARE PRIVATE LIMITEDU72900MH2021FTC364068Maharashtra16-07-2021
SHRADDHAPOOJA PACKAGING PRIVATE LIMITEDU21093MH2021PTC364096Maharashtra16-07-2021
DEEPNATE TECHNOLOGIES PRIVATE LIMITEDU72900MH2021PTC364051Maharashtra16-07-2021
AD GROWTH FINANCE PRIVATE LIMITEDU67100PN2021PTC202686Maharashtra16-07-2021
NOVEL ASSETS SERVICES PRIVATE LIMITEDU67120PN2021PTC202688Maharashtra16-07-2021
AMAN K CONCRETE PRIVATE LIMITEDU45309MH2021PTC364061Maharashtra16-07-2021
KHET AADHAAR PRIVATE LIMITEDU72900MH2021PTC364054Maharashtra16-07-2021
POLYGON STUDIOS INDIA PRIVATE LIMITEDU22300MH2021FTC364083Maharashtra16-07-2021
QUESTON EDTECH PRIVATE LIMITEDU72900MH2021PTC364043Maharashtra16-07-2021
APAVARG PROPERTIES PRIVATE LIMITEDU70109MH2021PTC364089Maharashtra16-07-2021
SHRIKRISHNA PHARMA FOILS INDIA PRIVATE LIMITEDU27203MH2021PTC364042Maharashtra16-07-2021
STRAY HAPPY ANIMAL FOUNDATIONU85300MH2021NPL364067Maharashtra16-07-2021
MOHADI TALUKA KRUSHIVIKAS PRODUCER COMPANY LIMITEDU01100MH2021PTC364049Maharashtra16-07-2021
ALFA INFOSOFT SOLUTION PRIVATE LIMITEDU72900MH2021PTC364082Maharashtra16-07-2021
TESCORP PRIVATE LIMITEDU45309PN2021PTC202699Maharashtra16-07-2021
RIGHT SKALE PRIVATE LIMITEDU72900MH2021PTC364057Maharashtra16-07-2021
KRUSHI AVATAR SEEDS PRIVATE LIMITEDU01100MH2021PTC364080Maharashtra16-07-2021
MYLIVEMAX MEGA MART (OPC) PRIVATE LIMITEDU52200MH2021OPC364040Maharashtra16-07-2021
QUIRKY FAWN MEDIA AND PRODUCTIONS PRIVATE LIMITEDU22300MH2021PTC364099Maharashtra16-07-2021
RATARISE TECHNOLOGY SOLUTIONS PRIVATE LIMITEDU72900MH2021PTC364081Maharashtra16-07-2021
HAPPY CLUB MEDICAL EDUCATION AND WELFAREFOUNDATIONU85300MH2021NPL364073Maharashtra16-07-2021
S2S BUILDCITY PRIVATE LIMITEDU45309PN2021PTC202704Maharashtra16-07-2021
NEXTIN MACHINERY SERVICES PRIVATE LIMITEDU29100MH2021PTC364052Maharashtra16-07-2021
SANT DHAM FOUNDATIONU85300MH2021NPL364088Maharashtra16-07-2021
AMYNASEC RESEARCH LABS PRIVATE LIMITEDU72900PN2021PTC202689Maharashtra16-07-2021
GEM SPRIGHT ELECTRICALS AND AUTOMATION PRIVATE LIMITEDU31100MH2021PTC364076Maharashtra16-07-2021
OWLIVE HUB PRIVATE LIMITEDU72900MH2021PTC364092Maharashtra16-07-2021
ROYALSTER PRIVATE LIMITEDU23200MH2021PTC364053Maharashtra16-07-2021
HAZEL CLOTHING PRIVATE LIMITEDU52520PN2021PTC202687Maharashtra16-07-2021
PURPLECUBE DATA STUDIO PRIVATE LIMITEDU72200PN2021PTC202691Maharashtra16-07-2021
KRUSHI BHARARI FARMERS PRODUCER COMPANY LIMITEDU01100PN2021PTC202702Maharashtra16-07-2021
KSHIGOR TECH PRIVATE LIMITEDU72900PN2021PTC202692Maharashtra16-07-2021
VTELLTALES PRIVATE LIMITEDU72500MH2021PTC364046Maharashtra16-07-2021
SHRI BAHIRAMDEV AGRO FARMER PRODUCER COMPANY LIMITEDU01110MH2021PTC364072Maharashtra16-07-2021
KRISHTINA FOODS PRIVATE LIMITEDU15400MH2021PTC364045Maharashtra16-07-2021
SUN COOL PRIVATE LIMITEDU31909MH2021PTC364071Maharashtra16-07-2021
SANTEJAM ENERGY PRIVATE LIMITEDU23209MH2021PTC364075Maharashtra16-07-2021
ICON LABS PRIVATE LIMITEDU45400MH2021PTC364064Maharashtra16-07-2021
INDRA INNOVATIONS PRIVATE LIMITEDU80902MH2021PTC364093Maharashtra16-07-2021
ARBOUR ALTERNATE ADVISORS PRIVATE LIMITEDU74999MH2021PTC364038Maharashtra16-07-2021
SIDDHARAJ BIOFUELS PRIVATE LIMITEDU23209PN2021PTC202690Maharashtra16-07-2021
GODSENDS FOUNDATIONU85300PN2021NPL202694Maharashtra16-07-2021
GETSETUP INDIA PRIVATE LIMITEDU80903MH2021FTC364098Maharashtra16-07-2021
CRYPTO GABBAR PRIVATE LIMITEDU74999MH2021PTC364063Maharashtra16-07-2021
EPSILON C2GR PRIVATE LIMITEDU24200MH2021PTC364055Maharashtra16-07-2021
BROTUSMITA FOUNDATIONU85300PN2021NPL202700Maharashtra16-07-2021
BOMBAY DETAILING STUDIO PRIVATE LIMITEDU50400MH2021PTC364059Maharashtra16-07-2021
PADMAKSHI HEALTHCARE PRIVATE LIMITEDU85300PN2021PTC202695Maharashtra16-07-2021
KUBE GLOBAL MARKETING PRIVATE LIMITEDU74999MH2021PTC364058Maharashtra16-07-2021
BDS BANDHAN PLUS PRIVATE LIMITEDU51900MH2021PTC364050Maharashtra16-07-2021
WISEDOM EDTECH PRIVATE LIMITEDU80903MH2021PTC364078Maharashtra16-07-2021
JNV AEROSPACE AND DEFENCE PRIVATE LIMITEDU31909MH2021PTC364077Maharashtra16-07-2021
AKLUN BIOTECH PRIVATE LIMITEDU33125MH2021PTC364044Maharashtra16-07-2021
UNISCHOLARZ PRIVATE LIMITEDU80902MH2021PTC364095Maharashtra16-07-2021
TECHNOGR8 SOLUTIONS PRIVATE LIMITEDU74999MH2021PTC364039Maharashtra16-07-2021
GROWTH TRANSFORMATION PRIVATE LIMITEDU74999MH2021PTC364065Maharashtra16-07-2021
SKEENDIA LAB PRIVATE LIMITEDU24241MH2021PTC364041Maharashtra16-07-2021
CREDITGURU FINSERV PRIVATE LIMITEDU74999MH2021PTC364066Maharashtra16-07-2021
MEDICOWESOME PRIVATE LIMITEDU80904MH2021PTC364069Maharashtra16-07-2021
AKATSUKI INDIA PRIVATE LIMITEDU74999MH2021PTC364091Maharashtra16-07-2021
ADIANTE POLYMERS PRIVATE LIMITEDU34300MH2021PTC364070Maharashtra16-07-2021
SUMAN ENTERTAINMENT AND MEDIA PRIVATE LIMITEDU92419MH2021PTC364087Maharashtra16-07-2021
ALMAI COSMETIC PRIVATE LIMITEDU24290PN2021PTC202697Maharashtra16-07-2021
FELEXON SECURITY & SERVICES PRIVATE LIMITEDU74999MH2021PTC364079Maharashtra16-07-2021
GETWELL LOGISTICS INDIA PRIVATE LIMITEDU63023MH2021PTC364074Maharashtra16-07-2021
SHIVAANSHASSETS PRIVATE LIMITEDU74999MH2021PTC364086Maharashtra16-07-2021
LEVEL FITTECH PRIVATE LIMITEDU92490MH2021PTC364048Maharashtra16-07-2021
UNIWIDE IMPEX PRIVATE LIMITEDU51909MH2021PTC364056Maharashtra16-07-2021
SHIVRAY CABLE AND INTERNATE SERVICES PRIVATE LIMITEDU64200PN2021PTC202701Maharashtra16-07-2021
ANFANG INDUSTRIES PRIVATE LIMITEDU29100PN2021PTC202715Maharashtra17-07-2021
FV ENGINEERING PRIVATE LIMITEDU29100PN2021PTC202723Maharashtra17-07-2021
ROKADESHWAR SHETKARI PRODUCER COMPANY LIMITEDU01100MH2021PTC364110Maharashtra17-07-2021
RAASS INFRAPLUS PRIVATE LIMITEDU45309PN2021PTC202710Maharashtra17-07-2021
PROGENIUS PAVEMENT SOLUTION PRIVATE LIMITEDU29200PN2021PTC202717Maharashtra17-07-2021
INFIKNITS PRIVATE LIMITEDU17100MH2021PTC364120Maharashtra17-07-2021
PROSTARM ENERGY SYSTEMS PRIVATE LIMITEDU29308PN2021PTC202708Maharashtra17-07-2021
ECOCOMPOST MACHINERIES PRIVATE LIMITEDU29309PN2021PTC202707Maharashtra17-07-2021
VAI COPILOT INDIA PRIVATE LIMITEDU72900MH2021FTC364126Maharashtra17-07-2021
THINKINGTRIBE COACHING & CONSULTING PRIVATE LIMITEDU80902PN2021PTC202718Maharashtra17-07-2021
SHRI SAKSHANDEVI FARMERS PRODUCER COMPANY LIMITEDU01100MH2021PTC364122Maharashtra17-07-2021
SHRIHARI VITTHAL MAHILA FARMER PRODUCER COMPANY LIMITEDU01100MH2021PTC364125Maharashtra17-07-2021
UNIWIDE XPRESS AND SHIPPING PRIVATE LIMITEDU52500MH2021PTC364134Maharashtra17-07-2021
NEEDHI DG PACKAGING PRIVATE LIMITEDU61200MH2021PTC364133Maharashtra17-07-2021
IWG OPERATIONS INDIA PRIVATE LIMITEDU71290MH2021FTC364104Maharashtra17-07-2021
GIRIJA CONSTRUCTION CONSULTANTS PRIVATE LIMITEDU45201MH2021PTC364128Maharashtra17-07-2021
LEAPVEN SOLUTIONS PRIVATE LIMITEDU74999MH2021PTC364127Maharashtra17-07-2021
COFOREVER PRIVATE LIMITEDU51909MH2021PTC364114Maharashtra17-07-2021
TRANS AERO LINK PRIVATE LIMITEDU62100MH2021PTC364130Maharashtra17-07-2021
SHREE KESHAV PACKAGING PRIVATE LIMITEDU27100MH2021PTC364124Maharashtra17-07-2021
TRENDING CRAZY PRIVATE LIMITEDU74999MH2021PTC364138Maharashtra17-07-2021
4PILLAR LOGISTICS AND WAREHOUSING INDIA PRIVATE LIMITEDU63030PN2021PTC202711Maharashtra17-07-2021
GOPADMA ORIGINS PRIVATE LIMITEDU24299PN2021PTC202706Maharashtra17-07-2021
PALI GARUDA PRIVATE LIMITEDU51909PN2021PTC202712Maharashtra17-07-2021
UP-ARROW BUSINESS CONSULTANCY PRIVATE LIMITEDU74999MH2021PTC364102Maharashtra17-07-2021
CREDITSAHI MARKETING AND CONSULTING PRIVATE LIMITEDU74999MH2021PTC364103Maharashtra17-07-2021
GATEWAY PLATFORMS PRIVATE LIMITEDU74999MH2021PTC364116Maharashtra17-07-2021
ADITYAGAURAV SOLVEX PRIVATE LIMITEDU15134MH2021PTC364135Maharashtra17-07-2021
BELIVE FOODS PRIVATE LIMITEDU15400PN2021PTC202713Maharashtra17-07-2021
SW ENTERPRISES PRIVATE LIMITEDU74999MH2021PTC364140Maharashtra17-07-2021
ZIPPMAT PRIVATE LIMITEDU51909MH2021PTC364119Maharashtra17-07-2021
SOUL ESSENCE (OPC) PRIVATE LIMITEDU74999PN2021OPC202720Maharashtra17-07-2021
FAROHAR NETWORK PRIVATE LIMITEDU64203MH2021PTC364105Maharashtra17-07-2021
JADHAV PATIL BROTHERS AGRO PRODUCER COMPANY LIMITEDU01100MH2021PTC364109Maharashtra17-07-2021
TRAVEL EXOTIC PRIVATE LIMITEDU63090MH2021PTC364117Maharashtra17-07-2021
COMPOSITE RESEARCH LAB PRIVATE LIMITEDU74999PN2021PTC202705Maharashtra17-07-2021
ANANTA AGRISEEDS SCIENCES PRIVATE LIMITEDU01100MH2021PTC364107Maharashtra17-07-2021
SHUBH PAYMENT SERVICES PRIVATE LIMITEDU74999PN2021PTC202709Maharashtra17-07-2021
BYC HEALTHCARE PRIVATE LIMITEDU85110PN2021PTC202722Maharashtra17-07-2021
INSPIRE TECHNOCORP PRIVATE LIMITEDU23209MH2021PTC364123Maharashtra17-07-2021
ARAYA PROPERTIES PRIVATE LIMITEDU45400MH2021PTC364106Maharashtra17-07-2021
VIVABIT INDIA PRIVATE LIMITEDU72900MH2021PTC364112Maharashtra17-07-2021
VIRANYU FARMER PRODUCER COMPANY LIMITEDU01100MH2021PTC364137Maharashtra17-07-2021
PDML LIFESCIENCES PRIVATE LIMITEDU33100PN2021PTC202719Maharashtra17-07-2021
DR. SHRIKRISHNA JOSHI HEALTHCARE PRIVATELIMITEDU85300MH2021PTC364115Maharashtra17-07-2021
MALCO TECHNOBAZZ PRIVATE LIMITEDU72900MH2021PTC364118Maharashtra17-07-2021
HEGURICHO TECHNOLOGY (OPC) PRIVATE LIMITEDU72900MH2021OPC364139Maharashtra17-07-2021
TATWAMASI FOUNDATIONU85300MH2021NPL364129Maharashtra17-07-2021
RJMS PAPER PRIVATE LIMITEDU21098MH2021PTC364121Maharashtra17-07-2021
JADEITE DIAM PRIVATE LIMITEDU36911MH2021PTC364132Maharashtra17-07-2021
CRAYONTEK CONSULTING PRIVATE LIMITEDU72900MH2021PTC364131Maharashtra17-07-2021
TARGET INSTITUTE OF MEDICAL EDUCATION AND RESEARCH PRIVATE LIMITEDU24200MH2021PTC364136Maharashtra17-07-2021
8 MILE SOLUTION PRIVATE LIMITEDU72900PN2021PTC202716Maharashtra17-07-2021
COSMEDIC SOLUTIONS PRIVATE LIMITEDU33309MH2021PTC364111Maharashtra17-07-2021
CONNECTED EVOLUTION INDIA (OPC) PRIVATE LIMITEDU80904MH2021OPC364108Maharashtra17-07-2021
ARABA AGRO FARMERS PRODUCER COMPANY LIMITEDU01100PN2021PTC202721Maharashtra17-07-2021
REVNNATH AGRITECH FARMERS PRODUCER COMPANY LIMITEDU01110MH2021PTC364113Maharashtra17-07-2021
LAHUNANA PRODUCER COMPANY LIMITEDU01110PN2021PTC202714Maharashtra17-07-2021
VOVNATH ENTERPRISES PRIVATE LIMITEDU28999PN2021PTC202726Maharashtra19-07-2021
TRADEBIZ SOLUTIONS PRIVATE LIMITEDU51909MH2021PTC364144Maharashtra19-07-2021
DWARKADHISH SEEDS INDUSTRIES PRIVATE LIMITEDU15490MH2021PTC364149Maharashtra19-07-2021
HITELLO TECH PRIVATE LIMITEDU74999PN2021PTC202728Maharashtra19-07-2021
AGRIVIN BIOCHEMICAL AND PHARMACEUTICALS INDIA PRIVATE LIMITEDU51909MH2021PTC364165Maharashtra19-07-2021
ILIOSFIT PHARMA PRIVATE LIMITEDU85110MH2021PTC364150Maharashtra19-07-2021
PRAVARDHAN SALES AND MARKETING PRIVATE LIMITEDU74999PN2021PTC202742Maharashtra19-07-2021
SIERRA VECTOR SERVICES PRIVATE LIMITEDU63030MH2021PTC364181Maharashtra19-07-2021
KAASHI DAIRY FARM PRIVATE LIMITEDU15490MH2021PTC364146Maharashtra19-07-2021
PUNE POULTRY-TECH PRIVATE LIMITEDU29308PN2021PTC202739Maharashtra19-07-2021
ARP HI-TECH INDUSTRIES PRIVATE LIMITEDU28999MH2021PTC364179Maharashtra19-07-2021
SOULDRIP ECOMMERCE (OPC) PRIVATE LIMITEDU74999PN2021OPC202740Maharashtra19-07-2021
VEPHA MULTITRADE PRIVATE LIMITEDU74999PN2021PTC202727Maharashtra19-07-2021
KENNIS VENTURES PRIVATE LIMITEDU74140MH2021PTC364164Maharashtra19-07-2021
J P THAKKAR (OPC) PRIVATE LIMITEDU51909MH2021OPC364158Maharashtra19-07-2021
YOGESHWARI VENTURES PRIVATE LIMITEDU63030MH2021PTC364185Maharashtra19-07-2021
AUMSAL PRIVATE LIMITEDU51909MH2021PTC364169Maharashtra19-07-2021
ZIPLINE LOGISTICS PRIVATE LIMITEDU63030PN2021PTC202738Maharashtra19-07-2021
AMOSKINLABS PRIVATE LIMITEDU51909MH2021PTC364189Maharashtra19-07-2021
AQ CFO SERVICES PRIVATE LIMITEDU74140MH2021PTC364192Maharashtra19-07-2021
NADAR & RITA FOODWORKS PRIVATE LIMITEDU15549MH2021PTC364155Maharashtra19-07-2021
VYADISH INDUSTRIES PRIVATE LIMITEDU51909MH2021PTC364197Maharashtra19-07-2021
BANDINI MAHILA NIDHI LIMITEDU65990MH2021PLN364142Maharashtra19-07-2021
MOXIE ELECTRICAL SOLUTIONS PRIVATE LIMITEDU31900MH2021PTC364196Maharashtra19-07-2021
SHREEKANTH NIDHI LIMITEDU65990MH2021PLN364201Maharashtra19-07-2021
STERLING AND WILSON ENELX E-MOBILITY PRIVATE LIMITEDU31900MH2021PTC364170Maharashtra19-07-2021
VERTIKLY CLOUD LIMITEDU72900MH2021PLC364188Maharashtra19-07-2021
MAQUETTE INFRA PRIVATE LIMITEDU45309MH2021PTC364163Maharashtra19-07-2021
WEALTHKART INSURANCE BROKING PRIVATE LIMITEDU66010MH2021PTC364190Maharashtra19-07-2021
VP MULTISERVICES PRIVATE LIMITEDU72900MH2021PTC364180Maharashtra19-07-2021
SHANTIKALP PRIVATE LIMITEDU31909PN2021PTC202730Maharashtra19-07-2021
COLLABSYS IT SOLUTIONS (OPC) PRIVATE LIMITEDU72900PN2021OPC202744Maharashtra19-07-2021
ALZOHAR TECHNOLOGIES PRIVATE LIMITEDU72900PN2021PTC202729Maharashtra19-07-2021
SOVAY PHARMA PRIVATE LIMITEDU33100MH2021PTC364161Maharashtra19-07-2021
BHOKARMAI FARMS FARMER PRODUCER COMPANY LIMITEDU01100MH2021PTC364162Maharashtra19-07-2021
TRIDEVI INFO TECHNOLOGIES PRIVATE LIMITEDU72900PN2021PTC202734Maharashtra19-07-2021
PRABHAT GOAT AGRI RESEARCH FOUNDATIONU85300MH2021NPL364145Maharashtra19-07-2021
SURYAKANYA AGRO INFRA PRIVATE LIMITEDU45309MH2021PTC364183Maharashtra19-07-2021
SACHETAN YUVA FOUNDATIONU85300MH2021NPL364141Maharashtra19-07-2021
MASSIVE ENERGY & GAS PRIVATE LIMITEDU23200MH2021PTC364172Maharashtra19-07-2021
BUTTE AGRO VENTURE FARMER PRODUCER COMPANY LIMITEDU01100MH2021PTC364184Maharashtra19-07-2021
SOFTWILL TECHNOLOGIES PRIVATE LIMITEDU72900PN2021PTC202741Maharashtra19-07-2021
GOD WILLS AFFORDABLE HOUSING DEVELOPMENTFEDERATION INDIAU85300MH2021NPL364152Maharashtra19-07-2021
HEALCARE LIFESCIENCES PRIVATE LIMITEDU33100MH2021PTC364176Maharashtra19-07-2021
KIA BIOPHARMA TECHNOLOGIES PRIVATE LIMITEDU24239MH2021PTC364174Maharashtra19-07-2021
GOLDEN SANDS INFRATECH PRIVATE LIMITEDU45500MH2021PTC364198Maharashtra19-07-2021
EDUCUL SPORTS FOUNDATIONU85300MH2021NPL364186Maharashtra19-07-2021
NAVBHARAT MART PRIVATE LIMITEDU72900PN2021PTC202743Maharashtra19-07-2021
YASHVANTI AGRITECH PRODUCER COMPANY LIMITEDU01100MH2021PTC364175Maharashtra19-07-2021
AGRONNATI COLDWAYS AGRO PRODUCER COMPANYLIMITEDU01100MH2021PTC364194Maharashtra19-07-2021
SHREE BALAJI DIAGNOSTICS PRIVATE LIMITEDU85300MH2021PTC364157Maharashtra19-07-2021
UPGAZE INFORMATICS PRIVATE LIMITEDU85300PN2021PTC202731Maharashtra19-07-2021
GSKM PRIVATE LIMITEDU45400MH2021PTC364154Maharashtra19-07-2021
JYOTSNAI HEALTHCARE PRIVATE LIMITEDU85300MH2021PTC364166Maharashtra19-07-2021
ECOORG SYNTHESIS PRIVATE LIMITEDU24239MH2021PTC364147Maharashtra19-07-2021
MAHANT NAGARAJABABA PRIVATE LIMITEDU80900MH2021PTC364156Maharashtra19-07-2021
RAMANISH FOUNDATIONU80902MH2021NPL364195Maharashtra19-07-2021
SEELINGO (INDIA) PRIVATE LIMITEDU51900MH2021PTC364171Maharashtra19-07-2021
GORAYS CONSULTANCY SERVICES (OPC) PRIVATE LIMITEDU80902MH2021OPC364178Maharashtra19-07-2021
VEGA STAR SHIP MANAGEMENT PRIVATE LIMITEDU74999MH2021PTC364148Maharashtra19-07-2021
NDT GLOBAL INTEGRATED TECHNOLOGIES PRIVATE LIMITEDU74999MH2021PTC364167Maharashtra19-07-2021
SHREE BALAJI TECHNO COATINGS PRIVATE LIMITEDU24299PN2021PTC202735Maharashtra19-07-2021
ENERGEVO SPARK MEGHALAYA PRIVATE LIMITEDU40106MH2021PTC364173Maharashtra19-07-2021
EKTA-DRAKSH UTPADAK FARMER PRODUCER COMPANY LIMITEDU01100PN2021PTC202725Maharashtra19-07-2021
NESTEX PRIVATE LIMITEDU74999MH2021PTC364191Maharashtra19-07-2021
EDGE NODE FINANCIAL TECHNOLOGY PRIVATE LIMITEDU74999MH2021PTC364200Maharashtra19-07-2021
DEODAR VIEW PRIVATE LIMITEDU55101MH2021PTC364177Maharashtra19-07-2021
ADEJAY ENERGIES PRIVATE LIMITEDU74999MH2021PTC364151Maharashtra19-07-2021
INSTALOGIC SOLUTIONS PRIVATE LIMITEDU72200MH2021PTC364193Maharashtra19-07-2021
BORN EVENT AND ENTERTAINMENT PRIVATE LIMITEDU92190MH2021PTC364199Maharashtra19-07-2021
ASMICONNECTS PRIVATE LIMITEDU74999MH2021PTC364160Maharashtra19-07-2021
FIBERLEAN TECHNOLOGIES INDIA PRIVATE LIMITEDU36999PN2021PTC202737Maharashtra19-07-2021
WHITEFIELD BIO PRODUCTS PRIVATE LIMITEDU24299MH2021PTC364143Maharashtra19-07-2021
CAMBIRDGE DIGITAL SOLUTIONS PRIVATE LIMITEDU74999MH2021PTC364182Maharashtra19-07-2021
D-TECH INDUSTRIES PRIVATE LIMITEDU27200PN2021PTC202736Maharashtra19-07-2021
NUCLEUS ENVIRO (OPC) PRIVATE LIMITEDU74999PN2021OPC202733Maharashtra19-07-2021
PRISTYNCR SOLUTIONS PRIVATE LIMITEDU73100MH2021PTC364187Maharashtra19-07-2021
RATNAMRUT AGRO FARMER PRODUCER COMPANY LIMITEDU01400MH2021PTC364159Maharashtra19-07-2021
RAJRATNA ERECTORS PRIVATE LIMITEDU45200PN2021PTC202732Maharashtra19-07-2021
ASN GUNOI WASTE MGT PRIVATE LIMITEDU90000MH2021PTC364153Maharashtra19-07-2021
FARMLEAD FARMERS PRODUCER COMPANY LIMITEDU01110PN2021PTC202724Maharashtra19-07-2021
KAMAKSHA SEEDS PRIVATE LIMITEDU01409MH2021PTC364168Maharashtra19-07-2021
WORLDTRADE ARCHIMEDIA (OPC) PRIVATE LIMITEDU72900PN2021OPC202772Maharashtra20-07-2021
ITVIDPRA SOFTWARE SOLUTIONS PRIVATE LIMITEDU72900PN2021PTC202771Maharashtra20-07-2021
VJP INTERNATIONAL MULTISERVICES PRIVATE LIMITEDU74999MH2021PTC364206Maharashtra20-07-2021
AUZI REALSTAKE PRIVATE LIMITEDU45400MH2021PTC364248Maharashtra20-07-2021
STELLAR CIVIL ENGINEERS PRIVATE LIMITEDU74999MH2021PTC364212Maharashtra20-07-2021
PANTHER NAILS TECHNOLOGIES PRIVATE LIMITEDU72900PN2021PTC202773Maharashtra20-07-2021
HERTZARC (OPC) PRIVATE LIMITEDU32300PN2021OPC202775Maharashtra20-07-2021
WCF PHARMACEUTICALS PRIVATE LIMITEDU24234MH2021PTC364266Maharashtra20-07-2021
TECHNOSOUL VENTURES PRIVATE LIMITEDU72900PN2021PTC202782Maharashtra20-07-2021
KARYA HEALTH AND BIOTECH PRIVATE LIMITEDU33100MH2021PTC364252Maharashtra20-07-2021
PYRITE SKY MINES & MINERALS PRIVATE LIMITEDU13209MH2021PTC364207Maharashtra20-07-2021
AARYA STAFFING & SERVICES PRIVATE LIMITEDU74999MH2021PTC364213Maharashtra20-07-2021
YELLOW SAPPHIRE HOSPITALITY (OPC) PRIVATE LIMITEDU55200MH2021OPC364275Maharashtra20-07-2021
SUYASH LIFESCIENCES PRIVATE LIMITEDU24290MH2021PTC364223Maharashtra20-07-2021
DARSHAN DIAMOND KEY INFRA PRIVATE LIMITEDU45400PN2021PTC202759Maharashtra20-07-2021
TECH GLOBAL BUSINESS ENABLERS PRIVATE LIMITEDU74999MH2021PTC364219Maharashtra20-07-2021
OMJAA PRIVATE LIMITEDU74999MH2021PTC364236Maharashtra20-07-2021
METRO PHOENIX HOSPITALS PRIVATE LIMITEDU85110MH2021PTC364244Maharashtra20-07-2021
CHEERSBRO PRIVILEGE PRIVATE LIMITEDU74999MH2021PTC364267Maharashtra20-07-2021
SHREE KAMLA AYURVED HOSPITAL & RESEARCH CENTRE PRIVATE LIMITEDU85110PN2021PTC202750Maharashtra20-07-2021
INSTADUKAN BUSINESS SERVICES PRIVATE LIMITEDU74999MH2021PTC364226Maharashtra20-07-2021
BONDWORKS PRIVATE LIMITEDU74999MH2021PTC364238Maharashtra20-07-2021
KARRAT FINE CHEM ( INDIA) PRIVATE LIMITEDU24290PN2021PTC202757Maharashtra20-07-2021
ASSR MEDI SERVICES PRIVATE LIMITEDU85110PN2021PTC202778Maharashtra20-07-2021
CHAKRAPALI PRODUCER COMPANY LIMITEDU01100MH2021PTC364209Maharashtra20-07-2021
SUNBLONDE JEWELS PRIVATE LIMITEDU36911MH2021PTC364264Maharashtra20-07-2021
RAHE GUJARATI SNACKS PRIVATE LIMITEDU51220MH2021PTC364285Maharashtra20-07-2021
SHRUTVA HEALTHCARE PRIVATE LIMITEDU85300MH2021PTC364221Maharashtra20-07-2021
KAYBEE CONNECT PRIVATE LIMITEDU70103MH2021PTC364218Maharashtra20-07-2021
YAARON FASHION LIMITEDU18109MH2021PLC364225Maharashtra20-07-2021
PDC DATA CENTRE PRIVATE LIMITEDU72900MH2021FTC364204Maharashtra20-07-2021
VEDCOMSPOC PRIVATE LIMITEDU72900MH2021FTC364233Maharashtra20-07-2021
RAPIDTEZZ FASHION PRIVATE LIMITEDU52100MH2021PTC364246Maharashtra20-07-2021
AD MECH PRODUCTS PRIVATE LIMITEDU27310PN2021PTC202765Maharashtra20-07-2021
KEA BEAUTY PRIVATE LIMITEDU52100MH2021PTC364279Maharashtra20-07-2021
BMDP DATA PARKS PRIVATE LIMITEDU72900MH2021FTC364208Maharashtra20-07-2021
RAMUGI TRADING PRIVATE LIMITEDU27200MH2021PTC364231Maharashtra20-07-2021
CEGP FOUNDATIONU85300PN2021NPL202781Maharashtra20-07-2021
CONVENTEX PHARMACEUTICALS PRIVATE LIMITEDU52100PN2021PTC202769Maharashtra20-07-2021
INSPRIZO TECHNOLOGIES PRIVATE LIMITEDU72900MH2021PTC364210Maharashtra20-07-2021
INFRALYTICS TECHNOLOGIES PRIVATE LIMITEDU72900MH2021PTC364250Maharashtra20-07-2021
GIRI-TECH SYSTEMS PRIVATE LIMITEDU29200MH2021PTC364274Maharashtra20-07-2021
FINE FETTLE WELLNESS PRIVATE LIMITEDU52310PN2021PTC202746Maharashtra20-07-2021
BUILDINGBASICS (OPC) PRIVATE LIMITEDU45309PN2021OPC202763Maharashtra20-07-2021
HAELIX HEALTHCARE PRIVATE LIMITEDU85100MH2021PTC364269Maharashtra20-07-2021
KPRP ENTERPRISES PRIVATE LIMITEDU52110MH2021PTC364241Maharashtra20-07-2021
DE FAIR HOMES PRIVATE LIMITEDU45309MH2021PTC364282Maharashtra20-07-2021
TECHNORETAIL PRIVATE LIMITEDU72900MH2021PTC364258Maharashtra20-07-2021
VPN ENGINEERS PRIVATE LIMITEDU29100PN2021PTC202761Maharashtra20-07-2021
EKLINGJI TECHNOLOGIES PRIVATE LIMITEDU72900MH2021PTC364276Maharashtra20-07-2021
COSTAFX TECHNOLOGIES PRIVATE LIMITEDU72900MH2021PTC364280Maharashtra20-07-2021
LEAPWORTH TECHNOLOGIES PRIVATE LIMITEDU29308PN2021PTC202786Maharashtra20-07-2021
MAHIRAJ DEVELOPERS PRIVATE LIMITEDU45309PN2021PTC202774Maharashtra20-07-2021
KC SPORTS EVENTS PRIVATE LIMITEDU92419MH2021PTC364228Maharashtra20-07-2021
SHRIDATTAYA AUTOELECTRONICS PRIVATE LIMITEDU29309MH2021PTC364240Maharashtra20-07-2021
EVSCIENT PRIVATE LIMITEDU29309MH2021PTC364222Maharashtra20-07-2021
STARECOEARTH PRIVATE LIMITEDU31103PN2021PTC202748Maharashtra20-07-2021
NUOS MEDTECH PRIVATE LIMITEDU31900MH2021PTC364234Maharashtra20-07-2021
DELOGUE INDIA PRIVATE LIMITEDU72900PN2021FTC202747Maharashtra20-07-2021
AVOX ELECTRICK PRIVATE LIMITEDU31900MH2021PTC364254Maharashtra20-07-2021
HEALTHLEVEL INDIA PRIVATE LIMITEDU72900PN2021FTC202783Maharashtra20-07-2021
K MORDANI CONSTRUCTIONS PRIVATE LIMITEDU70109MH2021PTC364239Maharashtra20-07-2021
ACEQUARE REALTY PRIVATE LIMITEDU70109MH2021PTC364259Maharashtra20-07-2021
PRB JADHAV INFRA PRIVATE LIMITEDU70109MH2021PTC364283Maharashtra20-07-2021
S GADEKAR FARMER PRODUCER COMPANY LIMITEDU01400MH2021PTC364243Maharashtra20-07-2021
SHEWALE TOWERS PRIVATE LIMITEDU70109PN2021PTC202784Maharashtra20-07-2021
AGRANI KRUSHI PRODUCER COMPANY LIMITEDU01111PN2021PTC202780Maharashtra20-07-2021
ONS GLOBAL MEDIA PRIVATE LIMITEDU92490MH2021PTC364211Maharashtra20-07-2021
ALTRUSIA GLOBAL EVENTS PRIVATE LIMITEDU92490MH2021PTC364277Maharashtra20-07-2021
KHOPESHWAR AGRO PRODUCER COMPANY LIMITEDU01110MH2021PTC364242Maharashtra20-07-2021
MAHESHA FEEDS PRIVATE LIMITEDU01110MH2021PTC364270Maharashtra20-07-2021
SHIVRAMBUA PRODUCER COMPANY LIMITEDU01110MH2021PTC364278Maharashtra20-07-2021
VANDHAN KRUSHI VIKAS FARMER PRODUCER COMPANY LIMITEDU01110MH2021PTC364227Maharashtra20-07-2021
HAJI YASEEN FARMER PRODUCER COMPANY LIMITEDU01110MH2021PTC364235Maharashtra20-07-2021
BALAGHAT AGRO FARMERS PRODUCER COMPANY LIMITEDU01110MH2021PTC364237Maharashtra20-07-2021
PODDAR BUILDCON PRIVATE LIMITEDU70200MH2021PTC364215Maharashtra20-07-2021
PODDAR BUILDTECH PRIVATE LIMITEDU70200MH2021PTC364217Maharashtra20-07-2021
TELNYX INDIA PRIVATE LIMITEDU74999PN2021FTC202754Maharashtra20-07-2021
EMBRACIVE TECHNOLOGIES PRIVATE LIMITEDU74999MH2021PTC364281Maharashtra20-07-2021
VKSOL (OPC) PRIVATE LIMITEDU74999PN2021OPC202770Maharashtra20-07-2021
DRINKLIFE PRIVATE LIMITEDU15400PN2021PTC202758Maharashtra20-07-2021
KHIMSARA VENTURES PRIVATE LIMITEDU36990MH2021PTC364230Maharashtra20-07-2021
AMPM LOGISTICS TRANS PRIVATE LIMITEDU60232MH2021PTC364268Maharashtra20-07-2021
SVAIDYA AGRI DEVELOPMENT AND FOOD PROCESSING PRIVATE LIMITEDU15400PN2021PTC202756Maharashtra20-07-2021
WONDERBERRY AGRI VENTURES PRIVATE LIMITEDU01100MH2021PTC364220Maharashtra20-07-2021
JAI SHRI. VIDNYANESHWAR AGRO PRODUCER COMPANY LIMITEDU01100MH2021PTC364256Maharashtra20-07-2021
ETHANE HEALTHCARE PRIVATE LIMITEDU74999PN2021PTC202779Maharashtra20-07-2021
VYAPAR AADHAR PRIVATE LIMITEDU74999PN2021PTC202745Maharashtra20-07-2021
SHIVSHILP SELF CARE PRIVATE LIMITEDU74999PN2021PTC202777Maharashtra20-07-2021
SHRI JAI GANESH SHIPPING & LOGISTICS PRIVATE LIMITEDU63030MH2021PTC364224Maharashtra20-07-2021
PARISUNRISE MANAGEMENT PRIVATE LIMITEDU74999PN2021PTC202755Maharashtra20-07-2021
KRUSHISANSKRITI SEEDS PRIVATE LIMITEDU01100MH2021PTC364257Maharashtra20-07-2021
FIKARLESS TECHNOLOGIES PRIVATE LIMITEDU74999PN2021PTC202768Maharashtra20-07-2021
NIITROCHEM PHARMA PRIVATE LIMITEDU24299MH2021PTC364205Maharashtra20-07-2021
REVEDA HINDUSTAN PRIVATE LIMITEDU15490MH2021PTC364273Maharashtra20-07-2021
STRADELINKS (OPC) PRIVATE LIMITEDU51909MH2021OPC364232Maharashtra20-07-2021
SHALINA PHARMACEUTICALS PRIVATE LIMITEDU24299MH2021PTC364251Maharashtra20-07-2021
MY EARTH ECO TECH PRIVATE LIMITEDU37200MH2021PTC364202Maharashtra20-07-2021
DHYEYA MULTISTATE NIDHI LIMITEDU65929PN2021PLN202762Maharashtra20-07-2021
FINTEK LIFETRUE TECHNOLOGIES PRIVATE LIMITEDU24299MH2021PTC364265Maharashtra20-07-2021
ART-CHIVES LIFESTYLE PRIVATE LIMITEDU51909MH2021PTC364284Maharashtra20-07-2021
RADSAM TRADING (OPC) PRIVATE LIMITEDU51909MH2021OPC364263Maharashtra20-07-2021
ADRISHA BIOLOGIQUE PRIVATE LIMITEDU01100PN2021PTC202752Maharashtra20-07-2021
PRELIFE PHARMA PRIVATE LIMITEDU24299PN2021PTC202749Maharashtra20-07-2021
CHAING OUR LIFE STYLE PRIVATE LIMITEDU51909MH2021PTC364214Maharashtra20-07-2021
ARABO PRIVATE LIMITEDU51909MH2021PTC364229Maharashtra20-07-2021
MEDBIOSURGE REMEDIES PRIVATE LIMITEDU24299PN2021PTC202776Maharashtra20-07-2021
CLEAN MAX VAYU PRIVATE LIMITEDU40106MH2021PTC364216Maharashtra20-07-2021
VISHNUSHRI SIZERS PRIVATE LIMITEDU01100PN2021PTC202751Maharashtra20-07-2021
CLEAN MAX ZEUS PRIVATE LIMITEDU40106MH2021PTC364247Maharashtra20-07-2021
RED CULTURE MEDIA VENTURES PRIVATE LIMITEDU74300MH2021PTC364249Maharashtra20-07-2021
MATRUCHHAYA WELLNESS PRIVATE LIMITEDU24299PN2021PTC202767Maharashtra20-07-2021
BHAVVESH GROCERY BASKET PRIVATE LIMITEDU51909PN2021PTC202787Maharashtra20-07-2021
SHREE SOMESHWAR COOPERATE MULTIPURPOSE NIDHI LIMITEDU65990PN2021PLN202753Maharashtra20-07-2021
BHARATKRUSHI SEVA PRIVATE LIMITEDU01100PN2021PTC202760Maharashtra20-07-2021
HAZEL TRADEIMPEX PRIVATE LIMITEDU51909PN2021PTC202764Maharashtra20-07-2021
ARADH BUILDERS AND DEVELOPERS PRIVATE LIMITEDU45201MH2021PTC364203Maharashtra20-07-2021
ANKUSH VIJAY INFRASTRUCTURE PRIVATE LIMITEDU45201MH2021PTC364245Maharashtra20-07-2021
SOV INDIA ASSET MANAGEMENT PRIVATE LIMITEDU67190MH2021FTC364262Maharashtra20-07-2021
AAI SHREE ASHAPURAA PARIVAR ASSOCIATIONU85300MH2021NPL364253Maharashtra20-07-2021
VEERACHI INTERNATIONAL PRIVATE LIMITEDU25209PN2021PTC202766Maharashtra20-07-2021
PRO RISE AND SHINE FOUNDATIONU85300MH2021NPL364255Maharashtra20-07-2021
HALLS TEXTILES PRIVATE LIMITEDU18101MH2021PTC364272Maharashtra20-07-2021
RODE RESEARCH FOUNDATIONU80902PN2021NPL202785Maharashtra20-07-2021
SUNTECK FOUNDATIONU85300MH2021NPL364271Maharashtra20-07-2021
MODECOR INDUSTRIES PRIVATE LIMITEDU36101MH2021PTC364313Maharashtra21-07-2021
FOREFINGER CONSULTANCY SERVICES PRIVATE LIMITEDU72900PN2021PTC202797Maharashtra21-07-2021
RHYTHM STORY STUDIOS (OPC) PRIVATE LIMITEDU80902PN2021OPC202803Maharashtra21-07-2021
MHTEEB PRIVATE LIMITEDU80903MH2021PTC364317Maharashtra21-07-2021
RUFFDE PRIVATE LIMITEDU55209MH2021PTC364333Maharashtra21-07-2021
SANKIRAN AGRO INDIA PRIVATE LIMITEDU15400PN2021PTC202788Maharashtra21-07-2021
SARVOTTAAM INDIA FOOD AND SPICES PRIVATELIMITEDU15400MH2021PTC364288Maharashtra21-07-2021
ZSCHIMMER & SCHWARZ INDIA PRIVATE LIMITEDU24290PN2021FTC202794Maharashtra21-07-2021
SAMPATRAO DESHMUKH EDUCATION FOUNDATIONU80902PN2021NPL202808Maharashtra21-07-2021
BUSYJOY TECHNOLOGY PRIVATE LIMITEDU72900PN2021PTC202802Maharashtra21-07-2021
FRESHEZY FOODTECH PRIVATE LIMITEDU15400MH2021PTC364340Maharashtra21-07-2021
SWIKRITI HOSPITALITY PRIVATE LIMITEDU55209MH2021PTC364318Maharashtra21-07-2021
T VEDANT AGRO PRODUCER COMPANY LIMITEDU01100MH2021PTC364296Maharashtra21-07-2021
MAHESHWARI DECORATIVE FURNITURE & FIXTURES LIMITEDU36109MH2021PLC364294Maharashtra21-07-2021
PINGALE FOOD PROCESSING & PLAST MANUFACTURING PRIVATE LIMITEDU15490MH2021PTC364291Maharashtra21-07-2021
VERTICON TECHNOLOGIES PRIVATE LIMITEDU72200MH2021PTC364356Maharashtra21-07-2021
AGRIHEALTH AGRO PRODUCTS PRIVATE LIMITEDU15490MH2021PTC364298Maharashtra21-07-2021
SANATIVE AGRO PRIVATE LIMITEDU01100MH2021PTC364297Maharashtra21-07-2021
RADAL INFOTECH PRIVATE LIMITEDU74999MH2021PTC364290Maharashtra21-07-2021
WE ON SHIPPING & LOGISTICS PRIVATE LIMITEDU61100MH2021PTC364309Maharashtra21-07-2021
INTERBUILD DISTRIBUTION INDIA PRIVATE LIMITEDU36990MH2021FTC364289Maharashtra21-07-2021
SHREE VENKATESH IMPORT AND EXPORT PRIVATE LIMITEDU51909MH2021PTC364295Maharashtra21-07-2021
NAGPUR GI SCIENCES PRIVATE LIMITEDU85110MH2021PTC364334Maharashtra21-07-2021
TRANSFLY SHIPPING AND LOGISTICS PRIVATE LIMITEDU63030MH2021PTC364305Maharashtra21-07-2021
OPPORTUNE HOSPITALITY AND TRADING INDIA PRIVATE LIMITEDU51909MH2021PTC364303Maharashtra21-07-2021
JANKI FRESHYARDS PRIVATE LIMITEDU01100MH2021PTC364314Maharashtra21-07-2021
SHALIBHADRA HEALTHCARE PRIVATE LIMITEDU51909MH2021PTC364341Maharashtra21-07-2021
BLACK LION ENTERPRISES PRIVATE LIMITEDU74999PN2021PTC202792Maharashtra21-07-2021
MHB AGROTECH PRIVATE LIMITEDU01100MH2021PTC364331Maharashtra21-07-2021
DIVJAI DIGITAL SOLUTIONS PRIVATE LIMITEDU74999MH2021PTC364292Maharashtra21-07-2021
DWARKADHISH FRUITS AND VEGETABLES PROCESSING INDUSTRIES PRIVATE LIMITEDU15490MH2021PTC364349Maharashtra21-07-2021
YASHSHRI AGRO PRODUCER COMPANY LIMITEDU01100MH2021PTC364338Maharashtra21-07-2021
GENETIX MEDICAL SERVICES PRIVATE LIMITEDU51909MH2021PTC364286Maharashtra21-07-2021
ASABE AND SONS TRADING (OPC) PRIVATE LIMITEDU51909PN2021OPC202789Maharashtra21-07-2021
OTTOFLAME TECHNOLOGIES PRIVATE LIMITEDU27320MH2021PTC364329Maharashtra21-07-2021
ATSANG AGRO PRIVATE LIMITEDU15549MH2021PTC364348Maharashtra21-07-2021
ARTISTIC HUMAN FOUNDATIONU85300MH2021NPL364351Maharashtra21-07-2021
VERSCHLUSS INDIA PRIVATE LIMITEDU28999PN2021PTC202804Maharashtra21-07-2021
STEPCO PRIVATE LIMITEDU01100PN2021PTC202806Maharashtra21-07-2021
SHRI STUBH NIDHI LIMITEDU65990MH2021PLN364287Maharashtra21-07-2021
SMART PUMPER TECHENGG INTEGRATED SERVICES PRIVATE LIMITEDU29100MH2021FTC364355Maharashtra21-07-2021
POULTRYMANONFARM TRADING PRIVATE LIMITEDU01100PN2021PTC202809Maharashtra21-07-2021
DEEPMAYA AUTOMATION INDIA PRIVATE LIMITEDU28999PN2021PTC202807Maharashtra21-07-2021
KD SMART BHUMIPUTRA PRIVATE LIMITEDU45309MH2021PTC364323Maharashtra21-07-2021
ANA LABORATORIES PRIVATE LIMITEDU73100MH2021PTC364352Maharashtra21-07-2021
JIVASEVA FOUNDATIONU85300PN2021NPL202800Maharashtra21-07-2021
PRALHADPUR NIDHI LIMITEDU65990MH2021PLN364316Maharashtra21-07-2021
VISHVESH INVESTMENT PRIVATE LIMITEDU65999MH2021PTC364301Maharashtra21-07-2021
VARSHDIP PUMPS (I) PRIVATE LIMITEDU29100PN2021PTC202793Maharashtra21-07-2021
DHANADA SAVING NIDHI LIMITEDU65991MH2021PLN364310Maharashtra21-07-2021
PANEL PRODUCTS PRIVATE LIMITEDU20296PN2021PTC202805Maharashtra21-07-2021
ADUNIQUE FIRE PROTECTION PRIVATE LIMITEDU29309PN2021PTC202798Maharashtra21-07-2021
RUTRISH ENGINEERING PRIVATE LIMITEDU29256MH2021PTC364322Maharashtra21-07-2021
REEBO ENTERPRISES (OPC) PRIVATE LIMITEDU52100MH2021OPC364335Maharashtra21-07-2021
CAPITAL-K INDIA ADVISORS PRIVATE LIMITEDU65999PN2021PTC202801Maharashtra21-07-2021
CERTEC INDIA PRIVATE LIMITEDU72900MH2021FTC364321Maharashtra21-07-2021
MASTERWORK EDUCATION PRIVATE LIMITEDU80301MH2021PTC364306Maharashtra21-07-2021
NARAYAN BUILDEX INFRA LIMITEDU45400MH2021PTC364304Maharashtra21-07-2021
TWG EDUCATION PRIVATE LIMITEDU80301MH2021PTC364311Maharashtra21-07-2021
ARMILLARY SECURITY SERVICES PRIVATE LIMITEDU74920MH2021PTC364339Maharashtra21-07-2021
INTREPID REAL ESTATE CONSULTANCY SERVICES PRIVATE LIMITEDU45400MH2021PTC364320Maharashtra21-07-2021
ERA CAPITAL PRIVATE LIMITEDU67100PN2021PTC202795Maharashtra21-07-2021
JAY SHEWA BIOFUELS PRIVATE LIMITEDU23200MH2021PTC364307Maharashtra21-07-2021
SMDC DATA PARKS PRIVATE LIMITEDU72900MH2021FTC364343Maharashtra21-07-2021
SWIMIN IT SOLUTIONS PRIVATE LIMITEDU72900MH2021PTC364308Maharashtra21-07-2021
SAFEASIA POWER PRIVATE LIMITEDU31900PN2021PTC202796Maharashtra21-07-2021
GDC DATA CENTRE PRIVATE LIMITEDU72900MH2021FTC364345Maharashtra21-07-2021
MEDCLAY HEALTHCARE PRIVATE LIMITEDU52310PN2021PTC202799Maharashtra21-07-2021
TIMEREMIT PRIVATE LIMITEDU72900MH2021PTC364293Maharashtra21-07-2021
VIJAYLAXMI AGROFERT PRIVATE LIMITEDU24200MH2021PTC364330Maharashtra21-07-2021
WTC INTELLIGENCE (OPC) PRIVATE LIMITEDU31909MH2021OPC364344Maharashtra21-07-2021
BONDBAZAAR SECURITIES PRIVATE LIMITEDU67100MH2021PTC364337Maharashtra21-07-2021
HINDAVI SOFTTECH PRIVATE LIMITEDU72900MH2021PTC364299Maharashtra21-07-2021
BEACOT PRIVATE LIMITEDU80302MH2021PTC364325Maharashtra21-07-2021
PIN TO PIN SOFTWARE SOLUTIONS PRIVATE LIMITEDU72900MH2021PTC364326Maharashtra21-07-2021
NBYTE ENTERPRISES PRIVATE LIMITEDU72900MH2021PTC364319Maharashtra21-07-2021
BODKHEINSTITUTE (OPC) PRIVATE LIMITEDU80900MH2021OPC364350Maharashtra21-07-2021
NUTRAZYME BIOPHARMA PRIVATE LIMITEDU24230MH2021PTC364324Maharashtra21-07-2021
NIKKI ROY TECHNOLOGY PRIVATE LIMITEDU80900PN2021PTC202790Maharashtra21-07-2021
ACG UNIVERSAL CAPSULES PRIVATE LIMITEDU24230MH2021PTC364336Maharashtra21-07-2021
GESA RELIABLE INFOTECH PRIVATE LIMITEDU72900MH2021PTC364346Maharashtra21-07-2021
ABHYASU TECHNOLOGIES PRIVATE LIMITEDU80901PN2021PTC202791Maharashtra21-07-2021
MANOJ MUNTASHIR ENTERTAINMENT PRIVATE LIMITEDU92190MH2021PTC364342Maharashtra21-07-2021
PURPLE PETAL INVEST PRIVATE LIMITEDU72900MH2021PTC364347Maharashtra21-07-2021
SIDDHIVINAYAK MEDICAL CARE INDIA PRIVATELIMITEDU33110MH2021PTC364327Maharashtra21-07-2021
BERSERK MANAGEMENT PRIVATE LIMITEDU15100MH2021PTC364315Maharashtra21-07-2021
EARTHS TRULY PRIVATE LIMITEDU52399MH2021PTC364353Maharashtra21-07-2021
VIBE REAL ESTATE ADVISORY PRIVATE LIMITEDU70109MH2021PTC364354Maharashtra21-07-2021
REZILIENZE ART AND ENTERTAINMENT PRIVATELIMITEDU92419MH2021PTC364302Maharashtra21-07-2021
AMU AAKHA EK SE FARMERS PRODUCER COMPANYLIMITEDU01400MH2021PTC364300Maharashtra21-07-2021
AGROFIT FERTILISERS PRIVATE LIMITEDU01110MH2021PTC364312Maharashtra21-07-2021
HARSIL AND PARISIL PRIVATE LIMITEDU24290MH2021PTC364328Maharashtra21-07-2021
SANT AMARDAS MAHARAJ FARMERS PRODUCER COMPANY LIMITEDU01409MH2021PTC364332Maharashtra21-07-2021
MECH TECHNIC INFRA PRIVATE LIMITEDU10100PN2021PTC202816Maharashtra22-07-2021
PHARMALINK PHARMACEUTICALS PRIVATE LIMITEDU51909MH2021PTC364370Maharashtra22-07-2021
RABONIC HEALTHCARE PRIVATE LIMITEDU51909MH2021PTC364388Maharashtra22-07-2021
VOLKS VITA PRIVATE LIMITEDU51909MH2021PTC364408Maharashtra22-07-2021
COSMIC BIASHARA ENTERPRISES PRIVATE LIMITEDU51909MH2021PTC364432Maharashtra22-07-2021
LOGIMARINE SERVICES PRIVATE LIMITEDU63040MH2021PTC364374Maharashtra22-07-2021
GUD SKIN PRIVATE LIMITEDU74999MH2021PTC364364Maharashtra22-07-2021
RISTEL CABS PRIVATE LIMITEDU63040MH2021PTC364433Maharashtra22-07-2021
CATER TECHNOLOGIES (OPC) PRIVATE LIMITEDU74999MH2021OPC364377Maharashtra22-07-2021
PRITADE SOLUTION PRIVATE LIMITEDU51909PN2021PTC202838Maharashtra22-07-2021
BIGWINGS MOTOCROP INDIA PRIVATE LIMITEDU74999MH2021PTC364395Maharashtra22-07-2021
DESIGN MANIFESTO (OPC) PRIVATE LIMITEDU80904PN2021OPC202832Maharashtra22-07-2021
POACEAE LIFEDESIGNS (OPC) PRIVATE LIMITEDU74999MH2021OPC364456Maharashtra22-07-2021
SAFFRON HOLIDAYS INDIA (OPC) PRIVATE LIMITEDU63090PN2021OPC202810Maharashtra22-07-2021
JETONE BROADBAND PRIVATE LIMITEDU64100MH2021PTC364371Maharashtra22-07-2021
OMSAI ENTERPRISES AND WORKS PRIVATE LIMITEDU40106MH2021PTC364387Maharashtra22-07-2021
ETASYA AYURVEDA PRIVATE LIMITEDU24299MH2021PTC364385Maharashtra22-07-2021
AVYAY DIGITAL YUG PRIVATE LIMITEDU74999MH2021PTC364391Maharashtra22-07-2021
SOLAR SPECIALITY CHEMICALS LIMITEDU24299MH2021PLC364384Maharashtra22-07-2021
HOSPINFRA HEALTHCARE PRIVATE LIMITEDU74999MH2021PTC364427Maharashtra22-07-2021
SAIGANESH MULTISERVICES PRIVATE LIMITEDU74999MH2021PTC364368Maharashtra22-07-2021
WHOLESOME SOLUTIONS PRIVATE LIMITEDU74999MH2021PTC364403Maharashtra22-07-2021
CYSTEINE AGROCHEMICALS (OPC) PRIVATE LIMITEDU24299PN2021OPC202854Maharashtra22-07-2021
SWAR MAULI FOUNDATIONU85100MH2021NPL364423Maharashtra22-07-2021
INROS LACKNER INDIA PRIVATE LIMITEDU74999MH2021PTC364431Maharashtra22-07-2021
AURUMSPOON TRANSPORT PRIVATE LIMITEDU63030PN2021PTC202815Maharashtra22-07-2021
VARAD AGRO CHEMICAL PRIVATE LIMITEDU01409PN2021PTC202827Maharashtra22-07-2021
QUALQUANT EXIM (OPC) PRIVATE LIMITEDU01400PN2021OPC202843Maharashtra22-07-2021
LIGHTHALL DATA PARKS PRIVATE LIMITEDU72900MH2021FTC364380Maharashtra22-07-2021
YCDN DATA CENTRE PRIVATE LIMITEDU72900MH2021FTC364396Maharashtra22-07-2021
CL-INDOGLOBAL DATA CENTRE PRIVATE LIMITEDU72900MH2021PTC364376Maharashtra22-07-2021
BHARDHWAJ NETWORX SOLUTIONS (OPC) PRIVATE LIMITEDU72900MH2021OPC364358Maharashtra22-07-2021
HELPING CHAIN FOUNDATIONU85300MH2021NPL364392Maharashtra22-07-2021
WOLFPACK ANIMATION STUDIO PRIVATE LIMITEDU72900MH2021PTC364360Maharashtra22-07-2021
LIGHTPATH DATA PARKS PRIVATE LIMITEDU72900MH2021FTC364445Maharashtra22-07-2021
SHIELDON FIRE & SAFETY (OPC) PRIVATE LIMITEDU29309MH2021OPC364418Maharashtra22-07-2021
COMMIT FARM (OPC) PRIVATE LIMITEDU01100MH2021OPC364436Maharashtra22-07-2021
YUVA ASMITA FOUNDATIONU85300MH2021NPL364399Maharashtra22-07-2021
LINENDO FASHIONS PRIVATE LIMITEDU52609MH2021PTC364389Maharashtra22-07-2021
WAKE UP URBAN NAARI FOUNDATIONU85300MH2021NPL364421Maharashtra22-07-2021
OPENFORHOPE FOUNDATIONU85300PN2021NPL202811Maharashtra22-07-2021
QUEUEMAP TECHNOLOGIES PRIVATE LIMITEDU72900MH2021PTC364405Maharashtra22-07-2021
REDBULB HOSPITALITY PRIVATE LIMITEDU55101MH2021PTC364409Maharashtra22-07-2021
RUKHM INDUSTRIES LIMITEDU01100MH2021PLC364415Maharashtra22-07-2021
PGR ELECTRICALS PRIVATE LIMITEDU31909PN2021PTC202853Maharashtra22-07-2021
TH HEALTHCARE PRIVATE LIMITEDU85300MH2021PTC364451Maharashtra22-07-2021
PROGRESS N SUCCESS PRIVATE LIMITEDU72900MH2021PTC364398Maharashtra22-07-2021
KHAMKHEDA KRUSHI KRANTI PRODUCER COMPANYLIMITEDU01100MH2021PTC364372Maharashtra22-07-2021
MAYUR REALTY PRIVATE LIMITEDU70109MH2021PTC364448Maharashtra22-07-2021
SIGNET REALCON PRIVATE LIMITEDU70109PN2021PTC202836Maharashtra22-07-2021
OUR NEST TEAROOM PRIVATE LIMITEDU55209MH2021PTC364361Maharashtra22-07-2021
JAI SEVALAL PETROLEUM PRIVATE LIMITEDU50400PN2021PTC202846Maharashtra22-07-2021
TORANA JAIVIK SHETI MISSION FARMER PRODUCER COMPANY LIMITEDU01100MH2021PTC364414Maharashtra22-07-2021
ALLADDIN DELICIOUS PRIVATE LIMITEDU55209MH2021PTC364444Maharashtra22-07-2021
MY DOC MATE PRIVATE LIMITEDU72900MH2021PTC364412Maharashtra22-07-2021
WOW FANTASY PRIVATE LIMITEDU72900MH2021PTC364430Maharashtra22-07-2021
RAMSNEHI RETAIL PRIVATE LIMITEDU50400MH2021PTC364383Maharashtra22-07-2021
DAITHANA KH AGRO PRODUCER COMPANY LIMITEDU01100MH2021PTC364407Maharashtra22-07-2021
REVANZA EDUPROP SOMATANE PRIVATE LIMITEDU70109PN2021PTC202824Maharashtra22-07-2021
OMMAAS GALLEY AND HOSPITALITY PRIVATE LIMITEDU55209PN2021PTC202831Maharashtra22-07-2021
CASAMO HOTELS AND RESORT PRIVATE LIMITEDU55209PN2021PTC202849Maharashtra22-07-2021
SAU SUMA KRUSHI VIKAS FARMERS PRODUCER COMPANY LIMITEDU01100MH2021PTC364416Maharashtra22-07-2021
MANAGEMENT BASE HOUSING PRIVATE LIMITEDU70200PN2021PTC202840Maharashtra22-07-2021
NARAYANA FARMERS PRODUCER COMPANY LIMITEDU01100MH2021PTC364428Maharashtra22-07-2021
SMART PAIN TECHNOLOGY INTERNATIONAL PRIVATE LIMITEDU80302MH2021PTC364424Maharashtra22-07-2021
CHM BLOCKCHAIN SOLUTIONS PRIVATE LIMITEDU72900PN2021PTC202823Maharashtra22-07-2021
I-CREATE VENTURES PRIVATE LIMITEDU72900PN2021PTC202848Maharashtra22-07-2021
PRAKASH AGRO COLDSTORAGE PRIVATE LIMITEDU63022PN2021PTC202842Maharashtra22-07-2021
ZIPY AI PRIVATE LIMITEDU72900PN2021PTC202852Maharashtra22-07-2021
NAROLA DIAMONDS PRIVATE LIMITEDU36900MH2021PTC364378Maharashtra22-07-2021
DEVGAD TALUKA MANGO FARMERS PRODUCER COMPANY LIMITEDU01100PN2021PTC202819Maharashtra22-07-2021
SHIGMODA CARRIERS & LIFTERS PRIVATE LIMITEDU63030MH2021PTC364381Maharashtra22-07-2021
MUKTI TECHSTUDIO PRIVATE LIMITEDU72900PN2021PTC202828Maharashtra22-07-2021
RARITY INFO PRIVATE LIMITEDU72900PN2021PTC202839Maharashtra22-07-2021
GOVAXXIN TECHNOLOGIES PRIVATE LIMITEDU24110MH2021PTC364437Maharashtra22-07-2021
NETAPOGEE SOLUTIONS PRIVATE LIMITEDU72900PN2021PTC202847Maharashtra22-07-2021
BOMBAY MILENIO PRIVATE LIMITEDU01100MH2021PTC364440Maharashtra22-07-2021
AREETE BUSINESS SOLUTIONS PRIVATE LIMITEDU72900PN2021PTC202837Maharashtra22-07-2021
BIOCACY PHARMACEUTICAL PRIVATE LIMITEDU24230PN2021PTC202826Maharashtra22-07-2021
STARSHIP TECHNICAL MANAGEMENT PRIVATE LIMITEDU63030MH2021PTC364411Maharashtra22-07-2021
COSMOCUTIS PRIVATE LIMITEDU24246MH2021PTC364417Maharashtra22-07-2021
NCDI INDIA PRIVATE LIMITEDU80902MH2021PTC364386Maharashtra22-07-2021
OZU LOGISTICS MARKETPLACE PRIVATE LIMITEDU63030MH2021PTC364390Maharashtra22-07-2021
STUDIO CONSILIO (OPC) PRIVATE LIMITEDU36998MH2021OPC364375Maharashtra22-07-2021
SYNTHTEC TECHNOLOGIES PRIVATE LIMITEDU24290MH2021PTC364406Maharashtra22-07-2021
SWASTHYA FARMERS PRODUCER COMPANY LIMITEDU01100PN2021PTC202844Maharashtra22-07-2021
WHITE MERCURY PRIVATE LIMITEDU92490MH2021PTC364410Maharashtra22-07-2021
HOPECONFLICT E-LEARNING AND IT SOLUTIONSPRIVATE LIMITEDU80902MH2021PTC364425Maharashtra22-07-2021
GROWBIZ LOGISTICS PRIVATE LIMITEDU63030MH2021PTC364397Maharashtra22-07-2021
BOPPO ENTERTAINMENT PRIVATE LIMITEDU92100MH2021PTC364362Maharashtra22-07-2021
SHARPENERS ON-DOT SOLUTIONS (OPC) PRIVATE LIMITEDU80902PN2021OPC202821Maharashtra22-07-2021
GLOBAL TARA ENTERTAINMENT (OPC) PRIVATE LIMITEDU92419MH2021OPC364357Maharashtra22-07-2021
CLOUDDIO SLEEP PRIVATE LIMITEDU36999MH2021PTC364420Maharashtra22-07-2021
SOCIALGAMING (OPC) PRIVATE LIMITEDU92419MH2021OPC364442Maharashtra22-07-2021
TOGETHER BUSINESS SOLUTIONS (OPC) PRIVATE LIMITEDU80902PN2021OPC202812Maharashtra22-07-2021
KKOTHAWALE WAREHOUSE PRIVATE LIMITEDU63030MH2021PTC364454Maharashtra22-07-2021
RAMKRISHNA FARMER PRODUCER COMPANY LIMITEDU01110MH2021PTC364365Maharashtra22-07-2021
KALPTARA FARMER PRODUCER COMPANY LIMITEDU01400MH2021PTC364449Maharashtra22-07-2021
VASAI BAPTIST CHURCH ASSOCIATIONU93000MH2021NPL364400Maharashtra22-07-2021
BIOBRAIN HEALTHCARE PRIVATE LIMITEDU24290PN2021PTC202850Maharashtra22-07-2021
WINSPACE BUILDCON INFRASTRUCTURE PRIVATELIMITEDU45201MH2021PTC364369Maharashtra22-07-2021
PURSUIT OF WELLNESS PRIVATE LIMITEDU24299MH2021PTC364450Maharashtra22-07-2021
UNVENTURES INITIATIVES PRIVATE LIMITEDU74999MH2021PTC364441Maharashtra22-07-2021
CTLYST AND INGREDIENTS (OPC) PRIVATE LIMITEDU15400MH2021OPC364453Maharashtra22-07-2021
KR BAHETI CONSTRO PRIVATE LIMITEDU45202MH2021PTC364359Maharashtra22-07-2021
SAYYED DEVELOPMENT PRIVATE LIMITEDU45201MH2021PTC364373Maharashtra22-07-2021
HUNGRYOX AGROFOODS PRIVATE LIMITEDU15400PN2021PTC202817Maharashtra22-07-2021
AKMP SOLUTIONS PRIVATE LIMITEDU74999MH2021PTC364439Maharashtra22-07-2021
BUSINESS TIMES STREAMLINED TRAINING PRIVATE LIMITEDU74999MH2021PTC364435Maharashtra22-07-2021
CAVY CLEAN CONTRACTING AND INFRA PRIVATELIMITEDU74999PN2021PTC202829Maharashtra22-07-2021
JALTECH PLUMBING AND SANITARYWARE PRIVATE LIMITEDU26990MH2021PTC364404Maharashtra22-07-2021
NEXVITECH INDIA PRIVATE LIMITEDU74999PN2021PTC202841Maharashtra22-07-2021
SUPERNOVA SUPERSPECIALITY SERVICES PRIVATE LIMITEDU85110MH2021PTC364426Maharashtra22-07-2021
VIMARSH SAMARTH PRIVATE LIMITEDU74999PN2021PTC202813Maharashtra22-07-2021
QUICKBIZZ COMPLIANCE LOGIC PRIVATE LIMITEDU74999PN2021PTC202822Maharashtra22-07-2021
STAR RADIANT INDIA PRIVATE LIMITEDU25209PN2021PTC202825Maharashtra22-07-2021
MAGNACARTA OPTIMAL SOLUTIONS PRIVATE LIMITEDU25209MH2021PTC364422Maharashtra22-07-2021
SHRI MARUDHARMISHRI INVESTMENTS PRIVATE LIMITEDU65990MH2021PTC364393Maharashtra22-07-2021
GOLDWAYS FINANCIAL SERVICES INDIA PRIVATE LIMITEDU65990PN2021PTC202845Maharashtra22-07-2021
FINTAXOLAWGY INDIA PRIVATE LIMITEDU74999PN2021PTC202835Maharashtra22-07-2021
RSSUNLIGHT BEVERAGES PRIVATE LIMITEDU15490MH2021PTC364394Maharashtra22-07-2021
TIRUPATI URBAN CREDITS WARDHA NIDHI LIMITEDU65991MH2021PLN364366Maharashtra22-07-2021
GRASS AND HILLS AGRO PRODUCT PRIVATE LIMITEDU15490MH2021PTC364419Maharashtra22-07-2021
GLORIOUS HEALTH SERVICES PRIVATE LIMITEDU52100MH2021PTC364401Maharashtra22-07-2021
CURAMINHEALTH CARE PRIVATE LIMITEDU52100MH2021PTC364447Maharashtra22-07-2021
SHUCHIT NATURAL OIL PRIVATE LIMITEDU15490PN2021PTC202830Maharashtra22-07-2021
ESHOPX TRADEX (OPC) PRIVATE LIMITEDU52190MH2021OPC364379Maharashtra22-07-2021
QUINN HYGIENE PRIVATE LIMITEDU52190MH2021PTC364402Maharashtra22-07-2021
GAURAAI FOOD AND PRODUCTS (OPC) PRIVATE LIMITEDU15490MH2021OPC364443Maharashtra22-07-2021
ANNAPURNA FOODSTUFF INDIA PRIVATE LIMITEDU15490MH2021PTC364413Maharashtra22-07-2021
AVLANII FINE JEWELS PRIVATE LIMITEDU52390MH2021PTC364434Maharashtra22-07-2021
MAKING FLAVOURS PRIVATE LIMITEDU16003PN2021PTC202851Maharashtra22-07-2021
JMDD STEELS PRIVATE LIMITEDU28999PN2021PTC202833Maharashtra22-07-2021
EXORDIUM EX-C SOLUTIONS PRIVATE LIMITEDU74140PN2021PTC202820Maharashtra22-07-2021
AV TRADING AND INVESTMENT CONSULTANCY PRIVATE LIMITEDU67100PN2021PTC202814Maharashtra22-07-2021
RUDRANJALI INNOVATIVE AGRITECH PRIVATE LIMITEDU29300PN2021PTC202834Maharashtra22-07-2021
PUREMAGNUM INDIA PRIVATE LIMITEDU17299MH2021PTC364382Maharashtra22-07-2021
AVNI AERO PRIVATE LIMITEDU29270MH2021PTC364363Maharashtra22-07-2021
GLOBZONE INFRASTRUCTURE PRIVATE LIMITEDU45400MH2021PTC364367Maharashtra22-07-2021
ACRUXFLOWTECH & AUTOMATION (OPC) PRIVATELIMITEDU29308MH2021OPC364455Maharashtra22-07-2021
QUOTEMARTIAL FASHION PRIVATE LIMITEDU18104MH2021PTC364438Maharashtra22-07-2021
DALVI & PATIL CONSTRUCTION AND MINING PRIVATE LIMITEDU45400PN2021PTC202818Maharashtra22-07-2021
PLURILOCK SECURITY PRIVATE LIMITEDU72900MH2021FTC364452Maharashtra22-07-2021
AUTOSTUDIO PRIVATE LIMITEDU29309MH2021PTC364429Maharashtra22-07-2021
SMAART SUPER PAY PRIVATE LIMITEDU74900MH2021PTC364446Maharashtra22-07-2021
XURI PATEL ORGANISATIONU85300MH2021NPL364511Maharashtra23-07-2021
MOUNTREACH SOLUTION (OPC) PRIVATE LIMITEDU72900MH2021OPC364493Maharashtra23-07-2021
RAJA FOOD VENTURES PRIVATE LIMITEDU52100PN2021PTC202890Maharashtra23-07-2021
QUAERITOSAPP (OPC) PRIVATE LIMITEDU72900MH2021OPC364537Maharashtra23-07-2021
UMA STEEL SOCIAL FOUNDATIONU85300MH2021NPL364524Maharashtra23-07-2021
PALETTIER RETAIL PRIVATE LIMITEDU18209MH2021PTC364485Maharashtra23-07-2021
PREE CHARITABLE FOUNDATIONU85300MH2021NPL364533Maharashtra23-07-2021
DUSSA FINANCIAL SERVICES PRIVATE LIMITEDU67110MH2021PTC364458Maharashtra23-07-2021
DIGINOTICE LIMITEDU72900MH2021PLC364460Maharashtra23-07-2021
GOOD EDGE FOUNDATIONU85300MH2021NPL364557Maharashtra23-07-2021
MAATRA WELFARE FOUNDATIONU85300MH2021NPL364552Maharashtra23-07-2021
PITESLA PRIVATE LIMITEDU31909MH2021PTC364504Maharashtra23-07-2021
DELSEA TRADING PRIVATE LIMITEDU74999MH2021PTC364463Maharashtra23-07-2021
PAYIFY TECHNOLOGIES PRIVATE LIMITEDU72900MH2021PTC364491Maharashtra23-07-2021
SEEMS ELEMENTS PRIVATE LIMITEDU31900PN2021PTC202862Maharashtra23-07-2021
IJOOLOO PRIVATE LIMITEDU72900MH2021PTC364498Maharashtra23-07-2021
HEALTHFAIRY FOUNDATIONU85300PN2021NPL202863Maharashtra23-07-2021
WELLNESS FOREVER HEALTHTECH PRIVATE LIMITEDU52311MH2021PTC364475Maharashtra23-07-2021
REBELCORP PRIVATE LIMITEDU74999MH2021PTC364470Maharashtra23-07-2021
RAAYAA ANALYTICS PRIVATE LIMITEDU72900MH2021PTC364522Maharashtra23-07-2021
MANTRA ISLAND HOMES CHIMBLI PRIVATE LIMITEDU45309PN2021PTC202859Maharashtra23-07-2021
MINTBOX SOLUTIONS PRIVATE LIMITEDU74999MH2021PTC364503Maharashtra23-07-2021
FORTRY TECHNOLOGY PRIVATE LIMITEDU72900PN2021PTC202858Maharashtra23-07-2021
PTVA FOUNDATIONU80902MH2021NPL364481Maharashtra23-07-2021
CNK GLOBAL E-COMMERCE PRIVATE LIMITEDU74999MH2021PTC364506Maharashtra23-07-2021
OMANGOES PRIVATE LIMITEDU01100PN2021PTC202885Maharashtra23-07-2021
BETONIC-SOLUTIONS PRIVATE LIMITEDU72900PN2021PTC202856Maharashtra23-07-2021
VIYUR AGRO PRODUCTS PRIVATE LIMITEDU01100PN2021PTC202861Maharashtra23-07-2021
IMDR ALUMNI ASSOCIATIONU85300PN2021NPL202882Maharashtra23-07-2021
ECOMGENZY (OPC) PRIVATE LIMITEDU74999MH2021OPC364499Maharashtra23-07-2021
DR COSMOPLUS AESTHETIC PRIVATE LIMITEDU85300PN2021PTC202899Maharashtra23-07-2021
SOHAM CONCEPTS AND DESIGNS PRIVATE LIMITEDU74999MH2021PTC364464Maharashtra23-07-2021
JANHITKARINI AGRO PRODUCER COMPANY LIMITEDU01100PN2021PTC202898Maharashtra23-07-2021
ESOCIOPARTNERS PRIVATE LIMITEDU74999MH2021PTC364507Maharashtra23-07-2021
OUT OF THE BLUE PRIVATE LIMITEDU72900PN2021PTC202893Maharashtra23-07-2021
PAG AUTOMATION PRIVATE LIMITEDU72900PN2021PTC202867Maharashtra23-07-2021
GIGQUEST LOCAL EVENTS PRIVATE LIMITEDU74999MH2021PTC364512Maharashtra23-07-2021
NEWERA INFORMATION TECHNOLOGY E-LEARNINGSYSTEMS PRIVATE LIMITEDU80902MH2021PTC364550Maharashtra23-07-2021
AETHON DEVELOPERS PRIVATE LIMITEDU70109MH2021PTC364477Maharashtra23-07-2021
GREENSI INNOVATIONS INDIA PRIVATE LIMITEDU24110MH2021PTC364553Maharashtra23-07-2021
SWEPAL SERVICES PRIVATE LIMITEDU74999MH2021PTC364521Maharashtra23-07-2021
TECHNO SURGE INDUSTRIES PRIVATE LIMITEDU33119PN2021PTC202887Maharashtra23-07-2021
PNCARE PRIVATE LIMITEDU74999MH2021PTC364551Maharashtra23-07-2021
CEREBELLUM LIFE SCIENCES PRIVATE LIMITEDU24230MH2021PTC364535Maharashtra23-07-2021
NAUEASY HR SOLUTIONS PRIVATE LIMITEDU74999MH2021PTC364518Maharashtra23-07-2021
FCC LOGISTICS PRIVATE LIMITEDU74999MH2021PTC364554Maharashtra23-07-2021
DWELLTEQ SERVICES PRIVATE LIMITEDU72900PN2021PTC202905Maharashtra23-07-2021
STARGATE EDUCATIONAL FOUNDATIONU80902PN2021NPL202874Maharashtra23-07-2021
ZION INFRA & TECHNOLOGIES PRIVATE LIMITEDU45400MH2021PTC364501Maharashtra23-07-2021
WHAT N DONE CONSULTANTS PRIVATE LIMITEDU74999MH2021PTC364547Maharashtra23-07-2021
CARE TAKE PHARMACY AND HOSPITAL PRIVATE LIMITEDU33200MH2021PTC364488Maharashtra23-07-2021
INDIC PHARMA PRIVATE LIMITEDU24232MH2021PTC364556Maharashtra23-07-2021
OYOLA TECHNOLOGIES PRIVATE LIMITEDU52599PN2021PTC202881Maharashtra23-07-2021
STUDYMITRAM PRIVATE LIMITEDU80903MH2021PTC364546Maharashtra23-07-2021
GREENLEAF FURNITURE PRIVATE LIMITEDU36990MH2021PTC364482Maharashtra23-07-2021
IRISH PRESSINGS INDIA PRIVATE LIMITEDU35990PN2021FTC202894Maharashtra23-07-2021
DUREL ALIGNERS PRIVATE LIMITEDU24234MH2021PTC364509Maharashtra23-07-2021
QTANGENT PRIVATE LIMITEDU80903MH2021PTC364542Maharashtra23-07-2021
NEXTGEN SATPUDA INDIGENOUS FARMER PRODUCER COMPANY LIMITEDU01400MH2021PTC364489Maharashtra23-07-2021
WE4U STAFFING SERVICE PRIVATE LIMITEDU93000MH2021PTC364490Maharashtra23-07-2021
MODISON MINEX PRIVATE LIMITEDU13209MH2021PTC364558Maharashtra23-07-2021
AGRIMANDI FARMER PRODUCER COMPANY LIMITEDU01110MH2021PTC364483Maharashtra23-07-2021
AIMSTAR PHARMA PRIVATE LIMITEDU24239MH2021PTC364510Maharashtra23-07-2021
DO DANCE MEDIA PRIVATE LIMITEDU92490MH2021PTC364487Maharashtra23-07-2021
MEGHMA CROP SOLUTIONS PRIVATE LIMITEDU01110MH2021PTC364514Maharashtra23-07-2021
SHIVSNEH AGRO PRODUCER COMPANY LIMITEDU01110MH2021PTC364530Maharashtra23-07-2021
SIDDHCHINTAMANI AGRO FARMER PRODUCER COMPANY LIMITEDU01110PN2021PTC202865Maharashtra23-07-2021
BRAMHANPURI FARMERS PRODUCER COMPANY LIMITEDU01409MH2021PTC364497Maharashtra23-07-2021
DHARMAVEER SADASHIVRAO MANEPATIL AGRO – INDUSTRIES PRIVATE LIMITEDU01110PN2021PTC202895Maharashtra23-07-2021
SHRI SHANTILINGESHWAR FARMERS PRODUCER COMPANY LIMITEDU01409PN2021PTC202857Maharashtra23-07-2021
ADHARKRUSHI VIKAS FARMER PRODUCER COMPANY LIMITEDU01400MH2021PTC364544Maharashtra23-07-2021
HIGH AGRICULTURE SEEDS PRIVATE LIMITEDU01111MH2021PTC364508Maharashtra23-07-2021
TRIVIA MOTORS PRIVATE LIMITEDU50401PN2021PTC202878Maharashtra23-07-2021
INSTITUTE OF INTEGRATIVE ONCOLOGY (INDIA) PRIVATE LIMITEDU24239MH2021PTC364516Maharashtra23-07-2021
LEINFINITY SOLUTIONS INDIA PRIVATE LIMITEDU74999PN2021PTC202877Maharashtra23-07-2021
24KD OCEAN SOLUTIONS PRIVATE LIMITEDU70200PN2021PTC202901Maharashtra23-07-2021
CARBANA AUTOTECH INDIA PRIVATE LIMITEDU50500PN2021PTC202908Maharashtra23-07-2021
EITRI TECHNOLOGIES PRIVATE LIMITEDU74999PN2021PTC202892Maharashtra23-07-2021
SHREEMANTYOGI CHHATRAPATI SHIVRAY UDYOG SAMUHA PRIVATE LIMITEDU74999PN2021PTC202889Maharashtra23-07-2021
STENIT HOTELS AND RESORTS PRIVATE LIMITEDU55101PN2021PTC202904Maharashtra23-07-2021
SUSHIL MARINE SERVICES PRIVATE LIMITEDU80904PN2021PTC202907Maharashtra23-07-2021
PUROGREEN KITCHENS PRIVATE LIMITEDU55209MH2021PTC364465Maharashtra23-07-2021
TRUCAM LIFESCIENCES PRIVATE LIMITEDU24290MH2021PTC364496Maharashtra23-07-2021
MYMIRROR X FITNESS PRIVATE LIMITEDU80904MH2021PTC364531Maharashtra23-07-2021
HUMPS N BELLS PRIVATE LIMITEDU15200PN2021PTC202903Maharashtra23-07-2021
FORENSIC BRIDGE INQUISITION PRIVATE LIMITEDU74999PN2021PTC202902Maharashtra23-07-2021
AYRA SUSTAINABLE LIVING (OPC) PRIVATE LIMITEDU37100PN2021OPC202864Maharashtra23-07-2021
PRAXAN PHARMACEUTICALS PRIVATE LIMITEDU24290PN2021PTC202873Maharashtra23-07-2021
MANJULA DESTINATIONS PRIVATE LIMITEDU55209MH2021PTC364478Maharashtra23-07-2021
CREDANTHRO BIOSCIENCES PRIVATE LIMITEDU24296MH2021PTC364473Maharashtra23-07-2021
CLEAN MAX MAXIMUS PRIVATE LIMITEDU40109MH2021PTC364515Maharashtra23-07-2021
SHRUSTI NARAYANI FOODS (OPC) PRIVATE LIMITEDU15400PN2021OPC202871Maharashtra23-07-2021
PLASGLOW PETCHEM PRIVATE LIMITEDU24290MH2021PTC364541Maharashtra23-07-2021
CHEMILEON CHEMICALS PRIVATE LIMITEDU24290MH2021PTC364559Maharashtra23-07-2021
YOUGET AGRO ORGANIC FOODS PRIVATE LIMITEDU15400MH2021PTC364484Maharashtra23-07-2021
BABAR WATER INDUSTRIES PRIVATE LIMITEDU41000PN2021PTC202869Maharashtra23-07-2021
AARUSH LIFESCIENCES PRIVATE LIMITEDU24299PN2021PTC202866Maharashtra23-07-2021
CALISTA HOD (OPC) PRIVATE LIMITEDU85100MH2021OPC364560Maharashtra23-07-2021
AURA WATERTECH PRIVATE LIMITEDU41000PN2021PTC202870Maharashtra23-07-2021
ZARLISH POLYCHEMICALS PRIVATE LIMITEDU24299MH2021PTC364539Maharashtra23-07-2021
3SDR VENTURES (OPC) PRIVATE LIMITEDU51909MH2021OPC364480Maharashtra23-07-2021
INNOVATE FABRICS PRIVATE LIMITEDU51909MH2021PTC364468Maharashtra23-07-2021
THINKMOVE RESOURCES PRIVATE LIMITEDU63030PN2021PTC202883Maharashtra23-07-2021
WELLFINO PHARMACEUTICAL PRIVATE LIMITEDU24299MH2021PTC364545Maharashtra23-07-2021
OUTREACH FOR BEHAVIOURAL SCIENCE (OPC) PRIVATE LIMITEDU85100MH2021OPC364543Maharashtra23-07-2021
UMS FOUNDATIONU85100MH2021NPL364527Maharashtra23-07-2021
SPEEDBOLT CARGO AND LOGISTICS PRIVATE LIMITEDU63030MH2021PTC364466Maharashtra23-07-2021
GALAXY- HEALTHCARE PRIVATE LIMITEDU85100MH2021PTC364471Maharashtra23-07-2021
JASHJEDAL PRIVATE LIMITEDU15490MH2021PTC364532Maharashtra23-07-2021
MTAT MAGICAL THERAPEUTIC ALLURING TOUCH PRIVATE LIMITEDU85100MH2021PTC364528Maharashtra23-07-2021
PIZISTE INTERNATIONAL PRIVATE LIMITEDU51909MH2021PTC364536Maharashtra23-07-2021
ANANDVAN MULTI SPECIALITY HOSPITAL PRIVATE LIMITEDU85100PN2021PTC202900Maharashtra23-07-2021
RHO HEALTHCARE PRIVATE LIMITEDU85100MH2021PTC364486Maharashtra23-07-2021
ETRAVELI INDIA PRIVATE LIMITEDU63030PN2021PTC202876Maharashtra23-07-2021
SIDDH-RASHMI FOOD PRODUCTS PRIVATE LIMITEDU15490PN2021PTC202896Maharashtra23-07-2021
FINQUEST STRUCTURE FINANCE ADVISORY SERVICES (OPC) PRIVATE LIMITEDU74140MH2021OPC364538Maharashtra23-07-2021
PAWANSUT POLYMER AND PLASTICS PRIVATE LIMITEDU25209MH2021PTC364520Maharashtra23-07-2021
TETRAHEDRAL INFRASTRUCTURE INDIA PRIVATELIMITEDU45201MH2021PTC364505Maharashtra23-07-2021
HK DATA SOLUTIONS PRIVATE LIMITEDU74140MH2021PTC364549Maharashtra23-07-2021
WELLNESS ANIMAL INDIA PRIVATE LIMITEDU85190PN2021PTC202875Maharashtra23-07-2021
5STAR GOLD PVC PRIVATE LIMITEDU25209PN2021PTC202879Maharashtra23-07-2021
MEDISIGMA PHARMA PRIVATE LIMITEDU51909MH2021PTC364517Maharashtra23-07-2021
SEESTERN EXIM PRIVATE LIMITEDU51909MH2021PTC364525Maharashtra23-07-2021
MEDIC FORGE HEALTHCARE PRIVATE LIMITEDU51909MH2021PTC364540Maharashtra23-07-2021
DPACEX PRIVATE LIMITEDU73200MH2021PTC364534Maharashtra23-07-2021
AVAANIA CONSTRUCTION PRIVATE LIMITEDU45201MH2021PTC364474Maharashtra23-07-2021
ZERO LOSS PRIVATE LIMITEDU74140PN2021PTC202909Maharashtra23-07-2021
BIZOBOOK TECHNOLOGIES PRIVATE LIMITEDU51909PN2021PTC202897Maharashtra23-07-2021
INSIGNIAN BRANDS PRIVATE LIMITEDU74200MH2021PTC364467Maharashtra23-07-2021
APNIDUKAAN ECOM INDIA PRIVATE LIMITEDU51909PN2021PTC202888Maharashtra23-07-2021
VISHWAKAMAL CAPITAL PRIVATE LIMITEDU65990MH2021PTC364472Maharashtra23-07-2021
RITIKA WATERPROOFING SYSTEMS PRIVATE LIMITEDU45202MH2021PTC364519Maharashtra23-07-2021
MEHKAR JAIVIK SHETI MISSION FARMER PRODUCER COMPANY LIMITEDU01100MH2021PTC364462Maharashtra23-07-2021
PURNESHWAR FARMERS PRODUCER COMPANY LIMITEDU01100MH2021PTC364459Maharashtra23-07-2021
SILVERSTONE FARMER PRODUCER COMPANY LIMITEDU01100MH2021PTC364494Maharashtra23-07-2021
AGROHILLS FARMER PRODUCER COMPANY LIMITEDU01100MH2021PTC364513Maharashtra23-07-2021
SHEELA ORGANICS PRIVATE LIMITEDU17299MH2021PTC364492Maharashtra23-07-2021
FIRST GLOBAL INVESTECH AMC PRIVATE LIMITEDU65999MH2021PTC364500Maharashtra23-07-2021
ABC FILTERS PRIVATE LIMITEDU29299PN2021PTC202880Maharashtra23-07-2021
CYG INFRACOM PRIVATE LIMITEDU45209PN2021PTC202868Maharashtra23-07-2021
SHEEPMEDICAL INDIA PRIVATE LIMITEDU85300MH2021FTC364457Maharashtra23-07-2021
SAMUGDHA AGRO AND FOODS PROCESSING PRIVATE LIMITEDU01100MH2021PTC364529Maharashtra23-07-2021
DHYEYA MULTISTATE BHINGAR NIDHI LIMITEDU65999PN2021PLN202891Maharashtra23-07-2021
UDYOJAK MAHILA MULTI-CITY NIDHI LIMITEDU65999PN2021PLN202884Maharashtra23-07-2021
CONSERVIRON SUSTAINABILITY FOUNDATIONU85300MH2021NPL364461Maharashtra23-07-2021
FARM INDIA ORGANIC FOODS PRIVATE LIMITEDU01100MH2021PTC364526Maharashtra23-07-2021
P. BHUSHAN AGRO PRODUCER COMPANY LIMITEDU01100MH2021PTC364555Maharashtra23-07-2021
MAHABODHI TECHNO PRIVATE LIMITEDU29309MH2021PTC364502Maharashtra23-07-2021
REGIRD PRIVATE LIMITEDU29309MH2021PTC364523Maharashtra23-07-2021
SATHYOM CONNECTS FOUNDATIONU85300MH2021NPL364469Maharashtra23-07-2021
NIGHT HONEY GARMENTS PRIVATE LIMITEDU18109MH2021PTC364479Maharashtra23-07-2021
AUTO TOUCH INDUSTRIES PRIVATE LIMITEDU29309PN2021PTC202906Maharashtra23-07-2021
SOURCE AND SUPPLY PRIVATE LIMITEDU52100MH2021PTC364548Maharashtra23-07-2021
LIBERAL MINDS FOUNDATIONU85300MH2021NPL364476Maharashtra23-07-2021
GENEVA EDUCATION AND RESEARCH FOUNDATIONU80900PN2021NPL202855Maharashtra23-07-2021
PERCENT FINANCIAL SERVICES PRIVATE LIMITEDU67100PN2021PTC202886Maharashtra23-07-2021
JIVABOX (OPC) PRIVATE LIMITEDU52100PN2021OPC202860Maharashtra23-07-2021
TUBELIGHT FOUNDATION FOR SOCIAL INNOVATIONSU85300MH2021NPL364495Maharashtra23-07-2021
GLASH OUTFITS PRIVATE LIMITEDU52100PN2021PTC202872Maharashtra23-07-2021
MARATHWADA AGROTECH INDIA FARMER PRODUCER COMPANY LIMITEDU01111MH2021PTC364573Maharashtra26-07-2021
ASHWAMEDH AGROLIFE PRIVATE LIMITEDU01110MH2021PTC364595Maharashtra26-07-2021
LATUR PULSES PRODUCER COMPANY LIMITEDU01110MH2021PTC364607Maharashtra26-07-2021
K. S. YEWALE AGRO PRODUCER COMPANY LIMITEDU01110MH2021PTC364624Maharashtra26-07-2021
BAGLANAGRO FARMERS PRODUCER COMPANY LIMITEDU01100MH2021PTC364572Maharashtra26-07-2021
X- AGRO FOOD TECH PRIVATE LIMITEDU15490MH2021PTC364593Maharashtra26-07-2021
MERWANS CONFECTIONERS BENGALURU PRIVATE LIMITEDU15490MH2021PTC364619Maharashtra26-07-2021
TRADE TALES SERVICES PRIVATE LIMITEDU74999PN2021PTC202911Maharashtra26-07-2021
CREATOR SEEDS INDIA PRIVATE LIMITEDU01100MH2021PTC364576Maharashtra26-07-2021
ANNAPURNA KNOWLEDGE SERVICES PRIVATE LIMITEDU74999PN2021PTC202915Maharashtra26-07-2021
POPVAX PRIVATE LIMITEDU73100MH2021PTC364588Maharashtra26-07-2021
RUSHIKRUPA FARMER PRODUCER COMPANY LIMITEDU01100MH2021PTC364585Maharashtra26-07-2021
VIPRA VENTURES PRIVATE LIMITEDU25209MH2021PTC364575Maharashtra26-07-2021
SVATANTR SECURE PRIVATE LIMITEDU74999PN2021PTC202920Maharashtra26-07-2021
D-DMS TECHNO SOLUTIONS PRIVATE LIMITEDU74999PN2021PTC202922Maharashtra26-07-2021
CIRAAYA ENTERPRISES PRIVATE LIMITEDU74999PN2021PTC202930Maharashtra26-07-2021
GOLDNEST NIDHI LIMITEDU65999MH2021PLN364571Maharashtra26-07-2021
KAMDAR TEA INDUSTRIES PRIVATE LIMITEDU01100MH2021PTC364621Maharashtra26-07-2021
AJINKYA FACILITIES PRIVATE LIMITEDU74999PN2021PTC202937Maharashtra26-07-2021
PRAFULLA MANSUKHLAL TOPIWALA FOUNDATIONU85300MH2021NPL364561Maharashtra26-07-2021
SHANTI PRASAD AGRO FARMER PRODUCER COMPANY LIMITEDU01100MH2021PTC364626Maharashtra26-07-2021
STARGATE INNOVATIUM PRIVATE LIMITEDU73200PN2021PTC202932Maharashtra26-07-2021
INIHOR PAY FOUNDATIONU85300MH2021NPL364584Maharashtra26-07-2021
LAKSHMIKALYAN NIDHI LIMITEDU65999PN2021PLN202919Maharashtra26-07-2021
SAI CHANDRA SRA PROJECTS PRIVATE LIMITEDU45209PN2021PTC202927Maharashtra26-07-2021
JAAGO MUMBAIKAR ASSOCIATIONU85300MH2021NPL364603Maharashtra26-07-2021
SSCW INDIA PRIVATE LIMITEDU28110PN2021PTC202938Maharashtra26-07-2021
POLICY PRO INSURANCE BROKERS PRIVATE LIMITEDU66000MH2021PTC364583Maharashtra26-07-2021
SHARMA BUSINESSES PRIVATE LIMITEDU28999MH2021PTC364599Maharashtra26-07-2021
SELF-REGULATED PSO ASSOCIATIONU85300MH2021NPL364610Maharashtra26-07-2021
SHUNYA SE SHIKHAR FOUNDATIONU85300MH2021NPL364620Maharashtra26-07-2021
GLOBLE HOPE MULTISERVICES INDIA PRIVATE LIMITEDU85300MH2021PTC364570Maharashtra26-07-2021
CYFORCE PRIVATE LIMITEDU72900MH2021PTC364600Maharashtra26-07-2021
ENGIFARM AGRO INDUSTRIES PRIVATE LIMITEDU01100PN2021PTC202923Maharashtra26-07-2021
VICTORIA DEVELOPERS AND CONTRACTORS PRIVATE LIMITEDU45309MH2021PTC364594Maharashtra26-07-2021
M S N S ADVENTURE PRIVATE LIMITEDU29241PN2021PTC202947Maharashtra26-07-2021
CHANDRAKANTJI MUNOT FOUNDATIONU85300PN2021NPL202939Maharashtra26-07-2021
AURIONPRO PAYMENT SOLUTIONS PRIVATE LIMITEDU72900MH2021PTC364601Maharashtra26-07-2021
SARTHSAGAR FOUNDATIONU85300PN2021NPL202943Maharashtra26-07-2021
SHERA LINKS SERVICES PRIVATE LIMITEDU74990MH2021PTC364568Maharashtra26-07-2021
VITTHAL JAI KISAN PRODUCER COMPANY LIMITEDU01100PN2021PTC202926Maharashtra26-07-2021
DETAILED STEEL SOLUTIONS INDIA PRIVATE LIMITEDU72900MH2021PTC364602Maharashtra26-07-2021
VISHAL MARNE CONSTRUCTION (OPC) PRIVATE LIMITEDU45309PN2021OPC202921Maharashtra26-07-2021
INFORADIENT TECHNOLOGIES PRIVATE LIMITEDU72900MH2021PTC364604Maharashtra26-07-2021
DASH DOT ROBOTICS PRIVATE LIMITEDU72900MH2021PTC364611Maharashtra26-07-2021
AL HIKMAH FOUNDATIONU80301MH2021NPL364589Maharashtra26-07-2021
TTA SKILL PRIVATE LIMITEDU80301PN2021PTC202936Maharashtra26-07-2021
TUSHAR BHUMKAR INSTITUTE PRIVATE LIMITEDU80302PN2021PTC202912Maharashtra26-07-2021
BAVDHAN CITIZENS FORUMU85310PN2021NPL202929Maharashtra26-07-2021
VIDYUTALAYA ENERGY STORAGE SYSTEMS PRIVATE LIMITEDU31402MH2021PTC364567Maharashtra26-07-2021
DWAN WOMENS FARMERS PRODUCER COMPANY LIMITEDU01100PN2021PTC202928Maharashtra26-07-2021
SHRI SHIV OJASWI KRUSHIDHAN PURNA CLEAN FUELS PRIVATE LIMITEDU23101MH2021PTC364562Maharashtra26-07-2021
NXTPODS TECHNOLOGIES PRIVATE LIMITEDU72900PN2021PTC202913Maharashtra26-07-2021
BELIX LED PRIVATE LIMITEDU31506MH2021PTC364580Maharashtra26-07-2021
DWARIKADHISH GREEN ENERGY PRIVATE LIMITEDU23109MH2021PTC364586Maharashtra26-07-2021
PROBIT SOFTECH PRIVATE LIMITEDU72900PN2021PTC202914Maharashtra26-07-2021
MAHAAKAYAYA REAL ESTATE PRIVATE LIMITEDU70109MH2021PTC364630Maharashtra26-07-2021
MADHESWARI FARMER PRODUCER COMPANY LIMITEDU01100PN2021PTC202933Maharashtra26-07-2021
BRINGR TECHNOLOGIES PRIVATE LIMITEDU72900PN2021PTC202925Maharashtra26-07-2021
MAXTRA CONSTRUCTIONS PRIVATE LIMITEDU70109PN2021PTC202924Maharashtra26-07-2021
AGRAWAL INFO WORLD INDIA PRIVATE LIMITEDU31900PN2021PTC202944Maharashtra26-07-2021
VISHW FARMERS PRODUCER COMPANY LIMITEDU01110MH2021PTC364636Maharashtra26-07-2021
NISARGAYAN NATURE CARE PRIVATE LIMITEDU52609MH2021PTC364637Maharashtra26-07-2021
SAISHA FARMERS PRODUCER COMPANY LIMITEDU01100PN2021PTC202940Maharashtra26-07-2021
WECONFIG CLOUD SERVICES PRIVATE LIMITEDU72900PN2021PTC202931Maharashtra26-07-2021
ELITA DEVELOPERS PRIVATE LIMITEDU45400MH2021PTC364592Maharashtra26-07-2021
ATTENTITY ANALYTICS PRIVATE LIMITEDU72900PN2021PTC202934Maharashtra26-07-2021
UTSIDE PRIVATE LIMITEDU80902MH2021PTC364631Maharashtra26-07-2021
SINDHUCHAYA GYAAN PRASHIKSHAN (OPC) PRIVATE LIMITEDU80902PN2021OPC202916Maharashtra26-07-2021
IDL ACADEMY PRIVATE LIMITEDU80902PN2021PTC202942Maharashtra26-07-2021
MYNA VILLAS HOSPITALITY PRIVATE LIMITEDU55209MH2021PTC364569Maharashtra26-07-2021
SHIVRON HEALTHCARE PRIVATE LIMITEDU24239MH2021PTC364617Maharashtra26-07-2021
EVFLO MOBILITY PRIVATE LIMITEDU34100MH2021PTC364578Maharashtra26-07-2021
BHAGYODAY PROTEINS AND OIL REFINERY PRIVATE LIMITEDU15100MH2021PTC364579Maharashtra26-07-2021
CAVIPRO DAIRY FARM PRIVATE LIMITEDU15200PN2021PTC202917Maharashtra26-07-2021
HARCROS CHEMICALS PRIVATE LIMITEDU24290MH2021PTC364605Maharashtra26-07-2021
SOLAR LABORATORIES LIMITEDU24290MH2021PTC364612Maharashtra26-07-2021
SPACE HUB SOLUTIONS PRIVATE LIMITEDU63030MH2021PTC364625Maharashtra26-07-2021
SHRINIVASA DALL UDYOG PRIVATE LIMITEDU15400MH2021PTC364618Maharashtra26-07-2021
KRATOS LOGISTICS & DISTRIBUTION PRIVATE LIMITEDU63030MH2021PTC364628Maharashtra26-07-2021
ADENTECH PRIVATE LIMITEDU74999MH2021PTC364563Maharashtra26-07-2021
REMOTE HEALTHCARE TECHNOLOGIES PRIVATE LIMITEDU85100MH2021PTC364565Maharashtra26-07-2021
QUADRI FRESH FOODS PRIVATE LIMITEDU15400MH2021PTC364627Maharashtra26-07-2021
BUILDMEX-INFRA PRIVATE LIMITEDU51909MH2021PTC364598Maharashtra26-07-2021
FATELIKE PRIVATE LIMITEDU37100MH2021PTC364581Maharashtra26-07-2021
METABOLIX FITNESS PRIVATE LIMITEDU74999MH2021PTC364566Maharashtra26-07-2021
MEDIGRAM MULTISPECIALITY HOSPITAL AND TRAUMA CARE CENTER PRIVATE LIMITEDU85100MH2021PTC364590Maharashtra26-07-2021
AMALA VENTURES PRIVATE LIMITEDU74999MH2021PTC364582Maharashtra26-07-2021
MAA GANGEGODAWARI PRIVATE LIMITEDU24297MH2021PTC364609Maharashtra26-07-2021
SHRI SAI KRISHNA TRANSPORT AND LOGISTICSPRIVATE LIMITEDU63031MH2021PTC364577Maharashtra26-07-2021
NEXSTOC ESOLUTIONS PRIVATE LIMITEDU51909MH2021PTC364613Maharashtra26-07-2021
DISTECH DEVELOPERS AND CONTRACTORS PRIVATE LIMITEDU74999MH2021PTC364587Maharashtra26-07-2021
HENOX MEDICAL SYSTEMS PRIVATE LIMITEDU51909MH2021PTC364616Maharashtra26-07-2021
STUDIO GENEZA PRIVATE LIMITEDU74999MH2021PTC364591Maharashtra26-07-2021
RESPIREX DIAGNOSTICS PRIVATE LIMITEDU85100PN2021PTC202918Maharashtra26-07-2021
MEDMAX HEALTH SOLUTIONS PRIVATE LIMITEDU51909MH2021PTC364623Maharashtra26-07-2021
SHREE DATTA CABLE INTERNET SERVICES PRIVATE LIMITEDU64120MH2021PTC364596Maharashtra26-07-2021
NEOFLEET SHIPPING AND CHARTERING PRIVATELIMITEDU74999MH2021PTC364597Maharashtra26-07-2021
VATSALA MORGIRI GREEN ENERGY PROJECT PRIVATE LIMITEDU40100MH2021PTC364614Maharashtra26-07-2021
KUMAWAT URBAN NIDHI LIMITEDU65929MH2021PLN364564Maharashtra26-07-2021
GARAGE UNCLE INDIA SERVICES PRIVATE LIMITEDU74999MH2021PTC364606Maharashtra26-07-2021
KUBER BHOOMI POWER PRIVATE LIMITEDU40106MH2021PTC364574Maharashtra26-07-2021
BOOKFATAFAT PRIVATE LIMITEDU74999MH2021PTC364622Maharashtra26-07-2021
ADDPLUS CHITS PRIVATE LIMITEDU65929MH2021PTC364615Maharashtra26-07-2021
JEBTAL IMPORTS INDIA PRIVATE LIMITEDU51909PN2021FTC202910Maharashtra26-07-2021
JALAMRUT WATER SYSTEMS PRIVATE LIMITEDU41000MH2021PTC364608Maharashtra26-07-2021
ENROOT BUSINESS PRIVATE LIMITEDU74999MH2021PTC364629Maharashtra26-07-2021
ASMA EQUIPMENT AND ENGINEERING SOLUTION (OPC) PRIVATE LIMITEDU51909PN2021OPC202945Maharashtra26-07-2021
JANHIT URBAN MULTIPURPOSE NIDHI LIMITEDU65929PN2021PLN202935Maharashtra26-07-2021
NATHAJEE JAGGERY FOODS PRIVATE LIMITEDU15435PN2021PTC202941Maharashtra26-07-2021
CI-CREATIVE PRECISION INDUSTRIES PRIVATELIMITEDU29100PN2021PTC202974Maharashtra27-07-2021
AAI TULJAI PRATISHTHAN AGRO PRODUCER COMPANY LIMITEDU01100MH2021PTC364661Maharashtra27-07-2021
RAJSHRI TUBING (OPC) PRIVATE LIMITEDU74999PN2021OPC202973Maharashtra27-07-2021
BEST TAX INFO PRIVATE LIMITEDU74999PN2021PTC202957Maharashtra27-07-2021
PEST SEPARATRIX PRIVATE LIMITEDU74999PN2021PTC202971Maharashtra27-07-2021
OMSA INDUSTRIES PRIVATE LIMITEDU29256MH2021PTC364685Maharashtra27-07-2021
GAJANAN BHADAKWADE SUVARN NIDHI LIMITEDU65190PN2021PLN202976Maharashtra27-07-2021
MEZYN INITIATIVES PRIVATE LIMITEDU74999PN2021PTC202975Maharashtra27-07-2021
BIOME TECHNOLOGIES PRIVATE LIMITEDU73200PN2021PTC202965Maharashtra27-07-2021
KRUSHI STAR FARMER PRODUCER COMPANY LIMITEDU01100MH2021PTC364671Maharashtra27-07-2021
MATRUDARSHAN URBAN NIDHI LIMITEDU65900MH2021PLN364695Maharashtra27-07-2021
ENPOINTE ECOMMERCE OPERATIONS PRIVATE LIMITEDU52100MH2021PTC364648Maharashtra27-07-2021
ALFASYS ENGINEERING VENTURE PRIVATE LIMITEDU29308MH2021PTC364641Maharashtra27-07-2021
SARATHEEFARMS PRODUCER COMPANY LIMITEDU01100MH2021PTC364699Maharashtra27-07-2021
IKON BUILDCORP INDIA PRIVATE LIMITEDU45309PN2021PTC202959Maharashtra27-07-2021
DOKHALE PATIL FARMER PRODUCER COMPANY LIMITEDU01100MH2021PTC364705Maharashtra27-07-2021
GRANDIOSE PRODUCTS PRIVATE LIMITEDU29309PN2021PTC202952Maharashtra27-07-2021
NEXELLENCE INNOVATION PRIVATE LIMITEDU52190MH2021PTC364639Maharashtra27-07-2021
PANCHSHEEL CAPITAL PRIVATE LIMITEDU65990MH2021PTC364638Maharashtra27-07-2021
MELGHAT MILK PROCESSING FOUNDATIONU85300MH2021NPL364654Maharashtra27-07-2021
RAMLAXMI URBAN NIDHI LIMITEDU65990PN2021PLN202962Maharashtra27-07-2021
UDYAM WOMEN EMPOWERMENT FOUNDATIONU85300MH2021NPL364674Maharashtra27-07-2021
SAPTAGIRI GAUJAGRITY AND RESEARCH CENTERU85300MH2021NPL364700Maharashtra27-07-2021
GIGZ MANPOWER PRIVATE LIMITEDU74910MH2021PTC364650Maharashtra27-07-2021
MOST DIVINE SECURITY AND MANPOWER SOLUTION PRIVATE LIMITEDU74910MH2021PTC364664Maharashtra27-07-2021
KRSNAA DIAGNOSTICS (MOHALI) PRIVATE LIMITEDU85300PN2021PTC202948Maharashtra27-07-2021
VISCERAL TECHNOLOGY PRIVATE LIMITEDU22300MH2021PTC364659Maharashtra27-07-2021
MARMAK MULTISPECILITY HOSPITAL (SATARA) PRIVATE LIMITEDU85300PN2021PTC202956Maharashtra27-07-2021
NIBBAN NEWS MEDIA PRIVATE LIMITEDU22300MH2021PTC364662Maharashtra27-07-2021
SCITUS HEALTHCARE PRIVATE LIMITEDU85300PN2021PTC202969Maharashtra27-07-2021
SHIV-SARTHAK MULTIPLE URBAN NIDHI LIMITEDU65999MH2021PLN364647Maharashtra27-07-2021
MAMMUT SPORTS PRIVATE LIMITEDU52391PN2021PTC202953Maharashtra27-07-2021
VERLINVEST INDIA INVESTMENT ADVISOR PRIVATE LIMITEDU67100MH2021FTC364670Maharashtra27-07-2021
ARIELEO LIFE SCIENCES PRIVATE LIMITEDU24200PN2021PTC202958Maharashtra27-07-2021
NUTRITIVA AGRO SOLUTION PRIVATE LIMITEDU01100PN2021PTC202968Maharashtra27-07-2021
CIVILCONNECT (OPC) PRIVATE LIMITEDU45400PN2021OPC202954Maharashtra27-07-2021
G31 ICONIC DEVELOPMENT PRIVATE LIMITEDU45400PN2021PTC202949Maharashtra27-07-2021
MIRA SKINCARE PRODUCTS PRIVATE LIMITEDU52520MH2021PTC364682Maharashtra27-07-2021
AMBERBIZ INDIA WORLDWIDE PRIVATE LIMITEDU52590MH2021PTC364684Maharashtra27-07-2021
KOTECH INFRA PRIVATE LIMITEDU45400PN2021PTC202970Maharashtra27-07-2021
EKVIRA FINANCIAL SERVICES PRIVATE LIMITEDU67190MH2021PTC364686Maharashtra27-07-2021
NU INVESTORS TECHNOLOGIES PRIVATE LIMITEDU67200MH2021PTC364704Maharashtra27-07-2021
PETRIC AUTOMOTIVE PRIVATE LIMITEDU50400MH2021PTC364669Maharashtra27-07-2021
PARAMVIR DEVELOPERS PRIVATE LIMITEDU70100MH2021PTC364702Maharashtra27-07-2021
AQBELL IT SYSTEMS PRIVATE LIMITEDU72900MH2021FTC364675Maharashtra27-07-2021
PADMASIDDH ESTATE PRIVATE LIMITEDU70103MH2021PTC364694Maharashtra27-07-2021
INCLINE ENERGY PRIVATE LIMITEDU50500MH2021PTC364666Maharashtra27-07-2021
ATINA TECHNOLOGY PRIVATE LIMITEDU72900MH2021PTC364655Maharashtra27-07-2021
ADINIC ACTION FILMS AND MUSIC WORLD PRIVATE LIMITEDU92140MH2021PTC364678Maharashtra27-07-2021
CALIBRE TECHNOVATIONS PRIVATE LIMITEDU72900MH2021PTC364656Maharashtra27-07-2021
VIDYAPATI AGRO CHEMICALS PRIVATE LIMITEDU24290MH2021PTC364653Maharashtra27-07-2021
RED ARROW STUDIOS PRIVATE LIMITEDU92419MH2021PTC364665Maharashtra27-07-2021
AGRITUAL FARMERS PRODUCER COMPANY LIMITEDU01110MH2021PTC364642Maharashtra27-07-2021
SARVAA MANAGEMENT PRIVATE LIMITEDU93090MH2021PTC364698Maharashtra27-07-2021
KAI ANKUSHRAO DESHMUKH AGRO PRODUCER COMPANY LIMITEDU01110MH2021PTC364663Maharashtra27-07-2021
VIBE REALTY PRIVATE LIMITEDU70109MH2021PTC364706Maharashtra27-07-2021
MOVEUP REAL ESTATE PRIVATE LIMITEDU70109MH2021PTC364709Maharashtra27-07-2021
NICOLETTE PHARMACEUTICALS PRIVATE LIMITEDU24299MH2021PTC364645Maharashtra27-07-2021
CHETAK EQUINE DEVELOPMENTS PRIVATE LIMITEDU92490MH2021PTC364643Maharashtra27-07-2021
OUROBOROS EVENTS PRIVATE LIMITEDU92490MH2021PTC364680Maharashtra27-07-2021
AMODHIRA AGRO PRIVATE LIMITEDU01210MH2021PTC364658Maharashtra27-07-2021
TAMORA DIGIWORLD PRIVATE LIMITEDU92490MH2021PTC364691Maharashtra27-07-2021
SHIVTIRTHA FARMER PRODUCER COMPANY LIMITEDU01400MH2021PTC364707Maharashtra27-07-2021
KRUSHIDDHAN AGRO INDIA PRIVATE LIMITEDU01400PN2021PTC202961Maharashtra27-07-2021
NEURALGARAGE PRIVATE LIMITEDU72900MH2021PTC364657Maharashtra27-07-2021
ADYASHAKTI WISDOM SERVICES (OPC) PRIVATELIMITEDU80900MH2021OPC364683Maharashtra27-07-2021
MONDIAL SKILLS EDUCATION PRIVATE LIMITEDU80902MH2021PTC364697Maharashtra27-07-2021
FINTHEON PRIVATE LIMITEDU72900MH2021PTC364679Maharashtra27-07-2021
MINDZITA (OPC) PRIVATE LIMITEDU72900PN2021OPC202955Maharashtra27-07-2021
ZRS GLOBAL PRIVATE LIMITEDU72900PN2021PTC202950Maharashtra27-07-2021
SAMPASHRIYA TECHNOLOGIES PRIVATE LIMITEDU72900PN2021PTC202963Maharashtra27-07-2021
ESG WASTE SOLUTIONS INDIA PRIVATE LIMITEDU74999MH2021FTC364688Maharashtra27-07-2021
VISHWAGURU MOVEMENT FOUNDATIONU80903MH2021NPL364676Maharashtra27-07-2021
AL ARABIAN FOOD CORPORATION PRIVATE LIMITEDU15400MH2021PTC364708Maharashtra27-07-2021
MUMBAI INTERIOR SOLUTIONS PRIVATE LIMITEDU74999MH2021PTC364646Maharashtra27-07-2021
EDULIASION PRIVATE LIMITEDU80903MH2021PTC364689Maharashtra27-07-2021
GITANJALI INDUSTRIAL MART PRIVATE LIMITEDU51909MH2021PTC364677Maharashtra27-07-2021
SAISHDHAM SHRADDHA AND SWAYAMSEVA SANSTHANU80903PN2021NPL202960Maharashtra27-07-2021
GATS IMPEX PRIVATE LIMITEDU74999MH2021PTC364651Maharashtra27-07-2021
RAPID XCOMBINES PRIVATE LIMITEDU45201MH2021PTC364667Maharashtra27-07-2021
EMOTICON TECHNOLOGIES PRIVATE LIMITEDU74999MH2021PTC364652Maharashtra27-07-2021
PARAMVIR REAL ESTATES PRIVATE LIMITEDU45201MH2021PTC364710Maharashtra27-07-2021
YFL STUDIOS PRIVATE LIMITEDU74999MH2021PTC364672Maharashtra27-07-2021
ZSR FOODS (OPC) PRIVATE LIMITEDU51909PN2021OPC202966Maharashtra27-07-2021
K C R A F T TECHNOLOGIES PRIVATE LIMITEDU26999PN2021PTC202964Maharashtra27-07-2021
GREENINDIA SOLARAN PRIVATE LIMITEDU74999MH2021PTC364673Maharashtra27-07-2021
T T X HOLIDAYS PRIVATE LIMITEDU63000MH2021PTC364668Maharashtra27-07-2021
MHBV CONSULTANCY PRIVATE LIMITEDU74999MH2021PTC364681Maharashtra27-07-2021
AVANZATI PHARMA PRIVATE LIMITEDU74999MH2021PTC364687Maharashtra27-07-2021
EVIE HOLDINGS PRIVATE LIMITEDU70200MH2021PTC364696Maharashtra27-07-2021
SHIV SANKALP HOSPITALS PRIVATE LIMITEDU74999MH2021PTC364690Maharashtra27-07-2021
SIDDHIPRIYA HEALTHCARE PRIVATE LIMITEDU85100PN2021PTC202972Maharashtra27-07-2021
INSTAFOOD SERVICES PRIVATE LIMITEDU15490PN2021PTC202951Maharashtra27-07-2021
KULISHI HOSPITALITY PRIVATE LIMITEDU45202MH2021PTC364644Maharashtra27-07-2021
DWM INNOVATIONS PRIVATE LIMITEDU74999MH2021PTC364692Maharashtra27-07-2021
MEWISH TECHNOLOGIES PRIVATE LIMITEDU74999MH2021PTC364693Maharashtra27-07-2021
BHUMIRAJA EXPORT FARMER PRODUCER COMPANYLIMITEDU01100MH2021PTC364649Maharashtra27-07-2021
SEA KING-HNC (JV) PRIVATE LIMITEDU74999MH2021PTC364703Maharashtra27-07-2021
SACHIDANAND TRANSPORT SERVICES PRIVATE LIMITEDU63030MH2021PTC364640Maharashtra27-07-2021
ELLITA CONCIERGE PRIVATE LIMITEDU63030MH2021PTC364701Maharashtra27-07-2021
KRUSHIVARTA FARMER PRODUCER COMPANY LIMITEDU01100MH2021PTC364660Maharashtra27-07-2021
QYNEXT SOFTECH SERVICES PRIVATE LIMITEDU72900PN2021PTC203004Maharashtra28-07-2021
THINK BIG BPO SERVICES PRIVATE LIMITEDU64200MH2021PTC364783Maharashtra28-07-2021
YUVKUL PRIVATE LIMITEDU80902MH2021PTC364780Maharashtra28-07-2021
MESWEB CONSULTANCY SERVICES PRIVATE LIMITEDU72900PN2021PTC203013Maharashtra28-07-2021
ASK US REMEDIES PRIVATE LIMITEDU80902PN2021PTC202986Maharashtra28-07-2021
MOHEKAR STEEL INDUSTRIES PRIVATE LIMITEDU27100MH2021PTC364750Maharashtra28-07-2021
MAULI I NET PRIVATE LIMITEDU64204MH2021PTC364740Maharashtra28-07-2021
FUTURGEN TELEINFRA PRIVATE LIMITEDU64204PN2021PTC202995Maharashtra28-07-2021
SHAHADA AARTHIK NIDHI LIMITEDU65929MH2021PLN364795Maharashtra28-07-2021
BOLYYWOOD MEDIA HUB INDIA PRIVATE LIMITEDU92190MH2021PTC364760Maharashtra28-07-2021
VALIANCE BUILDERS AND DEVELOPERS PRIVATELIMITEDU45209MH2021PTC364756Maharashtra28-07-2021
DHANSHANTI MULTIPURPOSE NIDHI LIMITEDU65929PN2021PLN202980Maharashtra28-07-2021
GIRJAI INDUSTRIES PRIVATE LIMITEDU29100MH2021PTC364792Maharashtra28-07-2021
ELECTROAGRO PRIVATE LIMITEDU01110MH2021PTC364724Maharashtra28-07-2021
GENESISIMPERIAL ARTS PRIVATE LIMITEDU74999MH2021PTC364712Maharashtra28-07-2021
GREEN SAVER FARMER PRODUCER COMPANY LIMITEDU01409MH2021PTC364789Maharashtra28-07-2021
COUPALS MEDIA PRIVATE LIMITEDU74999MH2021PTC364721Maharashtra28-07-2021
T G GIRI AGRO PRODUCER COMPANY LIMITEDU01110MH2021PTC364741Maharashtra28-07-2021
ABEXLABS (OPC) PRIVATE LIMITEDU93090MH2021OPC364752Maharashtra28-07-2021
VAISHNAVI PEARL INFOCOM PRIVATE LIMITEDU92490MH2021PTC364738Maharashtra28-07-2021
MAINDANE PARISAR FARMERS PRODUCER COMPANY LIMITEDU01110MH2021PTC364802Maharashtra28-07-2021
PLASTOIL PRIVATE LIMITEDU11100PN2021PTC202998Maharashtra28-07-2021
RANESHWAR FARMERS PRODUCER COMPANY LIMITEDU01110MH2021PTC364804Maharashtra28-07-2021
MAHA AGRO FARMFOODS SOLUTIONS FARMER PRODUCER COMPANY LIMITEDU01110PN2021PTC202993Maharashtra28-07-2021
TIRUPATIBALAJI FARMER PRODUCER COMPANY LIMITEDU01400MH2021PTC364747Maharashtra28-07-2021
BHUTEKAR FARMER PRODUCER COMPANY LIMITEDU01400MH2021PTC364805Maharashtra28-07-2021
INFINITE PROCESS SOLUTION PRIVATE LIMITEDU29197PN2021PTC202982Maharashtra28-07-2021
SAMBHAJINAGAR NAGRI NIDHI LIMITEDU65990MH2021PLN364761Maharashtra28-07-2021
WOW GROWTH PRIVATE LIMITEDU74999MH2021PTC364732Maharashtra28-07-2021
DHARGAWE ENTERPRISES ENGINEERING & CONTRACTOR PRIVATE LIMITEDU45309MH2021PTC364736Maharashtra28-07-2021
CREW WECARE PRIVATE LIMITEDU74999MH2021PTC364744Maharashtra28-07-2021
FINEY FINANCE PRIVATE LIMITEDU65990MH2021PTC364749Maharashtra28-07-2021
KEER CONTRACTORS AND DEVELOPERS PRIVATE LIMITEDU45309MH2021PTC364773Maharashtra28-07-2021
DIGI SMART ASSETS PRIVATE LIMITEDU74999MH2021PTC364751Maharashtra28-07-2021
YEMMY AGROFOOD PRIVATE LIMITEDU15490MH2021PTC364726Maharashtra28-07-2021
TOOLMAT TECHNO TRADE (OPC) PRIVATE LIMITEDU29256MH2021OPC364800Maharashtra28-07-2021
JAN MUDRA CREDIT PRIVATE LIMITEDU65990MH2021PTC364797Maharashtra28-07-2021
LAWA FARMS.COM PRIVATE LIMITEDU74999MH2021PTC364754Maharashtra28-07-2021
EVGROW COMMODITIES PRIVATE LIMITEDU15490MH2021PTC364728Maharashtra28-07-2021
AGENTA REALTY AND INFRA PRIVATE LIMITEDU45309PN2021PTC202997Maharashtra28-07-2021
CASHPHIL CARDS PRIVATE LIMITEDU74999MH2021PTC364759Maharashtra28-07-2021
NAIRS BEVERAGES FOOD AND HOSPITALITY PRIVATE LIMITEDU15490MH2021PTC364746Maharashtra28-07-2021
VSR ENPRO CONSULTANTS PRIVATE LIMITEDU74999MH2021PTC364763Maharashtra28-07-2021
JDMD INFRA PRIVATE LIMITEDU45309PN2021PTC203003Maharashtra28-07-2021
STARTEASY PRIVATE LIMITEDU74999MH2021PTC364767Maharashtra28-07-2021
FIXOTEC PIPE SUPPORTS PRIVATE LIMITEDU29309MH2021PTC364711Maharashtra28-07-2021
PRARYAN MILK AND MILK PRODUCTS PRIVATE LIMITEDU15490PN2021PTC203006Maharashtra28-07-2021
GENESYS LASERS PRIVATE LIMITEDU29309PN2021PTC202989Maharashtra28-07-2021
GAZATO COMPONENTS INDIA LIMITEDU52100PN2021PLC202979Maharashtra28-07-2021
ACHINTYA BUSINESS SOLUTIONS PRIVATE LIMITEDU74999MH2021PTC364768Maharashtra28-07-2021
ARUNAM FOODS AND HOSPITALITY PRIVATE LIMITEDU15490PN2021PTC203007Maharashtra28-07-2021
CANADIAN LIFE CONSULTANT PRIVATE LIMITEDU74999MH2021PTC364777Maharashtra28-07-2021
FELICITIA TRADING PRIVATE LIMITEDU74999MH2021PTC364806Maharashtra28-07-2021
UNPACKED FARM (OPC) PRIVATE LIMITEDU15549MH2021OPC364718Maharashtra28-07-2021
SMUGS BEVERAGES (OPC) PRIVATE LIMITEDU15549MH2021OPC364776Maharashtra28-07-2021
LA IMPRESSION VITTLES PRIVATE LIMITEDU15549PN2021PTC202996Maharashtra28-07-2021
CONA ELECTRICALS PRIVATE LIMITEDU31900MH2021PTC364796Maharashtra28-07-2021
POHARE-CHALISGAON FARMER PRODUCER COMPANY LIMITEDU01100MH2021PTC364720Maharashtra28-07-2021
MARKET WAVEGEN (OPC) PRIVATE LIMITEDU74999PN2021OPC202988Maharashtra28-07-2021
VARSHA WEALTH ADVISORY & MANAGEMENT PRIVATE LIMITEDU67100MH2021PTC364794Maharashtra28-07-2021
MALGANGA INDUSTRIAL SERVICES (OPC) PRIVATE LIMITEDU74999PN2021OPC203002Maharashtra28-07-2021
PRAGATHITECH AGRO FARMER PRODUCER COMPANY LIMITEDU01100MH2021PTC364722Maharashtra28-07-2021
ADSTORM ADVERTISING (OPC) PRIVATE LIMITEDU74999PN2021OPC203005Maharashtra28-07-2021
ART INDIA OOH PRIVATE LIMITEDU74999PN2021PTC202994Maharashtra28-07-2021
JAGRUTII REHAB CENTRE PRIVATE LIMITEDU74999PN2021PTC203011Maharashtra28-07-2021
BHOOMIRATNAM REAL ESTATE PRIVATE LIMITEDU70100MH2021PTC364793Maharashtra28-07-2021
AKKINOS AGRO PRIVATE LIMITEDU01100MH2021PTC364723Maharashtra28-07-2021
SURYUDEY PLASTIC ELECTRONICS PRIVATE LIMITEDU31909MH2021PTC364717Maharashtra28-07-2021
KRUSHIGAURAV BALAJI FARMERS PRODUCER COMPANY LIMITEDU01100MH2021PTC364731Maharashtra28-07-2021
MG ENGINEERS COOLING SYSTEMS PRIVATE LIMITEDU31909PN2021PTC202992Maharashtra28-07-2021
BOX DEPOT PRIVATE LIMITEDU21029MH2021PTC364743Maharashtra28-07-2021
BHANDARA BIOFUEL PRIVATE LIMITEDU23201MH2021PTC364769Maharashtra28-07-2021
SHIV PRERANA FARMER PRODUCER COMPANY LIMITEDU01100MH2021PTC364753Maharashtra28-07-2021
RYANSCOT PHARMACEUTICALS PRIVATE LIMITEDU33119MH2021PTC364764Maharashtra28-07-2021
VIOMDAN ENTERPRISES PRIVATE LIMITEDU24230MH2021PTC364772Maharashtra28-07-2021
SADHKESHWAR AGRO PRODUCER COMPANY LIMITEDU01100MH2021PTC364762Maharashtra28-07-2021
NPZ ADVISORY SERVICES PRIVATE LIMITEDU74140MH2021PTC364775Maharashtra28-07-2021
DELITA CONSULTANTS PRIVATE LIMITEDU74140MH2021PTC364779Maharashtra28-07-2021
KHEDEKAR FARMERS PRODUCER COMPANY LIMITEDU01100MH2021PTC364765Maharashtra28-07-2021
NAMO E TAIL PRIVATE LIMITEDU50400MH2021PTC364785Maharashtra28-07-2021
DADOFAD PRIVATE LIMITEDU74300MH2021PTC364734Maharashtra28-07-2021
NAGARJUNA AGARBATTI ASSOCIATIONU85300MH2021NPL364713Maharashtra28-07-2021
PADMASIDDH DEVELOPERS PRIVATE LIMITEDU70109MH2021PTC364714Maharashtra28-07-2021
SHIVRAJMUDRA RULER FARMERS PRODUCER COMPANY LIMITEDU01100MH2021PTC364791Maharashtra28-07-2021
NAGPUR GROUP OF FRIENDS – MAA ASSOCIATIONU85300MH2021NPL364715Maharashtra28-07-2021
SHANA INFRASTRUCTURES PRIVATE LIMITEDU70109MH2021PTC364784Maharashtra28-07-2021
TRIROZ PHARMACEUTICALS PRIVATE LIMITEDU24246PN2021PTC202987Maharashtra28-07-2021
UTKARSH ELECTROMECH (OPC) PRIVATE LIMITEDU51505PN2021OPC202977Maharashtra28-07-2021
S. A. I. KHARAA SONA PRIVATE LIMITEDU36990MH2021PTC364766Maharashtra28-07-2021
SHIV GOVIND AGRO PRODUCER COMPANY LIMITEDU01100MH2021PTC364799Maharashtra28-07-2021
FIRE LILY HOSPITALITY PRIVATE LIMITEDU55209MH2021PTC364755Maharashtra28-07-2021
NASHIK ZILHA AHILYADEVI HOLKAR DHANGAR SAMAJ EDUCATION FORUMU85300MH2021NPL364727Maharashtra28-07-2021
SWYAM SHIKSHA EDUCATIONAL FOUNDATIONU85300MH2021NPL364742Maharashtra28-07-2021
MADHULAKSHMI NATURAL FARMERS PRODUCER COMPANY LIMITEDU01100MH2021PTC364801Maharashtra28-07-2021
NAM GROUP OF INDUSTRIES PRIVATE LIMITEDU24290MH2021PTC364787Maharashtra28-07-2021
GOD WILLS DISASTER ASSURANCE HELP MANAGEMENT COUNCIL INDIAU85300MH2021NPL364745Maharashtra28-07-2021
MULTICOLOUR SPICES ASSOCIATIONU85300MH2021NPL364748Maharashtra28-07-2021
VIBRANT E PACT SOLUTIONS PRIVATE LIMITEDU40100PN2021PTC203001Maharashtra28-07-2021
AKSHAYDEEP SOCIAL FOUNDATIONU85300MH2021NPL364774Maharashtra28-07-2021
GLOBAL PAYEX TECHNOLOGIES PRIVATE LIMITEDU72900MH2021FTC364788Maharashtra28-07-2021
DR.SUNBEAM SOLUTIONS PRIVATE LIMITEDU40101PN2021PTC203010Maharashtra28-07-2021
TECH MAHINDRA DEFENCE TECHNOLOGIES LIMITEDU72900MH2021PLC364803Maharashtra28-07-2021
LITTLE SHINE FOUNDATIONU85300MH2021NPL364781Maharashtra28-07-2021
HUMAN CURATION TECHNOLOGIES PRIVATE LIMITEDU72900MH2021PTC364719Maharashtra28-07-2021
SILA FOR CHANGE FOUNDATIONU85300MH2021NPL364786Maharashtra28-07-2021
KRISHIMITRA ORGANIC PRIVATE LIMITEDU01100PN2021PTC202985Maharashtra28-07-2021
ASA DIGI PRIVATE LIMITEDU72900MH2021PTC364733Maharashtra28-07-2021
GIGATEH NETWORKS PRIVATE LIMITEDU72900MH2021PTC364758Maharashtra28-07-2021
SEALINK INTERNATIONAL SHIPPING AND LOGISTICS PRIVATE LIMITEDU63030MH2021FTC364807Maharashtra28-07-2021
CLEAN MAX KRATOS PRIVATE LIMITEDU40106MH2021PTC364757Maharashtra28-07-2021
SARTH KHAATRRI FOUNDATIONU85300PN2021NPL203009Maharashtra28-07-2021
SAIKSH AGRO PRIVATE LIMITEDU01100PN2021PTC202999Maharashtra28-07-2021
SHANAYA INNOVATIONS PRIVATE LIMITEDU72900MH2021PTC364771Maharashtra28-07-2021
THIYA DISTRIBUTION AND LOGISTIC PRIVATE LIMITEDU63030PN2021PTC202981Maharashtra28-07-2021
FINE STAR SOLAR ENERGY PRIVATE LIMITEDU40106PN2021PTC202991Maharashtra28-07-2021
SEA COAST EDUCATION FOUNDATIONU85300PN2021NPL203012Maharashtra28-07-2021
SMARTSHADOW ENTERPRISES PRIVATE LIMITEDU72900MH2021PTC364782Maharashtra28-07-2021
IOT SPACE TECHNOLOGIES PRIVATE LIMITEDU72900MH2021PTC364790Maharashtra28-07-2021
OM GREEN ENERGY PRIVATE LIMITEDU40300MH2021PTC364716Maharashtra28-07-2021
NUPREMO GLOBAL TRADING PRIVATE LIMITEDU51909MH2021PTC364725Maharashtra28-07-2021
REAL SPACE TECHNOLOGIES PRIVATE LIMITEDU72900MH2021PTC364798Maharashtra28-07-2021
BITAPLUS INNOVATIVE TECHNOLOGY PRIVATE LIMITEDU51909MH2021PTC364737Maharashtra28-07-2021
NOBLE EXPLOSIVE PRIVATE LIMITEDU24300PN2021PTC203000Maharashtra28-07-2021
ANIKET LOGISTIC SERVICES PRIVATE LIMITEDU63090MH2021PTC364730Maharashtra28-07-2021
MUDALE SHINDE ASSOCIATES PRIVATE LIMITEDU51909MH2021PTC364739Maharashtra28-07-2021
REVIND ANALYTICS PRIVATE LIMITEDU72200MH2021PTC364729Maharashtra28-07-2021
ELASTIK TEAMS INDIA PRIVATE LIMITEDU72900PN2021FTC202984Maharashtra28-07-2021
DEVSEVA NAGARI INDIA PRIVATE LIMITEDU45201MH2021PTC364770Maharashtra28-07-2021
FLAUTA TECHNOLOGIES PRIVATE LIMITEDU72200MH2021PTC364778Maharashtra28-07-2021
CALISTO CHEMICALS PRIVATE LIMITEDU51909PN2021PTC202990Maharashtra28-07-2021
BLUEHEN SOLUTIONS (OPC) PRIVATE LIMITEDU72900PN2021OPC202978Maharashtra28-07-2021
HEXADIGI SOFTWARE PRIVATE LIMITEDU72900PN2021PTC202983Maharashtra28-07-2021
SHREE SAMARATH CONSTRUCTION AND BUILDERSPRIVATE LIMITEDU45201PN2021PTC203008Maharashtra28-07-2021
NISS COMMUNICATION PRIVATE LIMITEDU64200MH2021PTC364735Maharashtra28-07-2021
BPG SNACK FOODS PRIVATE LIMITEDU15100MH2021PTC364813Maharashtra29-07-2021
COVERALL MANAGEMENT SERVICES PRIVATE LIMITEDU74999MH2021PTC364872Maharashtra29-07-2021
DETECH TRADING PRIVATE LIMITEDU74999MH2021PTC364876Maharashtra29-07-2021
RELIANCE CARBON FIBRE CYLINDER LIMITEDU40109MH2021PLC364832Maharashtra29-07-2021
WELLINEX PRIVATE LIMITEDU01110MH2021PTC364852Maharashtra29-07-2021
MANVAT TALUKA AGRO PRODUCER COMPANY LIMITEDU01110MH2021PTC364874Maharashtra29-07-2021
HBL BIOTECH (OPC) PRIVATE LIMITEDU01400PN2021OPC203059Maharashtra29-07-2021
PRATIKSHA FARMER PRODUCER COMPANY LIMITEDU01409MH2021PTC364858Maharashtra29-07-2021
SWAVLAMBAN GRAMVIKAS FARMER PRODUCER COMPANY LIMITEDU01110MH2021PTC364897Maharashtra29-07-2021
KHANESHWAR FARMERS PRODUCER COMPANY LIMITEDU01409MH2021PTC364890Maharashtra29-07-2021
GAMBA AQUACULTURE PRIVATE LIMITEDU05000MH2021PTC364848Maharashtra29-07-2021
HINDUJA INDUSTRIES PRIVATE LIMITEDU24200PN2021PTC203040Maharashtra29-07-2021
ICON STEEL SOCIAL FOUNDATIONU85300MH2021NPL364823Maharashtra29-07-2021
AREETE AI AND ROBOTICS (OPC) PRIVATE LIMITEDU72900PN2021OPC203019Maharashtra29-07-2021
DARSHANI ENTERTAINMENT PRIVATE LIMITEDU32209MH2021PTC364879Maharashtra29-07-2021
SHRI PIXELBYTES INDIA PRIVATE LIMITEDU72900PN2021PTC203029Maharashtra29-07-2021
KASNALE FOUNDATIONU85300MH2021NPL364833Maharashtra29-07-2021
RICHORGANIC VEGY TOWER PRIVATE LIMITEDU01100PN2021PTC203044Maharashtra29-07-2021
GURUKULGROWTH EDUCATION FOUNDATIONU85300MH2021NPL364871Maharashtra29-07-2021
PARAS COLOUR INDUSTRIES PRIVATE LIMITEDU24220PN2021PTC203037Maharashtra29-07-2021
EUPHROSYNE HOSPITALS PRIVATE LIMITEDU85300MH2021PTC364885Maharashtra29-07-2021
SANGHANA AGRO FARMERS PRODUCER COMPANY LIMITEDU01100PN2021PTC203050Maharashtra29-07-2021
BUVTTECH LIFE SCIENCE INDIA PRIVATE LIMITEDU33100PN2021PTC203020Maharashtra29-07-2021
KRUSHIK CHARITABLE FOUNDATIONU85300PN2021NPL203038Maharashtra29-07-2021
LUCKY YOUTH FOUNDATIONU85300PN2021NPL203039Maharashtra29-07-2021
EAST OXFORD SOLUTIONS PRIVATE LIMITEDU33110PN2021PTC203035Maharashtra29-07-2021
GLOBICON LOGISTICS PRIVATE LIMITEDU63030MH2021PTC364895Maharashtra29-07-2021
BAPU FOUNDATION FOR LEARNING ON MIND ANDDISCOURSEU85300PN2021NPL203051Maharashtra29-07-2021
BB-AGARWAL PACKERS AND MOVERS PRIVATE LIMITEDU63030MH2021PTC364905Maharashtra29-07-2021
RUGVEDA GLOBAL FOUNDATIONU85300PN2021NPL203053Maharashtra29-07-2021
TYELLO AUTOMOTIVE PRIVATE LIMITEDU50401MH2021PTC364851Maharashtra29-07-2021
OM SHRI KRISHNAY NAMAH FOUNDATIONU85300PN2021NPL203060Maharashtra29-07-2021
OKM WELL CARE BUSINESS PRIVATE LIMITEDU85300PN2021PTC203062Maharashtra29-07-2021
OXIREX TECHNOLOGIES PRIVATE LIMITEDU33112MH2021PTC364836Maharashtra29-07-2021
BLACKOAK OVERSEAS PRIVATE LIMITEDU51494MH2021PTC364898Maharashtra29-07-2021
JADI BUTI ELEMENTS PRIVATE LIMITEDU24246MH2021PTC364909Maharashtra29-07-2021
SINDICOLPO PRIVATE LIMITEDU33203MH2021PTC364837Maharashtra29-07-2021
KEVA VENTURES PRIVATE LIMITEDU24249MH2021PTC364853Maharashtra29-07-2021
STARBIX INFOCOM PRIVATE LIMITEDU64200MH2021PTC364811Maharashtra29-07-2021
AOM HITECH ENTERPRISES PRIVATE LIMITEDU64200MH2021PTC364864Maharashtra29-07-2021
PODAR EDUSPACE TECH PRIVATE LIMITEDU80301MH2021PTC364838Maharashtra29-07-2021
UAVGARAGE PRIVATE LIMITEDU34300MH2021PTC364830Maharashtra29-07-2021
TRW INSTITUTE OF EDUCATION AND SKILLING PRIVATE LIMITEDU80302PN2021PTC203057Maharashtra29-07-2021
LASUR URBAN MULTI NIDHI LIMITEDU65929MH2021PLN364822Maharashtra29-07-2021
PYCER HEALTHCARE PRIVATE LIMITEDU24296PN2021PTC203036Maharashtra29-07-2021
INCIPERE TECHNOLOGY PRIVATE LIMITEDU72200PN2021PTC203026Maharashtra29-07-2021
CCP ENVIRONMENTAL FOUNDATIONU80900PN2021NPL203043Maharashtra29-07-2021
VENKATESH JEWELLERS PRIVATE LIMITEDU36911PN2021PTC203022Maharashtra29-07-2021
OSRA PHARMA PRIVATE LIMITEDU51909MH2021PTC364820Maharashtra29-07-2021
LAQSH CHEMTECH PRIVATE LIMITEDU24299MH2021PTC364865Maharashtra29-07-2021
SANCHAY PARV MUTUAL BENEFIT NIDHI LIMITEDU65990MH2021PLN364812Maharashtra29-07-2021
ULTRACHEM OVERSEAS PRIVATE LIMITEDU24299MH2021PTC364870Maharashtra29-07-2021
OXZEFERS EXPORT PRIVATE LIMITEDU51909PN2021PTC203018Maharashtra29-07-2021
JAMKHED URBAN NIDHI LIMITEDU65990MH2021PLN364855Maharashtra29-07-2021
CFO GURU PRIVATE LIMITEDU74999MH2021PTC364808Maharashtra29-07-2021
EMPIRICIAL BUSINESS SOLUTIONS PRIVATE LIMITEDU51909PN2021PTC203049Maharashtra29-07-2021
SPACE OF THE GREATS (OPC) PRIVATE LIMITEDU80902MH2021OPC364839Maharashtra29-07-2021
ARYAN FINANCIAL SERVICES PRIVATE LIMITEDU65990MH2021PTC364889Maharashtra29-07-2021
LEARN FROM NATIVE INDIA PRIVATE LIMITEDU80902PN2021PTC203017Maharashtra29-07-2021
BUZWORKS NETWORKS PRIVATE LIMITEDU74999MH2021PTC364810Maharashtra29-07-2021
DAKSH VIKAS PRIVATE LIMITEDU90009MH2021PTC364827Maharashtra29-07-2021
CALL MINER SOLUTIONS PRIVATE LIMITEDU74999MH2021PTC364814Maharashtra29-07-2021
GOTI EXPORTS PRIVATE LIMITEDU36999MH2021PTC364846Maharashtra29-07-2021
DHYEYA MULTISTATE MARKET YARD NIDHI LIMITEDU65990PN2021PLN203027Maharashtra29-07-2021
ECONOFINE CONSULTANCY AND TECHNOLOGY PRIVATE LIMITEDU74999MH2021PTC364816Maharashtra29-07-2021
ADHARWAD URBAN NIDHI LIMITEDU65990PN2021PLN203058Maharashtra29-07-2021
GTD STONE PROCESSING PRIVATE LIMITEDU14294PN2021PTC203032Maharashtra29-07-2021
AJITNATH ASSOCIATES PRIVATE LIMITEDU74999MH2021PTC364826Maharashtra29-07-2021
ALL ABOUT WINDOWS PRIVATE LIMITEDU36999MH2021PTC364875Maharashtra29-07-2021
WONDER WARRIORS MANPOWER SERVICES PRIVATE LIMITEDU74999MH2021PTC364835Maharashtra29-07-2021
WHITE DESIGNS AND MOTION PRIVATE LIMITEDU92419MH2021PTC364866Maharashtra29-07-2021
PRAVEEN PETROLEUM SERVICES PRIVATE LIMITEDU74999MH2021PTC364859Maharashtra29-07-2021
EARNINGWAVES PRIVATE LIMITEDU80903MH2021PTC364857Maharashtra29-07-2021
TML FINTECH PRIVATE LIMITEDU74999MH2021PTC364860Maharashtra29-07-2021
MINDCRAVE PRIVATE LIMITEDU80903MH2021PTC364901Maharashtra29-07-2021
ARKS SUPERMART PRIVATE LIMITEDU52100PN2021PTC203031Maharashtra29-07-2021
SANTADAYANAND FARMER PRODUCER COMPANY LIMITEDU01100MH2021PTC364824Maharashtra29-07-2021
INSPEO HR SERVICES (OPC) PRIVATE LIMITEDU74999PN2021OPC203046Maharashtra29-07-2021
ARSIPL TECHNOLOGIES PRIVATE LIMITEDU74999PN2021PTC203014Maharashtra29-07-2021
HENX INFRASTRUCTURE PRIVATE LIMITEDU45209PN2021PTC203033Maharashtra29-07-2021
YOOPROP CONSULTING PRIVATE LIMITEDU74999PN2021PTC203041Maharashtra29-07-2021
SHETKAR FARMERS AGRO PRODUCER COMPANY LIMITEDU01100MH2021PTC364834Maharashtra29-07-2021
KATZEN SYSTEM INDIA PRIVATE LIMITEDU74999PN2021PTC203045Maharashtra29-07-2021
RUKMINI RAMKRISHNA INDUSTRIES PRIVATE LIMITEDU27320PN2021PTC203021Maharashtra29-07-2021
SOMANI CONSULTANCY IMF PRIVATE LIMITEDU66000MH2021PTC364891Maharashtra29-07-2021
VIRYA GOLD MANTRA PRIVATE LIMITEDU15549MH2021PTC364840Maharashtra29-07-2021
SANDHI BIOENERGY PRIVATE LIMITEDU74999PN2021PTC203048Maharashtra29-07-2021
KARGAR BUSINESS SERVICES PRIVATE LIMITEDU74999PN2021PTC203055Maharashtra29-07-2021
JANSHANTI FARMER PRODUCER COMPANY LIMITEDU01100MH2021PTC364847Maharashtra29-07-2021
MAAASHAPURA FIBERS PRIVATE LIMITEDU17200PN2021PTC203054Maharashtra29-07-2021
STRANGERS ON SERVICES PRIVATE LIMITEDU74999PN2021PTC203061Maharashtra29-07-2021
ONEFT ENTERPRISES PRIVATE LIMITEDU67190MH2021PTC364829Maharashtra29-07-2021
SWAMIMAULI FARMERS PRODUCER COMPANY LIMITEDU01100MH2021PTC364850Maharashtra29-07-2021
ACGL SPINNERS PRIVATE LIMITEDU17299MH2021PTC364843Maharashtra29-07-2021
SUNRACK GREEN TECHNOLOGIES PRIVATE LIMITEDU29100MH2021PTC364861Maharashtra29-07-2021
BESPECT PRIVATE LIMITEDU52599MH2021PTC364904Maharashtra29-07-2021
SHREENATHJI INFRACON BUILD PRIVATE LIMITEDU45309MH2021PTC364818Maharashtra29-07-2021
ECO GREEN FARMERS PRODUCER COMPANY LIMITEDU01100MH2021PTC364869Maharashtra29-07-2021
SHIVANJ VENTURES PRIVATE LIMITEDU45309MH2021PTC364841Maharashtra29-07-2021
TEXBAZAAR PRIVATE LIMITEDU17299PN2021PTC203034Maharashtra29-07-2021
RINIKA SOLUTIONS PRIVATE LIMITEDU45309MH2021PTC364863Maharashtra29-07-2021
TRANSCON CONSTRUCTION INFRA PRIVATE LIMITEDU45309MH2021PTC364868Maharashtra29-07-2021
HAJARE AGROPROCESS FARMERS PRODUCER COMPANY LIMITEDU01100MH2021PTC364881Maharashtra29-07-2021
YN INFRA PRIVATE LIMITEDU45309PN2021PTC203030Maharashtra29-07-2021
SHRI VITTHALBABA GRANDSON AGRO INDUSTRIES PRIVATE LIMITEDU01100MH2021PTC364882Maharashtra29-07-2021
SHREE AADISHANKAR FARMER PRODUCER COMPANY LIMITEDU01100MH2021PTC364907Maharashtra29-07-2021
PRAKASH MAINTENANCE AND SERVICES PRIVATELIMITEDU74910MH2021PTC364844Maharashtra29-07-2021
PMSI PEST MANAGER SERVICES INDIA PRIVATELIMITEDU74930MH2021PTC364825Maharashtra29-07-2021
WHEELABRATOR REALTY PRIVATE LIMITEDU70109MH2021PTC364880Maharashtra29-07-2021
WISEFINCH ROBOTICS AND AUTOMATION PRIVATE LIMITEDU29309PN2021PTC203024Maharashtra29-07-2021
SIDDHEE MEAL AND ALLIED SERVICES PRIVATELIMITEDU55209MH2021PTC364856Maharashtra29-07-2021
PROPUNITED INDIA PRIVATE LIMITEDU70109MH2021PTC364908Maharashtra29-07-2021
DIGITAL BLACKBOARD SOLUTIONS PRIVATE LIMITEDU72900MH2021PTC364815Maharashtra29-07-2021
WILLY SOFTECH PRIVATE LIMITEDU72900MH2021PTC364821Maharashtra29-07-2021
PREMNARAYEN TECH VENTURES PRIVATE LIMITEDU72900MH2021PTC364842Maharashtra29-07-2021
MATHURESH PACKAGING SOLUTIONS PRIVATE LIMITEDU19200MH2021PTC364817Maharashtra29-07-2021
GRIDKITCHEN PRIVATE LIMITEDU55209PN2021PTC203056Maharashtra29-07-2021
I-GENPRO CONSULTING SERVICES PRIVATE LIMITEDU72900MH2021PTC364845Maharashtra29-07-2021
HIVERLAB INDIA PRIVATE LIMITEDU72900MH2021PTC364849Maharashtra29-07-2021
WEEKLYNEED INDIA PRIVATE LIMITEDU72900MH2021PTC364854Maharashtra29-07-2021
RELIANCE POWER ELECTRONICS LIMITEDU31900MH2021PLC364873Maharashtra29-07-2021
REGUBIZ INFO INDIA PRIVATE LIMITEDU72900MH2021PTC364862Maharashtra29-07-2021
AARUSH CARGO MOVERS PRIVATE LIMITEDU60220MH2021PTC364878Maharashtra29-07-2021
TEKSOLIN SOLUTIONS PRIVATE LIMITEDU72900MH2021PTC364867Maharashtra29-07-2021
AUXILL TECHNOLOGIES PRIVATE LIMITEDU72900MH2021PTC364877Maharashtra29-07-2021
VENETUSTECH SOLUTIONS PRIVATE LIMITEDU72900MH2021PTC364892Maharashtra29-07-2021
GROWTHALLY FINTECH PRIVATE LIMITEDU72900MH2021PTC364902Maharashtra29-07-2021
VARAL AYUSH AGRO INDUSTRIES PRIVATE LIMITEDU01100PN2021PTC203025Maharashtra29-07-2021
COMACOE MARINE TERMINAL MANAGEMENT SERVICES PRIVATE LIMITEDU63000MH2021PTC364888Maharashtra29-07-2021
IT CART PRIVATE LIMITEDU72900MH2021PTC364903Maharashtra29-07-2021
BHARARI SAKHI PRODUCER COMPANY LIMITEDU01100PN2021PTC203028Maharashtra29-07-2021
MEDIENVIRO INDIA PRIVATE LIMITEDU24110PN2021PTC203042Maharashtra29-07-2021
DP MICRO SERVICES ASSOCIATIONU85300MH2021NPL364809Maharashtra29-07-2021
RADHA MANAGEMENT TECHNOLOGIES PRIVATE LIMITEDU74999MH2021PTC364894Maharashtra29-07-2021
IDEAFUSION ADVISORS PRIVATE LIMITEDU74999MH2021PTC364896Maharashtra29-07-2021
GOWORTH TRADING PRIVATE LIMITEDU74999MH2021PTC364899Maharashtra29-07-2021
SWASTIK PRAGATI NIDHI LIMITEDU65991MH2021PLN364831Maharashtra29-07-2021
LOGI-FY INFOTECH PRIVATE LIMITEDU74999MH2021PTC364906Maharashtra29-07-2021
DUBEY SHIPPING AND LOGISTICS PRIVATE LIMITEDU74999MH2021PTC364910Maharashtra29-07-2021
FIN WEALTH FINANCIAL SERVICES PRIVATE LIMITEDU65991MH2021PTC364900Maharashtra29-07-2021
BIG B CONSUMER PRODUCTS PRIVATE LIMITEDU15490MH2021PTC364887Maharashtra29-07-2021
VIDARBHA JANADHAN URBAN NIDHI LIMITEDU65991PN2021PLN203052Maharashtra29-07-2021
SORATHIYA REALTY PRIVATE LIMITEDU45202MH2021PTC364828Maharashtra29-07-2021
VFRAMES INDIA PRIVATE LIMITEDU27100MH2021PTC364893Maharashtra29-07-2021
GROWMAX NEWAGE NIDHI LIMITEDU65999MH2021PLN364819Maharashtra29-07-2021
SKRB CONSULTANCY SERVICES (OPC) PRIVATE LIMITEDU74999PN2021OPC203015Maharashtra29-07-2021
SWAMIDATTA URBAN SHIRUR NIDHI LIMITEDU65999PN2021PLN203047Maharashtra29-07-2021
PRAKRUTI ENVIRONMENT CONSULTANTS INDIA (OPC) PRIVATE LIMITEDU74999PN2021OPC203016Maharashtra29-07-2021
DR. DUDHABHATE HEALTHCARE PRIVATE LIMITEDU85100PN2021PTC203023Maharashtra29-07-2021
PRECISION CHEESE TUBE MANUFACTURING PRIVATE LIMITEDU28110MH2021PTC364940Maharashtra30-07-2021
PPS CONSULTING PRIVATE LIMITEDU74999MH2021PTC364983Maharashtra30-07-2021
NAUEASY RECRUITMENT SOLUTIONS PRIVATE LIMITEDU74999MH2021PTC364999Maharashtra30-07-2021
DSV POLYMERS PRIVATE LIMITEDU29100PN2021PTC203085Maharashtra30-07-2021
CHAMPIONS FILTERS AND INNOVATION PRIVATELIMITEDU29300MH2021PTC364994Maharashtra30-07-2021
JUST PROFIT INDIA (OPC) PRIVATE LIMITEDU74999PN2021OPC203081Maharashtra30-07-2021
SUDANKO TECHNO ENGINEERS PRIVATE LIMITEDU29304MH2021PTC364966Maharashtra30-07-2021
ECHO LILY ENTERTAINMENT PRIVATE LIMITEDU74999PN2021PTC203074Maharashtra30-07-2021
PNEUMOELECTRIC INSTRUMENTATION (OPC) PRIVATE LIMITEDU29306MH2021OPC364943Maharashtra30-07-2021
SANIKA FACILITY SERVICES PRIVATE LIMITEDU74999PN2021PTC203089Maharashtra30-07-2021
ACHIEVER SUPERMARTS PRIVATE LIMITEDU52599MH2021PTC364918Maharashtra30-07-2021
PHV HEALTH PRODUCTS PRIVATE LIMITEDU52599MH2021PTC364951Maharashtra30-07-2021
U-MAX BATTERIES PRIVATE LIMITEDU31400PN2021PTC203067Maharashtra30-07-2021
JAGTAP BIZSERV PRIVATE LIMITEDU45403PN2021PTC203080Maharashtra30-07-2021
GIGATEX CORPORATIONS PRIVATE LIMITEDU31900MH2021PTC364936Maharashtra30-07-2021
ADIHIT FINANCIALS PRIVATE LIMITEDU67190MH2021PTC364991Maharashtra30-07-2021
LAXMINARAYAN VENKATESHWARA PRODUCER COMPANY LIMITEDU01100MH2021PTC364913Maharashtra30-07-2021
ARTISANAT EXPORTS INDIA PRIVATE LIMITEDU18209MH2021PTC364954Maharashtra30-07-2021
BLUE ATOM (OPC) PRIVATE LIMITEDU52609MH2021OPC365010Maharashtra30-07-2021
FIBERAMA NETWORKS PRIVATE LIMITEDU31900MH2021PTC364982Maharashtra30-07-2021
POONAM STICH QUILT FOUNDATIONU85300MH2021NPL364916Maharashtra30-07-2021
TREYST ADVISORS PRIVATE LIMITEDU67190MH2021PTC365005Maharashtra30-07-2021
PADVI ELECTRICAL INDIA (OPC) PRIVATE LIMITEDU31909MH2021OPC364993Maharashtra30-07-2021
DHARASHIV INDUSTRIAL DEVELOPMENT COUNCILU73100MH2021NPL364953Maharashtra30-07-2021
RUNEM PRIVATE LIMITEDU31909MH2021PTC364960Maharashtra30-07-2021
AUTOVERHAUL WERKE (OPC) PRIVATE LIMITEDU50400MH2021OPC364981Maharashtra30-07-2021
AUTOCRAT PROTECTIONS PRIVATE LIMITEDU50400PN2021PTC203063Maharashtra30-07-2021
LAXMI SURGICAL HEALTHCARE PRIVATE LIMITEDU33100MH2021PTC364930Maharashtra30-07-2021
SAMARATA FARMERS PRODUCER COMPANY LIMITEDU01100MH2021PTC364914Maharashtra30-07-2021
X-ON-LAKE (OPC) PRIVATE LIMITEDU55101MH2021OPC364946Maharashtra30-07-2021
HYDRALUBE IMPEX PRIVATE LIMITEDU50500MH2021PTC365006Maharashtra30-07-2021
TOSSTO FOODS PRIVATE LIMITEDU55101MH2021PTC365013Maharashtra30-07-2021
TREE CYCLE FOUNDATIONU85300MH2021NPL364992Maharashtra30-07-2021
VIDHARBHA FOOD BASKET PRIVATE LIMITEDU51220MH2021PTC364947Maharashtra30-07-2021
KHUNTEGAON AGRO PRODUCER COMPANY LIMITEDU01100MH2021PTC364917Maharashtra30-07-2021
KIT-RSS HOSPITALITY PRIVATE LIMITEDU55101PN2021PTC203082Maharashtra30-07-2021
IMAEC MEDNTEK LIMITEDU85300MH2021PLC364956Maharashtra30-07-2021
MEDSTURDY PHARMACEUTICALS PRIVATE LIMITEDU85300MH2021PTC365011Maharashtra30-07-2021
LILYAN PHARMACEUTICALS PRIVATE LIMITEDU51397PN2021PTC203079Maharashtra30-07-2021
ARCHIS INDUSTRIESS INDIA PRIVATE LIMITEDU20231PN2021PTC203091Maharashtra30-07-2021
TERNAFIELD PRODUCER COMPANY LIMITEDU01100MH2021PTC364922Maharashtra30-07-2021
DHAMMKRANTI SOCIAL FOUNDATIONU85300PN2021NPL203071Maharashtra30-07-2021
SWAYAM SAKHI SHETMAL PRODUCER COMPANY LIMITEDU01100MH2021PTC364957Maharashtra30-07-2021
SCM PRINTPACK INDIA PRIVATE LIMITEDU22219PN2021PTC203083Maharashtra30-07-2021
KANASARA MAULI ADIVASI FARMERS PRODUCER COMPANY LIMITEDU01100MH2021PTC364978Maharashtra30-07-2021
NOTHING TO HIDE (OPC) PRIVATE LIMITEDU55200MH2021OPC364939Maharashtra30-07-2021
S HATOTE AGRO PRODUCER COMPANY LIMITEDU01100MH2021PTC365003Maharashtra30-07-2021
ARHAAM FILMS PRIVATE LIMITEDU36900MH2021PTC364929Maharashtra30-07-2021
ANAYARA REALTY PRIVATE LIMITEDU70109MH2021PTC364968Maharashtra30-07-2021
NANEGAON BALIRAJA AGRO PRODUCER COMPANY LIMITEDU01100MH2021PTC365008Maharashtra30-07-2021
STECKON BUILDCON PRIVATE LIMITEDU70109MH2021PTC364979Maharashtra30-07-2021
HINDBHUMI ROADLINES PRIVATE LIMITEDU60200MH2021PTC365001Maharashtra30-07-2021
WISEKIN PRIVATE LIMITEDU80302MH2021PTC364988Maharashtra30-07-2021
WEBILEC (OPC) PRIVATE LIMITEDU80900MH2021OPC364975Maharashtra30-07-2021
FSN DISTRIBUTION PRIVATE LIMITEDU51909MH2021PTC364942Maharashtra30-07-2021
CELESTIAL SOLAR ENERGY PRIVATE LIMITEDU40200MH2021PTC364952Maharashtra30-07-2021
QRATERS BOUTIQUE PRIVATE LIMITEDU51909MH2021PTC364967Maharashtra30-07-2021
PINGALE CLEANFUELS PRIVATE LIMITEDU40200MH2021PTC364974Maharashtra30-07-2021
SOFTTREAT HEALTHCARE PRIVATE LIMITEDU51909MH2021PTC364976Maharashtra30-07-2021
TOP BEATS PRIVATE LIMITEDU92140MH2021PTC364990Maharashtra30-07-2021
VIKSHAR HEALTHCARE PRIVATE LIMITEDU51909MH2021PTC365000Maharashtra30-07-2021
BRH TRADELINK PRIAVATE LIMITEDU51909PN2021PTC203064Maharashtra30-07-2021
GAME INFINITY STUDIO PRIVATE LIMITEDU72900MH2021FTC364995Maharashtra30-07-2021
ELRAPIDO DIGITAL MARKETING (OPC) PRIVATELIMITEDU72900MH2021OPC364912Maharashtra30-07-2021
SCRIPT MOJO FILMS PRIVATE LIMITEDU92419MH2021PTC364955Maharashtra30-07-2021
ATRA PHYGITAL (OPC) PRIVATE LIMITEDU72900MH2021OPC364924Maharashtra30-07-2021
GLORK INDIA INFRASTRUCTURE PRIVATE LIMITEDU45200MH2021PTC364921Maharashtra30-07-2021
SANDHAANAM INDIA (OPC) PRIVATE LIMITEDU72900MH2021OPC364925Maharashtra30-07-2021
CREAVIAN DIGITAL (OPC) PRIVATE LIMITEDU72900MH2021OPC364950Maharashtra30-07-2021
VIJYOG INFOTECH (OPC) PRIVATE LIMITEDU72900MH2021OPC365014Maharashtra30-07-2021
DELWHIZZ LOGISTICS (OPC) PRIVATE LIMITEDU63030MH2021OPC365007Maharashtra30-07-2021
SMARTJI SOLUTIONS PRIVATE LIMITEDU72900MH2021PTC364928Maharashtra30-07-2021
MAX LINE GLOBAL VAAHIKA LIMITEDU63030MH2021PLC364927Maharashtra30-07-2021
SNEYASH PRIVATE LIMITEDU45201MH2021PTC364915Maharashtra30-07-2021
OWK MARKETING PRIVATE LIMITEDU92490MH2021PTC364977Maharashtra30-07-2021
OMVIRAS INTEGRATED LOGISTICS PRIVATE LIMITEDU63030MH2021PTC364948Maharashtra30-07-2021
LEX-FUND-IT TECHNOLOGIES PRIVATE LIMITEDU72900MH2021PTC364932Maharashtra30-07-2021
SCHEELITE PHARMACEUTICALS PRIVATE LIMITEDU24239PN2021PTC203076Maharashtra30-07-2021
ACRES INFRA PROJECTS PRIVATE LIMITEDU70200MH2021PTC365002Maharashtra30-07-2021
INSOURCEDEV PRIVATE LIMITEDU72900MH2021PTC364937Maharashtra30-07-2021
NAGDA BUILDCON PRIVATE LIMITEDU45201PN2021PTC203066Maharashtra30-07-2021
BEYOND DIGI PRIVATE LIMITEDU72900MH2021PTC364945Maharashtra30-07-2021
DHHAN-E-PAY TECH PRIVATE LIMITEDU72900MH2021PTC364973Maharashtra30-07-2021
KARNUK DESIGN CONSULTANCY PRIVATE LIMITEDU72900MH2021PTC364989Maharashtra30-07-2021
IMPACTSURE TECHNOLOGIES PRIVATE LIMITEDU72900MH2021PTC364997Maharashtra30-07-2021
WINGSLANDER PRIVATE LIMITEDU93090PN2021PTC203070Maharashtra30-07-2021
RHUGVED HEALTH CARE PHARMA PRIVATE LIMITEDU24290MH2021PTC364987Maharashtra30-07-2021
SANBUX HR PRIVATE LIMITEDU93090PN2021PTC203077Maharashtra30-07-2021
BASIC TO BEST PRIVATE LIMITEDU80903MH2021PTC364998Maharashtra30-07-2021
AARUSH PHARMACARE PRIVATE LIMITEDU24290PN2021PTC203086Maharashtra30-07-2021
SUSNEHAM PRIVATE LIMITEDU64203PN2021PTC203075Maharashtra30-07-2021
INZENIOUS SOFTWARE PRIVATE LIMITEDU72200PN2021PTC203087Maharashtra30-07-2021
PINNACLE OXYGEN PRIVATE LIMITEDU11200MH2021PTC364938Maharashtra30-07-2021
JINIE FOOD PRIVATE LIMITEDU15130MH2021PTC364963Maharashtra30-07-2021
BIOFERTEX FARMERS PRODUCER COMPANY LIMITEDU01111MH2021PTC364934Maharashtra30-07-2021
KISAN SURAJYA PRODUCER COMPANY LIMITEDU01114MH2021PTC364958Maharashtra30-07-2021
KISANLALJI SANCHETI AGROTECH FARMER PRODUCER COMPANY LIMITEDU01110MH2021PTC364972Maharashtra30-07-2021
CHUNDESHWARI AGRO PRODUCER COMPANY LIMITEDU01400MH2021PTC364919Maharashtra30-07-2021
FINE AGRONOMIST PRODUCER COMPANY LIMITEDU01110PN2021PTC203084Maharashtra30-07-2021
ANOMALY FOODS AND BREWERIES PRIVATE LIMITEDU15400MH2021PTC364985Maharashtra30-07-2021
FLY 11 PRIVATE LIMITEDU72501MH2021PTC364986Maharashtra30-07-2021
GONDIAAROMA FARMS PRIVATE LIMITEDU24299MH2021PTC364941Maharashtra30-07-2021
UPSWELL INFRASTRUCTURE PRIVATE LIMITEDU45209MH2021PTC364920Maharashtra30-07-2021
UNITED COUNCIL OF HEALTHCARE RESEARCHU85100MH2021NPL365009Maharashtra30-07-2021
CELTSOFT (OPC) PRIVATE LIMITEDU72900PN2021OPC203073Maharashtra30-07-2021
LEOTHRIX GREEN SCIENCES PRIVATE LIMITEDU24299MH2021PTC364969Maharashtra30-07-2021
SHAHBAZKERS DIAGNOSTIC CENTRE PRIVATE LIMITEDU85100MH2021PTC364970Maharashtra30-07-2021
ITASAP INDIA PRIVATE LIMITEDU72900PN2021PTC203068Maharashtra30-07-2021
OPTI INDIA PHARMA PRIVATE LIMITEDU24299MH2021PTC364984Maharashtra30-07-2021
VK INNOVATIONS PRIVATE LIMITEDU72900PN2021PTC203069Maharashtra30-07-2021
LGT WEALTH INDIA PRIVATE LIMITEDU65990MH2021FTC365012Maharashtra30-07-2021
POMONA-FRESH TECH PRIVATE LIMITEDU52100MH2021PTC364923Maharashtra30-07-2021
CRESA GREENTECH PRIVATE LIMITEDU85100PN2021PTC203092Maharashtra30-07-2021
FINSSO INDIA NIDHI LIMITEDU65990MH2021PLN364926Maharashtra30-07-2021
MEDI ENCORE HEALTHCARE PRIVATE LIMITEDU85100PN2021PTC203093Maharashtra30-07-2021
APIARY BREW WORKS PRIVATE LIMITEDU52100MH2021PTC364965Maharashtra30-07-2021
GETMYEATS INDIA PRIVATE LIMITEDU52100MH2021PTC365004Maharashtra30-07-2021
KARNAL URBAN NIDHI LIMITEDU65990PN2021PLN203072Maharashtra30-07-2021
RED MOON 7 SEAS PRIVATE LIMITEDU52100PN2021PTC203078Maharashtra30-07-2021
TIRUMALAS SNACKS PRIVATE LIMITEDU15490MH2021PTC364931Maharashtra30-07-2021
NIMAYA TRADERS PRIVATE LIMITEDU52100PN2021PTC203088Maharashtra30-07-2021
MSK HEALTHSYSTEMS PRIVATE LIMITEDU85110MH2021PTC364964Maharashtra30-07-2021
KATHERIN ENTERPRISES PRIVATE LIMITEDU25209MH2021PTC364980Maharashtra30-07-2021
SUCCESSFUL PEOPLE NETWORK (OPC) PRIVATE LIMITEDU74999MH2021OPC364959Maharashtra30-07-2021
INAMDAR & MULLA ENTERPRISES PRIVATE LIMITEDU52190MH2021PTC364933Maharashtra30-07-2021
MONEYSIGNAL (OPC) PRIVATE LIMITEDU74999MH2021OPC364996Maharashtra30-07-2021
SHREE SANT GOROBA KAKA CONSTRUCTION PRIVATE LIMITEDU45309MH2021PTC364911Maharashtra30-07-2021
SHRIRAM WEALTHPLUS MANAGEMENT PRIVATE LIMITEDU74999MH2021PTC364935Maharashtra30-07-2021
MCONSULT LABS PRIVATE LIMITEDU74999MH2021PTC364944Maharashtra30-07-2021
MASTECH CONSTRO PRIVATE LIMITEDU45309PN2021PTC203065Maharashtra30-07-2021
GLOBAL GUARD AGENCY PRIVATE LIMITEDU74999MH2021PTC364949Maharashtra30-07-2021
SSREEFINVEST FINANCIAL SERVICES PRIVATE LIMITEDU65999MH2021PTC364971Maharashtra30-07-2021
SHREE PRARAMBHA SMARTENERGIES PRIVATE LIMITEDU52335MH2021PTC364962Maharashtra30-07-2021

Leave a Reply

Fill in your details below or click an icon to log in:

WordPress.com Logo

You are commenting using your WordPress.com account. Log Out /  Change )

Google photo

You are commenting using your Google account. Log Out /  Change )

Twitter picture

You are commenting using your Twitter account. Log Out /  Change )

Facebook photo

You are commenting using your Facebook account. Log Out /  Change )

Connecting to %s

This site uses Akismet to reduce spam. Learn how your comment data is processed.